<?xml version="1.0" encoding="UTF-8" standalone="no" ?>
<gpx xmlns="http://www.topografix.com/GPX/1/1" xmlns:xsi="http://www.w3.org/2001/XMLSchema-instance" xsi:schemaLocation="http://www.topografix.com/GPX/1/1 http://www.topografix.com/GPX/1/1/gpx.xsd" version="1.1" creator="VisuGPX - https://www.visugpx.com">
  <metadata>
    <name>Roquesteron alentours</name>
    <desc><![CDATA[Deux belles Descente, une courte (la petite boucle) et une longue. 
Attention il y a du vide sur certain passage. Mais sentiers très agréables, surtout en elec...

]]></desc>
  </metadata>
  <trk>
    <name><![CDATA[Roquesteron alentours ]]></name>
    <desc><![CDATA[Evtt]]></desc>
    <trkseg>
      <trkpt lat="43.87423" lon="7.00951">
        <ele>324.5</ele>
        <time>2025-03-15T09:11:07Z</time>
      </trkpt>
      <trkpt lat="43.87423" lon="7.00949">
        <ele>324</ele>
        <time>2025-03-15T09:11:07Z</time>
      </trkpt>
      <trkpt lat="43.87428" lon="7.00949">
        <ele>323</ele>
        <time>2025-03-15T09:11:07Z</time>
      </trkpt>
      <trkpt lat="43.87445" lon="7.00943">
        <ele>318.6</ele>
        <time>2025-03-15T09:11:07Z</time>
      </trkpt>
      <trkpt lat="43.87447" lon="7.00942">
        <ele>318.2</ele>
        <time>2025-03-15T09:11:07Z</time>
      </trkpt>
      <trkpt lat="43.87449" lon="7.00941">
        <ele>318.2</ele>
        <time>2025-03-15T09:11:07Z</time>
      </trkpt>
      <trkpt lat="43.87462" lon="7.00937">
        <ele>320.1</ele>
        <time>2025-03-15T09:11:07Z</time>
      </trkpt>
      <trkpt lat="43.87473" lon="7.00933">
        <ele>324.3</ele>
        <time>2025-03-15T09:11:07Z</time>
      </trkpt>
      <trkpt lat="43.87477" lon="7.00931">
        <ele>325.5</ele>
        <time>2025-03-15T09:11:07Z</time>
      </trkpt>
      <trkpt lat="43.87482" lon="7.00926">
        <ele>326.6</ele>
        <time>2025-03-15T09:11:07Z</time>
      </trkpt>
      <trkpt lat="43.87484" lon="7.00923">
        <ele>327</ele>
        <time>2025-03-15T09:11:07Z</time>
      </trkpt>
      <trkpt lat="43.87483" lon="7.00915">
        <ele>327.3</ele>
        <time>2025-03-15T09:11:07Z</time>
      </trkpt>
      <trkpt lat="43.87481" lon="7.00904">
        <ele>328.3</ele>
        <time>2025-03-15T09:11:07Z</time>
      </trkpt>
      <trkpt lat="43.87475" lon="7.00879">
        <ele>327.8</ele>
        <time>2025-03-15T09:11:07Z</time>
      </trkpt>
      <trkpt lat="43.87471" lon="7.00862">
        <ele>327.7</ele>
        <time>2025-03-15T09:11:07Z</time>
      </trkpt>
      <trkpt lat="43.87454" lon="7.0082">
        <ele>326.3</ele>
        <time>2025-03-15T09:11:07Z</time>
      </trkpt>
      <trkpt lat="43.87453" lon="7.00818">
        <ele>326.3</ele>
        <time>2025-03-15T09:11:07Z</time>
      </trkpt>
      <trkpt lat="43.87451" lon="7.00814">
        <ele>326.9</ele>
        <time>2025-03-15T09:11:07Z</time>
      </trkpt>
      <trkpt lat="43.87438" lon="7.00783">
        <ele>326.2</ele>
        <time>2025-03-15T09:11:07Z</time>
      </trkpt>
      <trkpt lat="43.87413" lon="7.00729">
        <ele>323.4</ele>
        <time>2025-03-15T09:11:07Z</time>
      </trkpt>
      <trkpt lat="43.87399" lon="7.00699">
        <ele>322.7</ele>
        <time>2025-03-15T09:11:07Z</time>
      </trkpt>
      <trkpt lat="43.87388" lon="7.00679">
        <ele>321</ele>
        <time>2025-03-15T09:11:07Z</time>
      </trkpt>
      <trkpt lat="43.8738" lon="7.00668">
        <ele>319.7</ele>
        <time>2025-03-15T09:11:07Z</time>
      </trkpt>
      <trkpt lat="43.87374" lon="7.00663">
        <ele>318.8</ele>
        <time>2025-03-15T09:11:07Z</time>
      </trkpt>
      <trkpt lat="43.8737" lon="7.0066">
        <ele>318</ele>
        <time>2025-03-15T09:11:07Z</time>
      </trkpt>
      <trkpt lat="43.87362" lon="7.00657">
        <ele>316.7</ele>
        <time>2025-03-15T09:11:07Z</time>
      </trkpt>
      <trkpt lat="43.87355" lon="7.00654">
        <ele>315.8</ele>
        <time>2025-03-15T09:11:07Z</time>
      </trkpt>
      <trkpt lat="43.87349" lon="7.00651">
        <ele>315.5</ele>
        <time>2025-03-15T09:11:07Z</time>
      </trkpt>
      <trkpt lat="43.87343" lon="7.00646">
        <ele>315.3</ele>
        <time>2025-03-15T09:11:07Z</time>
      </trkpt>
      <trkpt lat="43.87339" lon="7.0064">
        <ele>315.3</ele>
        <time>2025-03-15T09:11:07Z</time>
      </trkpt>
      <trkpt lat="43.87331" lon="7.00626">
        <ele>314.9</ele>
        <time>2025-03-15T09:11:07Z</time>
      </trkpt>
      <trkpt lat="43.87327" lon="7.00623">
        <ele>314.5</ele>
        <time>2025-03-15T09:11:07Z</time>
      </trkpt>
      <trkpt lat="43.87322" lon="7.00618">
        <ele>314</ele>
        <time>2025-03-15T09:11:07Z</time>
      </trkpt>
      <trkpt lat="43.87317" lon="7.00613">
        <ele>312.9</ele>
        <time>2025-03-15T09:11:07Z</time>
      </trkpt>
      <trkpt lat="43.87308" lon="7.00611">
        <ele>311.9</ele>
        <time>2025-03-15T09:11:07Z</time>
      </trkpt>
      <trkpt lat="43.87303" lon="7.0061">
        <ele>311.2</ele>
        <time>2025-03-15T09:11:07Z</time>
      </trkpt>
      <trkpt lat="43.87297" lon="7.00608">
        <ele>310.7</ele>
        <time>2025-03-15T09:11:07Z</time>
      </trkpt>
      <trkpt lat="43.87289" lon="7.00606">
        <ele>309.6</ele>
        <time>2025-03-15T09:11:07Z</time>
      </trkpt>
      <trkpt lat="43.87274" lon="7.00602">
        <ele>308.4</ele>
        <time>2025-03-15T09:11:07Z</time>
      </trkpt>
      <trkpt lat="43.87262" lon="7.00599">
        <ele>310.2</ele>
        <time>2025-03-15T09:11:07Z</time>
      </trkpt>
      <trkpt lat="43.87261" lon="7.00599">
        <ele>311.6</ele>
        <time>2025-03-15T09:11:07Z</time>
      </trkpt>
      <trkpt lat="43.87259" lon="7.00599">
        <ele>311.6</ele>
        <time>2025-03-15T09:11:07Z</time>
      </trkpt>
      <trkpt lat="43.87257" lon="7.00599">
        <ele>313</ele>
        <time>2025-03-15T09:11:07Z</time>
      </trkpt>
      <trkpt lat="43.87247" lon="7.00612">
        <ele>312.5</ele>
        <time>2025-03-15T09:11:07Z</time>
      </trkpt>
      <trkpt lat="43.87239" lon="7.00611">
        <ele>314.6</ele>
        <time>2025-03-15T09:11:07Z</time>
      </trkpt>
      <trkpt lat="43.87234" lon="7.0061">
        <ele>316.2</ele>
        <time>2025-03-15T09:11:07Z</time>
      </trkpt>
      <trkpt lat="43.87226" lon="7.00604">
        <ele>317.9</ele>
        <time>2025-03-15T09:11:07Z</time>
      </trkpt>
      <trkpt lat="43.87208" lon="7.00589">
        <ele>320.5</ele>
        <time>2025-03-15T09:11:07Z</time>
      </trkpt>
      <trkpt lat="43.87206" lon="7.00587">
        <ele>322.3</ele>
        <time>2025-03-15T09:11:07Z</time>
      </trkpt>
      <trkpt lat="43.87205" lon="7.00586">
        <ele>321.4</ele>
        <time>2025-03-15T09:11:07Z</time>
      </trkpt>
      <trkpt lat="43.87195" lon="7.00578">
        <ele>322.9</ele>
        <time>2025-03-15T09:11:07Z</time>
      </trkpt>
      <trkpt lat="43.8719" lon="7.00575">
        <ele>323.6</ele>
        <time>2025-03-15T09:11:07Z</time>
      </trkpt>
      <trkpt lat="43.87177" lon="7.00564">
        <ele>323.1</ele>
        <time>2025-03-15T09:11:07Z</time>
      </trkpt>
      <trkpt lat="43.87172" lon="7.0056">
        <ele>323.3</ele>
        <time>2025-03-15T09:11:07Z</time>
      </trkpt>
      <trkpt lat="43.87154" lon="7.00548">
        <ele>320.7</ele>
        <time>2025-03-15T09:11:07Z</time>
      </trkpt>
      <trkpt lat="43.87139" lon="7.00537">
        <ele>323.6</ele>
        <time>2025-03-15T09:11:07Z</time>
      </trkpt>
      <trkpt lat="43.87134" lon="7.00534">
        <ele>322.6</ele>
        <time>2025-03-15T09:11:07Z</time>
      </trkpt>
      <trkpt lat="43.87115" lon="7.00519">
        <ele>323.4</ele>
        <time>2025-03-15T09:11:07Z</time>
      </trkpt>
      <trkpt lat="43.87103" lon="7.00507">
        <ele>325.2</ele>
        <time>2025-03-15T09:11:07Z</time>
      </trkpt>
      <trkpt lat="43.87095" lon="7.00497">
        <ele>325.6</ele>
        <time>2025-03-15T09:11:07Z</time>
      </trkpt>
      <trkpt lat="43.87087" lon="7.00488">
        <ele>326.1</ele>
        <time>2025-03-15T09:11:07Z</time>
      </trkpt>
      <trkpt lat="43.87072" lon="7.00471">
        <ele>327.4</ele>
        <time>2025-03-15T09:11:07Z</time>
      </trkpt>
      <trkpt lat="43.87062" lon="7.00462">
        <ele>328.4</ele>
        <time>2025-03-15T09:11:07Z</time>
      </trkpt>
      <trkpt lat="43.87047" lon="7.00454">
        <ele>329.1</ele>
        <time>2025-03-15T09:11:07Z</time>
      </trkpt>
      <trkpt lat="43.87033" lon="7.00449">
        <ele>329.1</ele>
        <time>2025-03-15T09:11:07Z</time>
      </trkpt>
      <trkpt lat="43.87019" lon="7.00442">
        <ele>330.5</ele>
        <time>2025-03-15T09:11:07Z</time>
      </trkpt>
      <trkpt lat="43.87003" lon="7.00433">
        <ele>332.3</ele>
        <time>2025-03-15T09:11:07Z</time>
      </trkpt>
      <trkpt lat="43.86983" lon="7.00424">
        <ele>335.9</ele>
        <time>2025-03-15T09:11:07Z</time>
      </trkpt>
      <trkpt lat="43.86972" lon="7.00422">
        <ele>337.6</ele>
        <time>2025-03-15T09:11:07Z</time>
      </trkpt>
      <trkpt lat="43.86961" lon="7.00425">
        <ele>338.9</ele>
        <time>2025-03-15T09:11:07Z</time>
      </trkpt>
      <trkpt lat="43.8695" lon="7.00432">
        <ele>337.6</ele>
        <time>2025-03-15T09:11:07Z</time>
      </trkpt>
      <trkpt lat="43.86935" lon="7.00448">
        <ele>334.7</ele>
        <time>2025-03-15T09:11:07Z</time>
      </trkpt>
      <trkpt lat="43.86922" lon="7.00461">
        <ele>332.7</ele>
        <time>2025-03-15T09:11:07Z</time>
      </trkpt>
      <trkpt lat="43.86915" lon="7.00465">
        <ele>331.8</ele>
        <time>2025-03-15T09:11:07Z</time>
      </trkpt>
      <trkpt lat="43.86908" lon="7.00467">
        <ele>332.4</ele>
        <time>2025-03-15T09:11:07Z</time>
      </trkpt>
      <trkpt lat="43.86902" lon="7.00463">
        <ele>334.1</ele>
        <time>2025-03-15T09:11:07Z</time>
      </trkpt>
      <trkpt lat="43.86896" lon="7.00459">
        <ele>336</ele>
        <time>2025-03-15T09:11:07Z</time>
      </trkpt>
      <trkpt lat="43.8688" lon="7.00448">
        <ele>339.4</ele>
        <time>2025-03-15T09:11:07Z</time>
      </trkpt>
      <trkpt lat="43.86869" lon="7.00444">
        <ele>341.3</ele>
        <time>2025-03-15T09:11:07Z</time>
      </trkpt>
      <trkpt lat="43.86862" lon="7.00445">
        <ele>341.4</ele>
        <time>2025-03-15T09:11:07Z</time>
      </trkpt>
      <trkpt lat="43.8686" lon="7.00447">
        <ele>341.4</ele>
        <time>2025-03-15T09:11:07Z</time>
      </trkpt>
      <trkpt lat="43.86857" lon="7.0045">
        <ele>339.8</ele>
        <time>2025-03-15T09:11:07Z</time>
      </trkpt>
      <trkpt lat="43.86853" lon="7.00457">
        <ele>336.6</ele>
        <time>2025-03-15T09:11:07Z</time>
      </trkpt>
      <trkpt lat="43.86849" lon="7.00466">
        <ele>333.4</ele>
        <time>2025-03-15T09:11:07Z</time>
      </trkpt>
      <trkpt lat="43.86838" lon="7.00465">
        <ele>333.9</ele>
        <time>2025-03-15T09:11:07Z</time>
      </trkpt>
      <trkpt lat="43.86823" lon="7.00465">
        <ele>336.4</ele>
        <time>2025-03-15T09:11:07Z</time>
      </trkpt>
      <trkpt lat="43.86807" lon="7.00467">
        <ele>339.2</ele>
        <time>2025-03-15T09:11:07Z</time>
      </trkpt>
      <trkpt lat="43.86787" lon="7.00473">
        <ele>341.6</ele>
        <time>2025-03-15T09:11:07Z</time>
      </trkpt>
      <trkpt lat="43.86772" lon="7.00477">
        <ele>346.4</ele>
        <time>2025-03-15T09:11:07Z</time>
      </trkpt>
      <trkpt lat="43.86764" lon="7.00485">
        <ele>345.4</ele>
        <time>2025-03-15T09:11:07Z</time>
      </trkpt>
      <trkpt lat="43.86758" lon="7.00489">
        <ele>347</ele>
        <time>2025-03-15T09:11:07Z</time>
      </trkpt>
      <trkpt lat="43.86747" lon="7.00496">
        <ele>347.8</ele>
        <time>2025-03-15T09:11:07Z</time>
      </trkpt>
      <trkpt lat="43.86742" lon="7.00497">
        <ele>350.8</ele>
        <time>2025-03-15T09:11:07Z</time>
      </trkpt>
      <trkpt lat="43.86735" lon="7.00496">
        <ele>352.4</ele>
        <time>2025-03-15T09:11:07Z</time>
      </trkpt>
      <trkpt lat="43.86728" lon="7.00492">
        <ele>357</ele>
        <time>2025-03-15T09:11:07Z</time>
      </trkpt>
      <trkpt lat="43.86722" lon="7.00495">
        <ele>357.6</ele>
        <time>2025-03-15T09:11:07Z</time>
      </trkpt>
      <trkpt lat="43.86714" lon="7.00507">
        <ele>358.7</ele>
        <time>2025-03-15T09:11:07Z</time>
      </trkpt>
      <trkpt lat="43.86704" lon="7.0052">
        <ele>358.7</ele>
        <time>2025-03-15T09:11:07Z</time>
      </trkpt>
      <trkpt lat="43.86702" lon="7.00527">
        <ele>357.8</ele>
        <time>2025-03-15T09:11:07Z</time>
      </trkpt>
      <trkpt lat="43.86696" lon="7.00531">
        <ele>357.8</ele>
        <time>2025-03-15T09:11:07Z</time>
      </trkpt>
      <trkpt lat="43.86687" lon="7.00527">
        <ele>361.5</ele>
        <time>2025-03-15T09:11:07Z</time>
      </trkpt>
      <trkpt lat="43.86684" lon="7.00526">
        <ele>362.6</ele>
        <time>2025-03-15T09:11:07Z</time>
      </trkpt>
      <trkpt lat="43.86677" lon="7.00524">
        <ele>366.4</ele>
        <time>2025-03-15T09:11:07Z</time>
      </trkpt>
      <trkpt lat="43.86671" lon="7.0053">
        <ele>362.9</ele>
        <time>2025-03-15T09:11:07Z</time>
      </trkpt>
      <trkpt lat="43.86665" lon="7.00534">
        <ele>361.2</ele>
        <time>2025-03-15T09:11:07Z</time>
      </trkpt>
      <trkpt lat="43.86655" lon="7.0053">
        <ele>364.5</ele>
        <time>2025-03-15T09:11:07Z</time>
      </trkpt>
      <trkpt lat="43.86634" lon="7.00527">
        <ele>367.9</ele>
        <time>2025-03-15T09:11:07Z</time>
      </trkpt>
      <trkpt lat="43.86618" lon="7.00525">
        <ele>368.1</ele>
        <time>2025-03-15T09:11:07Z</time>
      </trkpt>
      <trkpt lat="43.86599" lon="7.00523">
        <ele>371</ele>
        <time>2025-03-15T09:11:07Z</time>
      </trkpt>
      <trkpt lat="43.86593" lon="7.00521">
        <ele>371.3</ele>
        <time>2025-03-15T09:11:07Z</time>
      </trkpt>
      <trkpt lat="43.86588" lon="7.00514">
        <ele>375.8</ele>
        <time>2025-03-15T09:11:07Z</time>
      </trkpt>
      <trkpt lat="43.8658" lon="7.00502">
        <ele>383.8</ele>
        <time>2025-03-15T09:11:07Z</time>
      </trkpt>
      <trkpt lat="43.86573" lon="7.005">
        <ele>383.5</ele>
        <time>2025-03-15T09:11:07Z</time>
      </trkpt>
      <trkpt lat="43.86556" lon="7.005">
        <ele>384.6</ele>
        <time>2025-03-15T09:11:07Z</time>
      </trkpt>
      <trkpt lat="43.86554" lon="7.00501">
        <ele>384.6</ele>
        <time>2025-03-15T09:11:07Z</time>
      </trkpt>
      <trkpt lat="43.86551" lon="7.00502">
        <ele>385.4</ele>
        <time>2025-03-15T09:11:07Z</time>
      </trkpt>
      <trkpt lat="43.8655" lon="7.00511">
        <ele>384.1</ele>
        <time>2025-03-15T09:11:07Z</time>
      </trkpt>
      <trkpt lat="43.86552" lon="7.00516">
        <ele>384.6</ele>
        <time>2025-03-15T09:11:07Z</time>
      </trkpt>
      <trkpt lat="43.86554" lon="7.00522">
        <ele>383.1</ele>
        <time>2025-03-15T09:11:07Z</time>
      </trkpt>
      <trkpt lat="43.86562" lon="7.00542">
        <ele>383</ele>
        <time>2025-03-15T09:11:07Z</time>
      </trkpt>
      <trkpt lat="43.86576" lon="7.0059">
        <ele>393.1</ele>
        <time>2025-03-15T09:11:07Z</time>
      </trkpt>
      <trkpt lat="43.86583" lon="7.00605">
        <ele>395</ele>
        <time>2025-03-15T09:11:07Z</time>
      </trkpt>
      <trkpt lat="43.86584" lon="7.00612">
        <ele>393.7</ele>
        <time>2025-03-15T09:11:07Z</time>
      </trkpt>
      <trkpt lat="43.86584" lon="7.00617">
        <ele>393.8</ele>
        <time>2025-03-15T09:11:07Z</time>
      </trkpt>
      <trkpt lat="43.86583" lon="7.00631">
        <ele>396.3</ele>
        <time>2025-03-15T09:11:07Z</time>
      </trkpt>
      <trkpt lat="43.86578" lon="7.0065">
        <ele>393.6</ele>
        <time>2025-03-15T09:11:07Z</time>
      </trkpt>
      <trkpt lat="43.86573" lon="7.00658">
        <ele>392</ele>
        <time>2025-03-15T09:11:07Z</time>
      </trkpt>
      <trkpt lat="43.8657" lon="7.00662">
        <ele>392.2</ele>
        <time>2025-03-15T09:11:07Z</time>
      </trkpt>
      <trkpt lat="43.86562" lon="7.00665">
        <ele>394.4</ele>
        <time>2025-03-15T09:11:07Z</time>
      </trkpt>
      <trkpt lat="43.86542" lon="7.00669">
        <ele>404.4</ele>
        <time>2025-03-15T09:11:07Z</time>
      </trkpt>
      <trkpt lat="43.86537" lon="7.00672">
        <ele>406.3</ele>
        <time>2025-03-15T09:11:07Z</time>
      </trkpt>
      <trkpt lat="43.86534" lon="7.00675">
        <ele>409</ele>
        <time>2025-03-15T09:11:07Z</time>
      </trkpt>
      <trkpt lat="43.86533" lon="7.00679">
        <ele>408.9</ele>
        <time>2025-03-15T09:11:07Z</time>
      </trkpt>
      <trkpt lat="43.86533" lon="7.00686">
        <ele>409.3</ele>
        <time>2025-03-15T09:11:07Z</time>
      </trkpt>
      <trkpt lat="43.86537" lon="7.00691">
        <ele>406.3</ele>
        <time>2025-03-15T09:11:07Z</time>
      </trkpt>
      <trkpt lat="43.86544" lon="7.007">
        <ele>404.8</ele>
        <time>2025-03-15T09:11:07Z</time>
      </trkpt>
      <trkpt lat="43.86546" lon="7.00707">
        <ele>403.2</ele>
        <time>2025-03-15T09:11:07Z</time>
      </trkpt>
      <trkpt lat="43.86548" lon="7.00719">
        <ele>406</ele>
        <time>2025-03-15T09:11:07Z</time>
      </trkpt>
      <trkpt lat="43.86545" lon="7.00748">
        <ele>406.7</ele>
        <time>2025-03-15T09:11:07Z</time>
      </trkpt>
      <trkpt lat="43.86542" lon="7.00762">
        <ele>408.7</ele>
        <time>2025-03-15T09:11:07Z</time>
      </trkpt>
      <trkpt lat="43.86535" lon="7.00777">
        <ele>412.6</ele>
        <time>2025-03-15T09:11:07Z</time>
      </trkpt>
      <trkpt lat="43.86526" lon="7.00792">
        <ele>412.6</ele>
        <time>2025-03-15T09:11:07Z</time>
      </trkpt>
      <trkpt lat="43.86515" lon="7.00804">
        <ele>411.8</ele>
        <time>2025-03-15T09:11:07Z</time>
      </trkpt>
      <trkpt lat="43.86498" lon="7.00815">
        <ele>417</ele>
        <time>2025-03-15T09:11:07Z</time>
      </trkpt>
      <trkpt lat="43.86485" lon="7.00822">
        <ele>419.8</ele>
        <time>2025-03-15T09:11:07Z</time>
      </trkpt>
      <trkpt lat="43.86475" lon="7.0083">
        <ele>426.3</ele>
        <time>2025-03-15T09:11:07Z</time>
      </trkpt>
      <trkpt lat="43.86471" lon="7.00835">
        <ele>428.4</ele>
        <time>2025-03-15T09:11:07Z</time>
      </trkpt>
      <trkpt lat="43.8647" lon="7.0084">
        <ele>428.4</ele>
        <time>2025-03-15T09:11:07Z</time>
      </trkpt>
      <trkpt lat="43.8647" lon="7.00843">
        <ele>428.6</ele>
        <time>2025-03-15T09:11:07Z</time>
      </trkpt>
      <trkpt lat="43.86471" lon="7.00847">
        <ele>429</ele>
        <time>2025-03-15T09:11:07Z</time>
      </trkpt>
      <trkpt lat="43.86479" lon="7.00856">
        <ele>427</ele>
        <time>2025-03-15T09:11:07Z</time>
      </trkpt>
      <trkpt lat="43.86487" lon="7.00867">
        <ele>425.4</ele>
        <time>2025-03-15T09:11:07Z</time>
      </trkpt>
      <trkpt lat="43.86495" lon="7.00886">
        <ele>427.4</ele>
        <time>2025-03-15T09:11:07Z</time>
      </trkpt>
      <trkpt lat="43.86501" lon="7.00899">
        <ele>427.7</ele>
        <time>2025-03-15T09:11:07Z</time>
      </trkpt>
      <trkpt lat="43.86502" lon="7.0091">
        <ele>426</ele>
        <time>2025-03-15T09:11:07Z</time>
      </trkpt>
      <trkpt lat="43.86501" lon="7.00922">
        <ele>430.6</ele>
        <time>2025-03-15T09:11:07Z</time>
      </trkpt>
      <trkpt lat="43.86498" lon="7.00933">
        <ele>430.5</ele>
        <time>2025-03-15T09:11:07Z</time>
      </trkpt>
      <trkpt lat="43.86492" lon="7.00952">
        <ele>436.9</ele>
        <time>2025-03-15T09:11:07Z</time>
      </trkpt>
      <trkpt lat="43.86491" lon="7.00963">
        <ele>435.2</ele>
        <time>2025-03-15T09:11:07Z</time>
      </trkpt>
      <trkpt lat="43.86489" lon="7.00972">
        <ele>433.9</ele>
        <time>2025-03-15T09:11:07Z</time>
      </trkpt>
      <trkpt lat="43.86487" lon="7.00979">
        <ele>437</ele>
        <time>2025-03-15T09:11:07Z</time>
      </trkpt>
      <trkpt lat="43.86485" lon="7.00985">
        <ele>435</ele>
        <time>2025-03-15T09:11:07Z</time>
      </trkpt>
      <trkpt lat="43.86485" lon="7.00991">
        <ele>433.9</ele>
        <time>2025-03-15T09:11:07Z</time>
      </trkpt>
      <trkpt lat="43.86483" lon="7.00998">
        <ele>434.7</ele>
        <time>2025-03-15T09:11:07Z</time>
      </trkpt>
      <trkpt lat="43.86478" lon="7.01005">
        <ele>435.4</ele>
        <time>2025-03-15T09:11:07Z</time>
      </trkpt>
      <trkpt lat="43.86475" lon="7.01007">
        <ele>438.9</ele>
        <time>2025-03-15T09:11:07Z</time>
      </trkpt>
      <trkpt lat="43.86468" lon="7.01013">
        <ele>441.2</ele>
        <time>2025-03-15T09:11:07Z</time>
      </trkpt>
      <trkpt lat="43.86462" lon="7.01022">
        <ele>446</ele>
        <time>2025-03-15T09:11:07Z</time>
      </trkpt>
      <trkpt lat="43.8646" lon="7.01027">
        <ele>443.6</ele>
        <time>2025-03-15T09:11:07Z</time>
      </trkpt>
      <trkpt lat="43.86458" lon="7.01033">
        <ele>445.6</ele>
        <time>2025-03-15T09:11:07Z</time>
      </trkpt>
      <trkpt lat="43.86455" lon="7.01039">
        <ele>444.1</ele>
        <time>2025-03-15T09:11:07Z</time>
      </trkpt>
      <trkpt lat="43.8645" lon="7.01046">
        <ele>447.9</ele>
        <time>2025-03-15T09:11:07Z</time>
      </trkpt>
      <trkpt lat="43.86446" lon="7.01055">
        <ele>445.3</ele>
        <time>2025-03-15T09:11:07Z</time>
      </trkpt>
      <trkpt lat="43.86433" lon="7.01075">
        <ele>453.2</ele>
        <time>2025-03-15T09:11:07Z</time>
      </trkpt>
      <trkpt lat="43.86429" lon="7.01085">
        <ele>450.6</ele>
        <time>2025-03-15T09:11:07Z</time>
      </trkpt>
      <trkpt lat="43.86429" lon="7.01091">
        <ele>448.7</ele>
        <time>2025-03-15T09:11:07Z</time>
      </trkpt>
      <trkpt lat="43.86429" lon="7.011">
        <ele>449.7</ele>
        <time>2025-03-15T09:11:07Z</time>
      </trkpt>
      <trkpt lat="43.86429" lon="7.01107">
        <ele>449.3</ele>
        <time>2025-03-15T09:11:07Z</time>
      </trkpt>
      <trkpt lat="43.86427" lon="7.01119">
        <ele>449.4</ele>
        <time>2025-03-15T09:11:07Z</time>
      </trkpt>
      <trkpt lat="43.86425" lon="7.01124">
        <ele>447.8</ele>
        <time>2025-03-15T09:11:07Z</time>
      </trkpt>
      <trkpt lat="43.8642" lon="7.01129">
        <ele>451</ele>
        <time>2025-03-15T09:11:07Z</time>
      </trkpt>
      <trkpt lat="43.86404" lon="7.01144">
        <ele>456.3</ele>
        <time>2025-03-15T09:11:07Z</time>
      </trkpt>
      <trkpt lat="43.86399" lon="7.0115">
        <ele>458.1</ele>
        <time>2025-03-15T09:11:07Z</time>
      </trkpt>
      <trkpt lat="43.86394" lon="7.01159">
        <ele>462.5</ele>
        <time>2025-03-15T09:11:07Z</time>
      </trkpt>
      <trkpt lat="43.86393" lon="7.01162">
        <ele>460.8</ele>
        <time>2025-03-15T09:11:07Z</time>
      </trkpt>
      <trkpt lat="43.86389" lon="7.01175">
        <ele>462.8</ele>
        <time>2025-03-15T09:11:07Z</time>
      </trkpt>
      <trkpt lat="43.86388" lon="7.01185">
        <ele>462.3</ele>
        <time>2025-03-15T09:11:07Z</time>
      </trkpt>
      <trkpt lat="43.86386" lon="7.01201">
        <ele>460.3</ele>
        <time>2025-03-15T09:11:07Z</time>
      </trkpt>
      <trkpt lat="43.8638" lon="7.01232">
        <ele>464.7</ele>
        <time>2025-03-15T09:11:07Z</time>
      </trkpt>
      <trkpt lat="43.86378" lon="7.01244">
        <ele>462.9</ele>
        <time>2025-03-15T09:11:07Z</time>
      </trkpt>
      <trkpt lat="43.86375" lon="7.01247">
        <ele>466.1</ele>
        <time>2025-03-15T09:11:07Z</time>
      </trkpt>
      <trkpt lat="43.8637" lon="7.0125">
        <ele>468.5</ele>
        <time>2025-03-15T09:11:07Z</time>
      </trkpt>
      <trkpt lat="43.86363" lon="7.01254">
        <ele>471.9</ele>
        <time>2025-03-15T09:11:07Z</time>
      </trkpt>
      <trkpt lat="43.86351" lon="7.01262">
        <ele>475.6</ele>
        <time>2025-03-15T09:11:07Z</time>
      </trkpt>
      <trkpt lat="43.8634" lon="7.01268">
        <ele>474.3</ele>
        <time>2025-03-15T09:11:07Z</time>
      </trkpt>
      <trkpt lat="43.86335" lon="7.01272">
        <ele>473.7</ele>
        <time>2025-03-15T09:11:07Z</time>
      </trkpt>
      <trkpt lat="43.86333" lon="7.01276">
        <ele>474.2</ele>
        <time>2025-03-15T09:11:07Z</time>
      </trkpt>
      <trkpt lat="43.86329" lon="7.01285">
        <ele>474.6</ele>
        <time>2025-03-15T09:11:07Z</time>
      </trkpt>
      <trkpt lat="43.86325" lon="7.01296">
        <ele>476.2</ele>
        <time>2025-03-15T09:11:07Z</time>
      </trkpt>
      <trkpt lat="43.86319" lon="7.01303">
        <ele>478</ele>
        <time>2025-03-15T09:11:07Z</time>
      </trkpt>
      <trkpt lat="43.8631" lon="7.01312">
        <ele>482.7</ele>
        <time>2025-03-15T09:11:07Z</time>
      </trkpt>
      <trkpt lat="43.86304" lon="7.01318">
        <ele>487.6</ele>
        <time>2025-03-15T09:11:07Z</time>
      </trkpt>
      <trkpt lat="43.86304" lon="7.0132">
        <ele>487</ele>
        <time>2025-03-15T09:11:07Z</time>
      </trkpt>
      <trkpt lat="43.86301" lon="7.01326">
        <ele>486.7</ele>
        <time>2025-03-15T09:11:07Z</time>
      </trkpt>
      <trkpt lat="43.863" lon="7.01333">
        <ele>489.8</ele>
        <time>2025-03-15T09:11:07Z</time>
      </trkpt>
      <trkpt lat="43.863" lon="7.01345">
        <ele>490.5</ele>
        <time>2025-03-15T09:11:07Z</time>
      </trkpt>
      <trkpt lat="43.86302" lon="7.0136">
        <ele>487.6</ele>
        <time>2025-03-15T09:11:07Z</time>
      </trkpt>
      <trkpt lat="43.86306" lon="7.01379">
        <ele>489.4</ele>
        <time>2025-03-15T09:11:07Z</time>
      </trkpt>
      <trkpt lat="43.8631" lon="7.01391">
        <ele>488.8</ele>
        <time>2025-03-15T09:11:07Z</time>
      </trkpt>
      <trkpt lat="43.8631" lon="7.01399">
        <ele>489.2</ele>
        <time>2025-03-15T09:11:07Z</time>
      </trkpt>
      <trkpt lat="43.8631" lon="7.01406">
        <ele>488.4</ele>
        <time>2025-03-15T09:11:07Z</time>
      </trkpt>
      <trkpt lat="43.86308" lon="7.01411">
        <ele>488.6</ele>
        <time>2025-03-15T09:11:07Z</time>
      </trkpt>
      <trkpt lat="43.86305" lon="7.01414">
        <ele>487.3</ele>
        <time>2025-03-15T09:11:07Z</time>
      </trkpt>
      <trkpt lat="43.86295" lon="7.01416">
        <ele>489.3</ele>
        <time>2025-03-15T09:11:07Z</time>
      </trkpt>
      <trkpt lat="43.86292" lon="7.01416">
        <ele>489.3</ele>
        <time>2025-03-15T09:11:07Z</time>
      </trkpt>
      <trkpt lat="43.86288" lon="7.01415">
        <ele>489.4</ele>
        <time>2025-03-15T09:11:07Z</time>
      </trkpt>
      <trkpt lat="43.86282" lon="7.0141">
        <ele>490.1</ele>
        <time>2025-03-15T09:11:07Z</time>
      </trkpt>
      <trkpt lat="43.86278" lon="7.01406">
        <ele>490.7</ele>
        <time>2025-03-15T09:11:07Z</time>
      </trkpt>
      <trkpt lat="43.86271" lon="7.01398">
        <ele>492.7</ele>
        <time>2025-03-15T09:11:07Z</time>
      </trkpt>
      <trkpt lat="43.86263" lon="7.01386">
        <ele>495</ele>
        <time>2025-03-15T09:11:07Z</time>
      </trkpt>
      <trkpt lat="43.86253" lon="7.01369">
        <ele>497.5</ele>
        <time>2025-03-15T09:11:07Z</time>
      </trkpt>
      <trkpt lat="43.86245" lon="7.0135">
        <ele>499.4</ele>
        <time>2025-03-15T09:11:07Z</time>
      </trkpt>
      <trkpt lat="43.86238" lon="7.01337">
        <ele>501.3</ele>
        <time>2025-03-15T09:11:07Z</time>
      </trkpt>
      <trkpt lat="43.86232" lon="7.0133">
        <ele>504</ele>
        <time>2025-03-15T09:11:07Z</time>
      </trkpt>
      <trkpt lat="43.86224" lon="7.01324">
        <ele>504.9</ele>
        <time>2025-03-15T09:11:07Z</time>
      </trkpt>
      <trkpt lat="43.86203" lon="7.01315">
        <ele>508</ele>
        <time>2025-03-15T09:11:07Z</time>
      </trkpt>
      <trkpt lat="43.86201" lon="7.01314">
        <ele>507.7</ele>
        <time>2025-03-15T09:11:07Z</time>
      </trkpt>
      <trkpt lat="43.86175" lon="7.01303">
        <ele>511.7</ele>
        <time>2025-03-15T09:11:07Z</time>
      </trkpt>
      <trkpt lat="43.86152" lon="7.01292">
        <ele>516.9</ele>
        <time>2025-03-15T09:11:07Z</time>
      </trkpt>
      <trkpt lat="43.86127" lon="7.0128">
        <ele>516.1</ele>
        <time>2025-03-15T09:11:07Z</time>
      </trkpt>
      <trkpt lat="43.86123" lon="7.01275">
        <ele>517.6</ele>
        <time>2025-03-15T09:11:07Z</time>
      </trkpt>
      <trkpt lat="43.8612" lon="7.01268">
        <ele>518.6</ele>
        <time>2025-03-15T09:11:07Z</time>
      </trkpt>
      <trkpt lat="43.86118" lon="7.01256">
        <ele>520.1</ele>
        <time>2025-03-15T09:11:07Z</time>
      </trkpt>
      <trkpt lat="43.86118" lon="7.0124">
        <ele>522.6</ele>
        <time>2025-03-15T09:11:07Z</time>
      </trkpt>
      <trkpt lat="43.86119" lon="7.01222">
        <ele>524.3</ele>
        <time>2025-03-15T09:11:07Z</time>
      </trkpt>
      <trkpt lat="43.86121" lon="7.01208">
        <ele>526.6</ele>
        <time>2025-03-15T09:11:07Z</time>
      </trkpt>
      <trkpt lat="43.86122" lon="7.01194">
        <ele>526.3</ele>
        <time>2025-03-15T09:11:07Z</time>
      </trkpt>
      <trkpt lat="43.86123" lon="7.01173">
        <ele>527.4</ele>
        <time>2025-03-15T09:11:07Z</time>
      </trkpt>
      <trkpt lat="43.86125" lon="7.01129">
        <ele>533.5</ele>
        <time>2025-03-15T09:11:07Z</time>
      </trkpt>
      <trkpt lat="43.86125" lon="7.0112">
        <ele>535.3</ele>
        <time>2025-03-15T09:11:07Z</time>
      </trkpt>
      <trkpt lat="43.86124" lon="7.01115">
        <ele>534.7</ele>
        <time>2025-03-15T09:11:07Z</time>
      </trkpt>
      <trkpt lat="43.8612" lon="7.01108">
        <ele>535.7</ele>
        <time>2025-03-15T09:11:07Z</time>
      </trkpt>
      <trkpt lat="43.86113" lon="7.01097">
        <ele>535.8</ele>
        <time>2025-03-15T09:11:07Z</time>
      </trkpt>
      <trkpt lat="43.86109" lon="7.01086">
        <ele>537.1</ele>
        <time>2025-03-15T09:11:07Z</time>
      </trkpt>
      <trkpt lat="43.86104" lon="7.01071">
        <ele>537.8</ele>
        <time>2025-03-15T09:11:07Z</time>
      </trkpt>
      <trkpt lat="43.86103" lon="7.01057">
        <ele>539.8</ele>
        <time>2025-03-15T09:11:07Z</time>
      </trkpt>
      <trkpt lat="43.86102" lon="7.01039">
        <ele>541.1</ele>
        <time>2025-03-15T09:11:07Z</time>
      </trkpt>
      <trkpt lat="43.86099" lon="7.01019">
        <ele>543.4</ele>
        <time>2025-03-15T09:11:07Z</time>
      </trkpt>
      <trkpt lat="43.861" lon="7.01008">
        <ele>544.1</ele>
        <time>2025-03-15T09:11:07Z</time>
      </trkpt>
      <trkpt lat="43.86102" lon="7.00996">
        <ele>545.6</ele>
        <time>2025-03-15T09:11:07Z</time>
      </trkpt>
      <trkpt lat="43.86103" lon="7.00988">
        <ele>547.8</ele>
        <time>2025-03-15T09:11:07Z</time>
      </trkpt>
      <trkpt lat="43.86101" lon="7.0098">
        <ele>547.7</ele>
        <time>2025-03-15T09:11:07Z</time>
      </trkpt>
      <trkpt lat="43.86098" lon="7.00972">
        <ele>548.1</ele>
        <time>2025-03-15T09:11:07Z</time>
      </trkpt>
      <trkpt lat="43.86093" lon="7.00969">
        <ele>548.6</ele>
        <time>2025-03-15T09:11:07Z</time>
      </trkpt>
      <trkpt lat="43.86087" lon="7.00969">
        <ele>547.9</ele>
        <time>2025-03-15T09:11:07Z</time>
      </trkpt>
      <trkpt lat="43.86078" lon="7.00968">
        <ele>547</ele>
        <time>2025-03-15T09:11:07Z</time>
      </trkpt>
      <trkpt lat="43.86069" lon="7.00967">
        <ele>545.7</ele>
        <time>2025-03-15T09:11:07Z</time>
      </trkpt>
      <trkpt lat="43.86064" lon="7.00962">
        <ele>546.8</ele>
        <time>2025-03-15T09:11:07Z</time>
      </trkpt>
      <trkpt lat="43.86061" lon="7.00955">
        <ele>548.1</ele>
        <time>2025-03-15T09:11:07Z</time>
      </trkpt>
      <trkpt lat="43.86056" lon="7.00945">
        <ele>549</ele>
        <time>2025-03-15T09:11:07Z</time>
      </trkpt>
      <trkpt lat="43.86046" lon="7.0092">
        <ele>551.4</ele>
        <time>2025-03-15T09:11:07Z</time>
      </trkpt>
      <trkpt lat="43.86038" lon="7.00905">
        <ele>553.5</ele>
        <time>2025-03-15T09:11:07Z</time>
      </trkpt>
      <trkpt lat="43.86026" lon="7.00885">
        <ele>556.2</ele>
        <time>2025-03-15T09:11:07Z</time>
      </trkpt>
      <trkpt lat="43.86013" lon="7.00861">
        <ele>560.1</ele>
        <time>2025-03-15T09:11:07Z</time>
      </trkpt>
      <trkpt lat="43.86005" lon="7.00848">
        <ele>561.4</ele>
        <time>2025-03-15T09:11:07Z</time>
      </trkpt>
      <trkpt lat="43.86002" lon="7.00841">
        <ele>562.8</ele>
        <time>2025-03-15T09:11:07Z</time>
      </trkpt>
      <trkpt lat="43.85992" lon="7.00818">
        <ele>566.9</ele>
        <time>2025-03-15T09:11:07Z</time>
      </trkpt>
      <trkpt lat="43.85978" lon="7.00785">
        <ele>570.8</ele>
        <time>2025-03-15T09:11:07Z</time>
      </trkpt>
      <trkpt lat="43.85961" lon="7.00756">
        <ele>575.2</ele>
        <time>2025-03-15T09:11:07Z</time>
      </trkpt>
      <trkpt lat="43.85945" lon="7.00728">
        <ele>578.8</ele>
        <time>2025-03-15T09:11:07Z</time>
      </trkpt>
      <trkpt lat="43.85936" lon="7.00708">
        <ele>581.6</ele>
        <time>2025-03-15T09:11:07Z</time>
      </trkpt>
      <trkpt lat="43.85929" lon="7.00696">
        <ele>581.2</ele>
        <time>2025-03-15T09:11:07Z</time>
      </trkpt>
      <trkpt lat="43.85926" lon="7.00686">
        <ele>582.5</ele>
        <time>2025-03-15T09:11:07Z</time>
      </trkpt>
      <trkpt lat="43.85925" lon="7.00669">
        <ele>585.1</ele>
        <time>2025-03-15T09:11:07Z</time>
      </trkpt>
      <trkpt lat="43.85926" lon="7.00646">
        <ele>587.5</ele>
        <time>2025-03-15T09:11:07Z</time>
      </trkpt>
      <trkpt lat="43.85929" lon="7.00634">
        <ele>589.6</ele>
        <time>2025-03-15T09:11:07Z</time>
      </trkpt>
      <trkpt lat="43.85932" lon="7.00618">
        <ele>591.9</ele>
        <time>2025-03-15T09:11:07Z</time>
      </trkpt>
      <trkpt lat="43.85933" lon="7.00601">
        <ele>592.9</ele>
        <time>2025-03-15T09:11:07Z</time>
      </trkpt>
      <trkpt lat="43.85932" lon="7.00587">
        <ele>593.6</ele>
        <time>2025-03-15T09:11:07Z</time>
      </trkpt>
      <trkpt lat="43.85929" lon="7.00567">
        <ele>594.1</ele>
        <time>2025-03-15T09:11:07Z</time>
      </trkpt>
      <trkpt lat="43.85925" lon="7.00544">
        <ele>594.9</ele>
        <time>2025-03-15T09:11:07Z</time>
      </trkpt>
      <trkpt lat="43.8592" lon="7.00513">
        <ele>596.3</ele>
        <time>2025-03-15T09:11:07Z</time>
      </trkpt>
      <trkpt lat="43.85916" lon="7.005">
        <ele>596.1</ele>
        <time>2025-03-15T09:11:07Z</time>
      </trkpt>
      <trkpt lat="43.85911" lon="7.00483">
        <ele>596.4</ele>
        <time>2025-03-15T09:11:07Z</time>
      </trkpt>
      <trkpt lat="43.85899" lon="7.0046">
        <ele>595.7</ele>
        <time>2025-03-15T09:11:07Z</time>
      </trkpt>
      <trkpt lat="43.85882" lon="7.00438">
        <ele>596.7</ele>
        <time>2025-03-15T09:11:07Z</time>
      </trkpt>
      <trkpt lat="43.85877" lon="7.00431">
        <ele>596.2</ele>
        <time>2025-03-15T09:11:07Z</time>
      </trkpt>
      <trkpt lat="43.85875" lon="7.00425">
        <ele>596.2</ele>
        <time>2025-03-15T09:11:07Z</time>
      </trkpt>
      <trkpt lat="43.85875" lon="7.00413">
        <ele>597.2</ele>
        <time>2025-03-15T09:11:07Z</time>
      </trkpt>
      <trkpt lat="43.85872" lon="7.00381">
        <ele>598.9</ele>
        <time>2025-03-15T09:11:07Z</time>
      </trkpt>
      <trkpt lat="43.85868" lon="7.00348">
        <ele>601.3</ele>
        <time>2025-03-15T09:11:07Z</time>
      </trkpt>
      <trkpt lat="43.85866" lon="7.0034">
        <ele>601.1</ele>
        <time>2025-03-15T09:11:07Z</time>
      </trkpt>
      <trkpt lat="43.85864" lon="7.00335">
        <ele>603</ele>
        <time>2025-03-15T09:11:07Z</time>
      </trkpt>
      <trkpt lat="43.85863" lon="7.00333">
        <ele>603</ele>
        <time>2025-03-15T09:11:07Z</time>
      </trkpt>
      <trkpt lat="43.85859" lon="7.00332">
        <ele>602</ele>
        <time>2025-03-15T09:11:07Z</time>
      </trkpt>
      <trkpt lat="43.85844" lon="7.0033">
        <ele>599.2</ele>
        <time>2025-03-15T09:11:07Z</time>
      </trkpt>
      <trkpt lat="43.85828" lon="7.00328">
        <ele>598.3</ele>
        <time>2025-03-15T09:11:07Z</time>
      </trkpt>
      <trkpt lat="43.85814" lon="7.00325">
        <ele>599.4</ele>
        <time>2025-03-15T09:11:07Z</time>
      </trkpt>
      <trkpt lat="43.85812" lon="7.00325">
        <ele>599.4</ele>
        <time>2025-03-15T09:11:07Z</time>
      </trkpt>
      <trkpt lat="43.85804" lon="7.00322">
        <ele>600.2</ele>
        <time>2025-03-15T09:11:07Z</time>
      </trkpt>
      <trkpt lat="43.85794" lon="7.00315">
        <ele>600.3</ele>
        <time>2025-03-15T09:11:07Z</time>
      </trkpt>
      <trkpt lat="43.85783" lon="7.00306">
        <ele>600</ele>
        <time>2025-03-15T09:11:07Z</time>
      </trkpt>
      <trkpt lat="43.85776" lon="7.00297">
        <ele>599.9</ele>
        <time>2025-03-15T09:11:07Z</time>
      </trkpt>
      <trkpt lat="43.85774" lon="7.00294">
        <ele>601.2</ele>
        <time>2025-03-15T09:11:07Z</time>
      </trkpt>
      <trkpt lat="43.8577" lon="7.00287">
        <ele>601.8</ele>
        <time>2025-03-15T09:11:07Z</time>
      </trkpt>
      <trkpt lat="43.85766" lon="7.00271">
        <ele>604.3</ele>
        <time>2025-03-15T09:11:07Z</time>
      </trkpt>
      <trkpt lat="43.8576" lon="7.0024">
        <ele>611.4</ele>
        <time>2025-03-15T09:11:07Z</time>
      </trkpt>
      <trkpt lat="43.85755" lon="7.00218">
        <ele>611.5</ele>
        <time>2025-03-15T09:11:07Z</time>
      </trkpt>
      <trkpt lat="43.85752" lon="7.00209">
        <ele>613.7</ele>
        <time>2025-03-15T09:11:07Z</time>
      </trkpt>
      <trkpt lat="43.85747" lon="7.002">
        <ele>615.6</ele>
        <time>2025-03-15T09:11:07Z</time>
      </trkpt>
      <trkpt lat="43.85743" lon="7.00192">
        <ele>618.8</ele>
        <time>2025-03-15T09:11:07Z</time>
      </trkpt>
      <trkpt lat="43.85738" lon="7.00188">
        <ele>620.1</ele>
        <time>2025-03-15T09:11:07Z</time>
      </trkpt>
      <trkpt lat="43.85734" lon="7.00189">
        <ele>620.3</ele>
        <time>2025-03-15T09:11:07Z</time>
      </trkpt>
      <trkpt lat="43.85728" lon="7.00192">
        <ele>621.5</ele>
        <time>2025-03-15T09:11:07Z</time>
      </trkpt>
      <trkpt lat="43.8572" lon="7.00207">
        <ele>621.7</ele>
        <time>2025-03-15T09:11:07Z</time>
      </trkpt>
      <trkpt lat="43.85713" lon="7.00225">
        <ele>619.6</ele>
        <time>2025-03-15T09:11:07Z</time>
      </trkpt>
      <trkpt lat="43.85707" lon="7.00232">
        <ele>621.5</ele>
        <time>2025-03-15T09:11:07Z</time>
      </trkpt>
      <trkpt lat="43.85701" lon="7.00236">
        <ele>621.7</ele>
        <time>2025-03-15T09:11:07Z</time>
      </trkpt>
      <trkpt lat="43.85695" lon="7.00238">
        <ele>621.6</ele>
        <time>2025-03-15T09:11:07Z</time>
      </trkpt>
      <trkpt lat="43.85688" lon="7.00238">
        <ele>622.9</ele>
        <time>2025-03-15T09:11:07Z</time>
      </trkpt>
      <trkpt lat="43.85683" lon="7.00235">
        <ele>624.7</ele>
        <time>2025-03-15T09:11:07Z</time>
      </trkpt>
      <trkpt lat="43.8568" lon="7.00232">
        <ele>626.7</ele>
        <time>2025-03-15T09:11:07Z</time>
      </trkpt>
      <trkpt lat="43.85679" lon="7.00228">
        <ele>628.7</ele>
        <time>2025-03-15T09:11:07Z</time>
      </trkpt>
      <trkpt lat="43.8568" lon="7.00224">
        <ele>628.7</ele>
        <time>2025-03-15T09:11:07Z</time>
      </trkpt>
      <trkpt lat="43.85685" lon="7.00222">
        <ele>629.7</ele>
        <time>2025-03-15T09:11:07Z</time>
      </trkpt>
      <trkpt lat="43.85692" lon="7.00221">
        <ele>627.2</ele>
        <time>2025-03-15T09:11:07Z</time>
      </trkpt>
      <trkpt lat="43.85696" lon="7.00218">
        <ele>627.8</ele>
        <time>2025-03-15T09:11:07Z</time>
      </trkpt>
      <trkpt lat="43.85699" lon="7.00209">
        <ele>631.5</ele>
        <time>2025-03-15T09:11:07Z</time>
      </trkpt>
      <trkpt lat="43.85706" lon="7.00184">
        <ele>637</ele>
        <time>2025-03-15T09:11:07Z</time>
      </trkpt>
      <trkpt lat="43.85716" lon="7.0016">
        <ele>639.8</ele>
        <time>2025-03-15T09:11:07Z</time>
      </trkpt>
      <trkpt lat="43.85723" lon="7.00144">
        <ele>641</ele>
        <time>2025-03-15T09:11:07Z</time>
      </trkpt>
      <trkpt lat="43.85729" lon="7.00136">
        <ele>641.1</ele>
        <time>2025-03-15T09:11:07Z</time>
      </trkpt>
      <trkpt lat="43.85735" lon="7.00131">
        <ele>642.4</ele>
        <time>2025-03-15T09:11:07Z</time>
      </trkpt>
      <trkpt lat="43.85745" lon="7.00128">
        <ele>644.6</ele>
        <time>2025-03-15T09:11:07Z</time>
      </trkpt>
      <trkpt lat="43.85753" lon="7.00132">
        <ele>644.3</ele>
        <time>2025-03-15T09:11:07Z</time>
      </trkpt>
      <trkpt lat="43.85758" lon="7.00137">
        <ele>644</ele>
        <time>2025-03-15T09:11:07Z</time>
      </trkpt>
      <trkpt lat="43.85764" lon="7.00147">
        <ele>643.4</ele>
        <time>2025-03-15T09:11:07Z</time>
      </trkpt>
      <trkpt lat="43.85774" lon="7.00158">
        <ele>644.2</ele>
        <time>2025-03-15T09:11:07Z</time>
      </trkpt>
      <trkpt lat="43.85789" lon="7.00173">
        <ele>644.3</ele>
        <time>2025-03-15T09:11:07Z</time>
      </trkpt>
      <trkpt lat="43.85809" lon="7.00196">
        <ele>647</ele>
        <time>2025-03-15T09:11:07Z</time>
      </trkpt>
      <trkpt lat="43.85821" lon="7.00209">
        <ele>647.7</ele>
        <time>2025-03-15T09:11:07Z</time>
      </trkpt>
      <trkpt lat="43.85829" lon="7.00214">
        <ele>648.5</ele>
        <time>2025-03-15T09:11:07Z</time>
      </trkpt>
      <trkpt lat="43.85838" lon="7.00216">
        <ele>648.3</ele>
        <time>2025-03-15T09:11:07Z</time>
      </trkpt>
      <trkpt lat="43.85848" lon="7.00215">
        <ele>650.6</ele>
        <time>2025-03-15T09:11:07Z</time>
      </trkpt>
      <trkpt lat="43.85855" lon="7.00211">
        <ele>652</ele>
        <time>2025-03-15T09:11:07Z</time>
      </trkpt>
      <trkpt lat="43.85861" lon="7.00205">
        <ele>653.4</ele>
        <time>2025-03-15T09:11:07Z</time>
      </trkpt>
      <trkpt lat="43.85868" lon="7.00199">
        <ele>654.5</ele>
        <time>2025-03-15T09:11:07Z</time>
      </trkpt>
      <trkpt lat="43.85873" lon="7.00198">
        <ele>656.3</ele>
        <time>2025-03-15T09:11:07Z</time>
      </trkpt>
      <trkpt lat="43.85889" lon="7.00202">
        <ele>656.5</ele>
        <time>2025-03-15T09:11:07Z</time>
      </trkpt>
      <trkpt lat="43.85917" lon="7.00205">
        <ele>658.6</ele>
        <time>2025-03-15T09:11:07Z</time>
      </trkpt>
      <trkpt lat="43.85926" lon="7.00208">
        <ele>659</ele>
        <time>2025-03-15T09:11:07Z</time>
      </trkpt>
      <trkpt lat="43.85929" lon="7.00209">
        <ele>660.1</ele>
        <time>2025-03-15T09:11:07Z</time>
      </trkpt>
      <trkpt lat="43.85938" lon="7.00214">
        <ele>661.4</ele>
        <time>2025-03-15T09:11:07Z</time>
      </trkpt>
      <trkpt lat="43.85949" lon="7.00223">
        <ele>663.8</ele>
        <time>2025-03-15T09:11:07Z</time>
      </trkpt>
      <trkpt lat="43.85957" lon="7.00234">
        <ele>664.5</ele>
        <time>2025-03-15T09:11:07Z</time>
      </trkpt>
      <trkpt lat="43.85964" lon="7.00242">
        <ele>664.6</ele>
        <time>2025-03-15T09:11:07Z</time>
      </trkpt>
      <trkpt lat="43.85979" lon="7.00264">
        <ele>668</ele>
        <time>2025-03-15T09:11:07Z</time>
      </trkpt>
      <trkpt lat="43.85997" lon="7.00283">
        <ele>669.9</ele>
        <time>2025-03-15T09:11:07Z</time>
      </trkpt>
      <trkpt lat="43.86013" lon="7.00295">
        <ele>670.3</ele>
        <time>2025-03-15T09:11:07Z</time>
      </trkpt>
      <trkpt lat="43.86025" lon="7.003">
        <ele>670.8</ele>
        <time>2025-03-15T09:11:07Z</time>
      </trkpt>
      <trkpt lat="43.86034" lon="7.00304">
        <ele>671.3</ele>
        <time>2025-03-15T09:11:07Z</time>
      </trkpt>
      <trkpt lat="43.86042" lon="7.00302">
        <ele>672.7</ele>
        <time>2025-03-15T09:11:07Z</time>
      </trkpt>
      <trkpt lat="43.86049" lon="7.003">
        <ele>674.5</ele>
        <time>2025-03-15T09:11:07Z</time>
      </trkpt>
      <trkpt lat="43.86053" lon="7.00296">
        <ele>675.5</ele>
        <time>2025-03-15T09:11:07Z</time>
      </trkpt>
      <trkpt lat="43.86058" lon="7.00303">
        <ele>674.6</ele>
        <time>2025-03-15T09:11:07Z</time>
      </trkpt>
      <trkpt lat="43.86053" lon="7.00296">
        <ele>675.5</ele>
        <time>2025-03-15T09:11:07Z</time>
      </trkpt>
      <trkpt lat="43.86054" lon="7.00291">
        <ele>676.1</ele>
        <time>2025-03-15T09:11:07Z</time>
      </trkpt>
      <trkpt lat="43.86052" lon="7.00284">
        <ele>677.5</ele>
        <time>2025-03-15T09:11:07Z</time>
      </trkpt>
      <trkpt lat="43.86049" lon="7.00283">
        <ele>677.5</ele>
        <time>2025-03-15T09:11:07Z</time>
      </trkpt>
      <trkpt lat="43.8604" lon="7.00283">
        <ele>677.1</ele>
        <time>2025-03-15T09:11:07Z</time>
      </trkpt>
      <trkpt lat="43.86032" lon="7.00284">
        <ele>676.3</ele>
        <time>2025-03-15T09:11:07Z</time>
      </trkpt>
      <trkpt lat="43.86025" lon="7.0028">
        <ele>675.4</ele>
        <time>2025-03-15T09:11:07Z</time>
      </trkpt>
      <trkpt lat="43.86006" lon="7.00257">
        <ele>678.5</ele>
        <time>2025-03-15T09:11:07Z</time>
      </trkpt>
      <trkpt lat="43.85994" lon="7.00241">
        <ele>678.1</ele>
        <time>2025-03-15T09:11:07Z</time>
      </trkpt>
      <trkpt lat="43.8599" lon="7.00235">
        <ele>677.6</ele>
        <time>2025-03-15T09:11:07Z</time>
      </trkpt>
      <trkpt lat="43.85971" lon="7.00202">
        <ele>679.2</ele>
        <time>2025-03-15T09:11:07Z</time>
      </trkpt>
      <trkpt lat="43.85952" lon="7.00172">
        <ele>679.1</ele>
        <time>2025-03-15T09:11:07Z</time>
      </trkpt>
      <trkpt lat="43.85938" lon="7.00152">
        <ele>680.1</ele>
        <time>2025-03-15T09:11:07Z</time>
      </trkpt>
      <trkpt lat="43.85931" lon="7.00144">
        <ele>681.1</ele>
        <time>2025-03-15T09:11:07Z</time>
      </trkpt>
      <trkpt lat="43.85925" lon="7.0014">
        <ele>682</ele>
        <time>2025-03-15T09:11:07Z</time>
      </trkpt>
      <trkpt lat="43.85919" lon="7.00139">
        <ele>681.8</ele>
        <time>2025-03-15T09:11:07Z</time>
      </trkpt>
      <trkpt lat="43.85908" lon="7.00142">
        <ele>681.2</ele>
        <time>2025-03-15T09:11:07Z</time>
      </trkpt>
      <trkpt lat="43.85902" lon="7.00143">
        <ele>679.5</ele>
        <time>2025-03-15T09:11:07Z</time>
      </trkpt>
      <trkpt lat="43.85897" lon="7.00141">
        <ele>680.2</ele>
        <time>2025-03-15T09:11:07Z</time>
      </trkpt>
      <trkpt lat="43.8589" lon="7.00126">
        <ele>681.2</ele>
        <time>2025-03-15T09:11:07Z</time>
      </trkpt>
      <trkpt lat="43.85877" lon="7.00092">
        <ele>684</ele>
        <time>2025-03-15T09:11:07Z</time>
      </trkpt>
      <trkpt lat="43.85867" lon="7.00066">
        <ele>685.9</ele>
        <time>2025-03-15T09:11:07Z</time>
      </trkpt>
      <trkpt lat="43.85865" lon="7.00054">
        <ele>686.3</ele>
        <time>2025-03-15T09:11:07Z</time>
      </trkpt>
      <trkpt lat="43.85865" lon="7.00049">
        <ele>686.4</ele>
        <time>2025-03-15T09:11:07Z</time>
      </trkpt>
      <trkpt lat="43.8586" lon="7.00043">
        <ele>686.8</ele>
        <time>2025-03-15T09:11:07Z</time>
      </trkpt>
      <trkpt lat="43.85849" lon="7.0003">
        <ele>687</ele>
        <time>2025-03-15T09:11:07Z</time>
      </trkpt>
      <trkpt lat="43.85845" lon="7.00025">
        <ele>687.4</ele>
        <time>2025-03-15T09:11:07Z</time>
      </trkpt>
      <trkpt lat="43.85836" lon="7.00008">
        <ele>689.7</ele>
        <time>2025-03-15T09:11:07Z</time>
      </trkpt>
      <trkpt lat="43.85823" lon="6.99986">
        <ele>691.3</ele>
        <time>2025-03-15T09:11:07Z</time>
      </trkpt>
      <trkpt lat="43.8581" lon="6.99955">
        <ele>694.2</ele>
        <time>2025-03-15T09:11:07Z</time>
      </trkpt>
      <trkpt lat="43.85802" lon="6.99925">
        <ele>697.3</ele>
        <time>2025-03-15T09:11:07Z</time>
      </trkpt>
      <trkpt lat="43.85799" lon="6.99911">
        <ele>696.4</ele>
        <time>2025-03-15T09:11:07Z</time>
      </trkpt>
      <trkpt lat="43.85794" lon="6.999">
        <ele>696.7</ele>
        <time>2025-03-15T09:11:07Z</time>
      </trkpt>
      <trkpt lat="43.85788" lon="6.99893">
        <ele>698</ele>
        <time>2025-03-15T09:11:07Z</time>
      </trkpt>
      <trkpt lat="43.85781" lon="6.99888">
        <ele>698.3</ele>
        <time>2025-03-15T09:11:07Z</time>
      </trkpt>
      <trkpt lat="43.85765" lon="6.99883">
        <ele>700.6</ele>
        <time>2025-03-15T09:11:07Z</time>
      </trkpt>
      <trkpt lat="43.8575" lon="6.99875">
        <ele>701.7</ele>
        <time>2025-03-15T09:11:07Z</time>
      </trkpt>
      <trkpt lat="43.85737" lon="6.99866">
        <ele>703.2</ele>
        <time>2025-03-15T09:11:07Z</time>
      </trkpt>
      <trkpt lat="43.85727" lon="6.99854">
        <ele>701.1</ele>
        <time>2025-03-15T09:11:07Z</time>
      </trkpt>
      <trkpt lat="43.8572" lon="6.99845">
        <ele>697.9</ele>
        <time>2025-03-15T09:11:07Z</time>
      </trkpt>
      <trkpt lat="43.85717" lon="6.9984">
        <ele>697.4</ele>
        <time>2025-03-15T09:11:07Z</time>
      </trkpt>
      <trkpt lat="43.85715" lon="6.99833">
        <ele>697.2</ele>
        <time>2025-03-15T09:11:07Z</time>
      </trkpt>
      <trkpt lat="43.85714" lon="6.99827">
        <ele>697.6</ele>
        <time>2025-03-15T09:11:07Z</time>
      </trkpt>
      <trkpt lat="43.85717" lon="6.99817">
        <ele>698.8</ele>
        <time>2025-03-15T09:11:07Z</time>
      </trkpt>
      <trkpt lat="43.85738" lon="6.99779">
        <ele>698.8</ele>
        <time>2025-03-15T09:11:07Z</time>
      </trkpt>
      <trkpt lat="43.85756" lon="6.99744">
        <ele>698.5</ele>
        <time>2025-03-15T09:11:07Z</time>
      </trkpt>
      <trkpt lat="43.85758" lon="6.99734">
        <ele>700.5</ele>
        <time>2025-03-15T09:11:07Z</time>
      </trkpt>
      <trkpt lat="43.85758" lon="6.99723">
        <ele>701</ele>
        <time>2025-03-15T09:11:07Z</time>
      </trkpt>
      <trkpt lat="43.85756" lon="6.9971">
        <ele>701.5</ele>
        <time>2025-03-15T09:11:07Z</time>
      </trkpt>
      <trkpt lat="43.8575" lon="6.99695">
        <ele>703.2</ele>
        <time>2025-03-15T09:11:07Z</time>
      </trkpt>
      <trkpt lat="43.85737" lon="6.99671">
        <ele>703.1</ele>
        <time>2025-03-15T09:11:07Z</time>
      </trkpt>
      <trkpt lat="43.85719" lon="6.9965">
        <ele>705.3</ele>
        <time>2025-03-15T09:11:07Z</time>
      </trkpt>
      <trkpt lat="43.85694" lon="6.99621">
        <ele>706.1</ele>
        <time>2025-03-15T09:11:07Z</time>
      </trkpt>
      <trkpt lat="43.85689" lon="6.99613">
        <ele>704.4</ele>
        <time>2025-03-15T09:11:07Z</time>
      </trkpt>
      <trkpt lat="43.85683" lon="6.99601">
        <ele>704.8</ele>
        <time>2025-03-15T09:11:07Z</time>
      </trkpt>
      <trkpt lat="43.8568" lon="6.99596">
        <ele>704.5</ele>
        <time>2025-03-15T09:11:07Z</time>
      </trkpt>
      <trkpt lat="43.85676" lon="6.99594">
        <ele>704.5</ele>
        <time>2025-03-15T09:11:07Z</time>
      </trkpt>
      <trkpt lat="43.85664" lon="6.99597">
        <ele>704.4</ele>
        <time>2025-03-15T09:11:07Z</time>
      </trkpt>
      <trkpt lat="43.85653" lon="6.99604">
        <ele>707.4</ele>
        <time>2025-03-15T09:11:07Z</time>
      </trkpt>
      <trkpt lat="43.85633" lon="6.99606">
        <ele>708.6</ele>
        <time>2025-03-15T09:11:07Z</time>
      </trkpt>
      <trkpt lat="43.85617" lon="6.99614">
        <ele>707.9</ele>
        <time>2025-03-15T09:11:07Z</time>
      </trkpt>
      <trkpt lat="43.85606" lon="6.99616">
        <ele>709</ele>
        <time>2025-03-15T09:11:07Z</time>
      </trkpt>
      <trkpt lat="43.85586" lon="6.99615">
        <ele>707.8</ele>
        <time>2025-03-15T09:11:07Z</time>
      </trkpt>
      <trkpt lat="43.85578" lon="6.99615">
        <ele>706.6</ele>
        <time>2025-03-15T09:11:07Z</time>
      </trkpt>
      <trkpt lat="43.85573" lon="6.99618">
        <ele>705.7</ele>
        <time>2025-03-15T09:11:07Z</time>
      </trkpt>
      <trkpt lat="43.85571" lon="6.99623">
        <ele>707</ele>
        <time>2025-03-15T09:11:07Z</time>
      </trkpt>
      <trkpt lat="43.85568" lon="6.99637">
        <ele>710.7</ele>
        <time>2025-03-15T09:11:07Z</time>
      </trkpt>
      <trkpt lat="43.85564" lon="6.99649">
        <ele>713.4</ele>
        <time>2025-03-15T09:11:07Z</time>
      </trkpt>
      <trkpt lat="43.85554" lon="6.99657">
        <ele>711.1</ele>
        <time>2025-03-15T09:11:07Z</time>
      </trkpt>
      <trkpt lat="43.85546" lon="6.99665">
        <ele>712.7</ele>
        <time>2025-03-15T09:11:07Z</time>
      </trkpt>
      <trkpt lat="43.8554" lon="6.99665">
        <ele>711.4</ele>
        <time>2025-03-15T09:11:07Z</time>
      </trkpt>
      <trkpt lat="43.85521" lon="6.99662">
        <ele>712.9</ele>
        <time>2025-03-15T09:11:07Z</time>
      </trkpt>
      <trkpt lat="43.85513" lon="6.99662">
        <ele>712.3</ele>
        <time>2025-03-15T09:11:07Z</time>
      </trkpt>
      <trkpt lat="43.85506" lon="6.99666">
        <ele>709.1</ele>
        <time>2025-03-15T09:11:07Z</time>
      </trkpt>
      <trkpt lat="43.85503" lon="6.99673">
        <ele>711.2</ele>
        <time>2025-03-15T09:11:07Z</time>
      </trkpt>
      <trkpt lat="43.85502" lon="6.99679">
        <ele>713.2</ele>
        <time>2025-03-15T09:11:07Z</time>
      </trkpt>
      <trkpt lat="43.85501" lon="6.99682">
        <ele>710.2</ele>
        <time>2025-03-15T09:11:07Z</time>
      </trkpt>
      <trkpt lat="43.85498" lon="6.99695">
        <ele>713.5</ele>
        <time>2025-03-15T09:11:07Z</time>
      </trkpt>
      <trkpt lat="43.85493" lon="6.99708">
        <ele>711.4</ele>
        <time>2025-03-15T09:11:07Z</time>
      </trkpt>
      <trkpt lat="43.85482" lon="6.99714">
        <ele>713.6</ele>
        <time>2025-03-15T09:11:07Z</time>
      </trkpt>
      <trkpt lat="43.85465" lon="6.99719">
        <ele>711.3</ele>
        <time>2025-03-15T09:11:07Z</time>
      </trkpt>
      <trkpt lat="43.85455" lon="6.99721">
        <ele>708.7</ele>
        <time>2025-03-15T09:11:07Z</time>
      </trkpt>
      <trkpt lat="43.85451" lon="6.99728">
        <ele>712.3</ele>
        <time>2025-03-15T09:11:07Z</time>
      </trkpt>
      <trkpt lat="43.85441" lon="6.99733">
        <ele>710.1</ele>
        <time>2025-03-15T09:11:07Z</time>
      </trkpt>
      <trkpt lat="43.8543" lon="6.99742">
        <ele>711</ele>
        <time>2025-03-15T09:11:07Z</time>
      </trkpt>
      <trkpt lat="43.85416" lon="6.99754">
        <ele>710.2</ele>
        <time>2025-03-15T09:11:07Z</time>
      </trkpt>
      <trkpt lat="43.85396" lon="6.99769">
        <ele>710.7</ele>
        <time>2025-03-15T09:11:07Z</time>
      </trkpt>
      <trkpt lat="43.85382" lon="6.99776">
        <ele>709.5</ele>
        <time>2025-03-15T09:11:07Z</time>
      </trkpt>
      <trkpt lat="43.85376" lon="6.99778">
        <ele>708.3</ele>
        <time>2025-03-15T09:11:07Z</time>
      </trkpt>
      <trkpt lat="43.85369" lon="6.99777">
        <ele>709</ele>
        <time>2025-03-15T09:11:07Z</time>
      </trkpt>
      <trkpt lat="43.85357" lon="6.99775">
        <ele>711.7</ele>
        <time>2025-03-15T09:11:07Z</time>
      </trkpt>
      <trkpt lat="43.85346" lon="6.99772">
        <ele>713.6</ele>
        <time>2025-03-15T09:11:07Z</time>
      </trkpt>
      <trkpt lat="43.85328" lon="6.99768">
        <ele>714.6</ele>
        <time>2025-03-15T09:11:07Z</time>
      </trkpt>
      <trkpt lat="43.85324" lon="6.99767">
        <ele>715.2</ele>
        <time>2025-03-15T09:11:07Z</time>
      </trkpt>
      <trkpt lat="43.8531" lon="6.99761">
        <ele>717.9</ele>
        <time>2025-03-15T09:11:07Z</time>
      </trkpt>
      <trkpt lat="43.85305" lon="6.99759">
        <ele>718.6</ele>
        <time>2025-03-15T09:11:07Z</time>
      </trkpt>
      <trkpt lat="43.85313" lon="6.99772">
        <ele>719.2</ele>
        <time>2025-03-15T09:11:07Z</time>
      </trkpt>
      <trkpt lat="43.85322" lon="6.99781">
        <ele>716.4</ele>
        <time>2025-03-15T09:11:07Z</time>
      </trkpt>
      <trkpt lat="43.85334" lon="6.99785">
        <ele>715.6</ele>
        <time>2025-03-15T09:11:07Z</time>
      </trkpt>
      <trkpt lat="43.85339" lon="6.99787">
        <ele>714.9</ele>
        <time>2025-03-15T09:11:07Z</time>
      </trkpt>
      <trkpt lat="43.85341" lon="6.99789">
        <ele>714.9</ele>
        <time>2025-03-15T09:11:07Z</time>
      </trkpt>
      <trkpt lat="43.85339" lon="6.99791">
        <ele>714.4</ele>
        <time>2025-03-15T09:11:07Z</time>
      </trkpt>
      <trkpt lat="43.8533" lon="6.99791">
        <ele>715.6</ele>
        <time>2025-03-15T09:11:07Z</time>
      </trkpt>
      <trkpt lat="43.85318" lon="6.9979">
        <ele>717.8</ele>
        <time>2025-03-15T09:11:07Z</time>
      </trkpt>
      <trkpt lat="43.85312" lon="6.99784">
        <ele>720.8</ele>
        <time>2025-03-15T09:11:07Z</time>
      </trkpt>
      <trkpt lat="43.85306" lon="6.99778">
        <ele>722.4</ele>
        <time>2025-03-15T09:11:07Z</time>
      </trkpt>
      <trkpt lat="43.85295" lon="6.99771">
        <ele>727.1</ele>
        <time>2025-03-15T09:11:07Z</time>
      </trkpt>
      <trkpt lat="43.85289" lon="6.99769">
        <ele>727.6</ele>
        <time>2025-03-15T09:11:07Z</time>
      </trkpt>
      <trkpt lat="43.85269" lon="6.99761">
        <ele>733</ele>
        <time>2025-03-15T09:11:07Z</time>
      </trkpt>
      <trkpt lat="43.8525" lon="6.99755">
        <ele>735.3</ele>
        <time>2025-03-15T09:11:07Z</time>
      </trkpt>
      <trkpt lat="43.85242" lon="6.99755">
        <ele>737.5</ele>
        <time>2025-03-15T09:11:07Z</time>
      </trkpt>
      <trkpt lat="43.85231" lon="6.99751">
        <ele>740</ele>
        <time>2025-03-15T09:11:07Z</time>
      </trkpt>
      <trkpt lat="43.85228" lon="6.99744">
        <ele>739.1</ele>
        <time>2025-03-15T09:11:07Z</time>
      </trkpt>
      <trkpt lat="43.85213" lon="6.99722">
        <ele>741.4</ele>
        <time>2025-03-15T09:11:07Z</time>
      </trkpt>
      <trkpt lat="43.85211" lon="6.9972">
        <ele>740.5</ele>
        <time>2025-03-15T09:11:07Z</time>
      </trkpt>
      <trkpt lat="43.85207" lon="6.99717">
        <ele>741.3</ele>
        <time>2025-03-15T09:11:07Z</time>
      </trkpt>
      <trkpt lat="43.85203" lon="6.99717">
        <ele>743</ele>
        <time>2025-03-15T09:11:07Z</time>
      </trkpt>
      <trkpt lat="43.85201" lon="6.99724">
        <ele>746.5</ele>
        <time>2025-03-15T09:11:07Z</time>
      </trkpt>
      <trkpt lat="43.85182" lon="6.99715">
        <ele>752.1</ele>
        <time>2025-03-15T09:11:07Z</time>
      </trkpt>
      <trkpt lat="43.85139" lon="6.99697">
        <ele>762.8</ele>
        <time>2025-03-15T09:11:07Z</time>
      </trkpt>
      <trkpt lat="43.85139" lon="6.99696">
        <ele>762.4</ele>
        <time>2025-03-15T09:11:07Z</time>
      </trkpt>
      <trkpt lat="43.85142" lon="6.99684">
        <ele>759.6</ele>
        <time>2025-03-15T09:11:07Z</time>
      </trkpt>
      <trkpt lat="43.85146" lon="6.9966">
        <ele>757.7</ele>
        <time>2025-03-15T09:11:07Z</time>
      </trkpt>
      <trkpt lat="43.85148" lon="6.99638">
        <ele>762.5</ele>
        <time>2025-03-15T09:11:07Z</time>
      </trkpt>
      <trkpt lat="43.85156" lon="6.99588">
        <ele>769.1</ele>
        <time>2025-03-15T09:11:07Z</time>
      </trkpt>
      <trkpt lat="43.85161" lon="6.99558">
        <ele>774.6</ele>
        <time>2025-03-15T09:11:07Z</time>
      </trkpt>
      <trkpt lat="43.85163" lon="6.99546">
        <ele>773</ele>
        <time>2025-03-15T09:11:07Z</time>
      </trkpt>
      <trkpt lat="43.85163" lon="6.99537">
        <ele>773.9</ele>
        <time>2025-03-15T09:11:07Z</time>
      </trkpt>
      <trkpt lat="43.85162" lon="6.99529">
        <ele>777</ele>
        <time>2025-03-15T09:11:07Z</time>
      </trkpt>
      <trkpt lat="43.85158" lon="6.9952">
        <ele>778.4</ele>
        <time>2025-03-15T09:11:07Z</time>
      </trkpt>
      <trkpt lat="43.85153" lon="6.99513">
        <ele>780.1</ele>
        <time>2025-03-15T09:11:07Z</time>
      </trkpt>
      <trkpt lat="43.85145" lon="6.99506">
        <ele>782.7</ele>
        <time>2025-03-15T09:11:07Z</time>
      </trkpt>
      <trkpt lat="43.8514" lon="6.99501">
        <ele>784</ele>
        <time>2025-03-15T09:11:07Z</time>
      </trkpt>
      <trkpt lat="43.85133" lon="6.99485">
        <ele>782.8</ele>
        <time>2025-03-15T09:11:07Z</time>
      </trkpt>
      <trkpt lat="43.85131" lon="6.99478">
        <ele>784.7</ele>
        <time>2025-03-15T09:11:07Z</time>
      </trkpt>
      <trkpt lat="43.85127" lon="6.99467">
        <ele>785</ele>
        <time>2025-03-15T09:11:07Z</time>
      </trkpt>
      <trkpt lat="43.85124" lon="6.99459">
        <ele>786</ele>
        <time>2025-03-15T09:11:07Z</time>
      </trkpt>
      <trkpt lat="43.85118" lon="6.99452">
        <ele>787.9</ele>
        <time>2025-03-15T09:11:07Z</time>
      </trkpt>
      <trkpt lat="43.85115" lon="6.99445">
        <ele>789.1</ele>
        <time>2025-03-15T09:11:07Z</time>
      </trkpt>
      <trkpt lat="43.85104" lon="6.99408">
        <ele>789.5</ele>
        <time>2025-03-15T09:11:07Z</time>
      </trkpt>
      <trkpt lat="43.85094" lon="6.99381">
        <ele>797.7</ele>
        <time>2025-03-15T09:11:07Z</time>
      </trkpt>
      <trkpt lat="43.85086" lon="6.99344">
        <ele>801</ele>
        <time>2025-03-15T09:11:07Z</time>
      </trkpt>
      <trkpt lat="43.85082" lon="6.99306">
        <ele>805.5</ele>
        <time>2025-03-15T09:11:07Z</time>
      </trkpt>
      <trkpt lat="43.85082" lon="6.99285">
        <ele>808.6</ele>
        <time>2025-03-15T09:11:07Z</time>
      </trkpt>
      <trkpt lat="43.85088" lon="6.99268">
        <ele>806.8</ele>
        <time>2025-03-15T09:11:07Z</time>
      </trkpt>
      <trkpt lat="43.85095" lon="6.99245">
        <ele>808.9</ele>
        <time>2025-03-15T09:11:07Z</time>
      </trkpt>
      <trkpt lat="43.851" lon="6.9923">
        <ele>810.2</ele>
        <time>2025-03-15T09:11:07Z</time>
      </trkpt>
      <trkpt lat="43.85099" lon="6.99232">
        <ele>810.2</ele>
        <time>2025-03-15T09:11:07Z</time>
      </trkpt>
      <trkpt lat="43.85091" lon="6.99236">
        <ele>812.4</ele>
        <time>2025-03-15T09:11:07Z</time>
      </trkpt>
      <trkpt lat="43.85079" lon="6.99242">
        <ele>814.8</ele>
        <time>2025-03-15T09:11:07Z</time>
      </trkpt>
      <trkpt lat="43.8507" lon="6.99248">
        <ele>819.3</ele>
        <time>2025-03-15T09:11:07Z</time>
      </trkpt>
      <trkpt lat="43.85062" lon="6.99259">
        <ele>823.6</ele>
        <time>2025-03-15T09:11:07Z</time>
      </trkpt>
      <trkpt lat="43.85052" lon="6.99289">
        <ele>825.2</ele>
        <time>2025-03-15T09:11:07Z</time>
      </trkpt>
      <trkpt lat="43.85038" lon="6.99338">
        <ele>832.1</ele>
        <time>2025-03-15T09:11:07Z</time>
      </trkpt>
      <trkpt lat="43.85035" lon="6.99366">
        <ele>830.1</ele>
        <time>2025-03-15T09:11:07Z</time>
      </trkpt>
      <trkpt lat="43.85035" lon="6.99371">
        <ele>830.1</ele>
        <time>2025-03-15T09:11:07Z</time>
      </trkpt>
      <trkpt lat="43.85031" lon="6.99414">
        <ele>833.5</ele>
        <time>2025-03-15T09:11:07Z</time>
      </trkpt>
      <trkpt lat="43.85029" lon="6.99443">
        <ele>837.4</ele>
        <time>2025-03-15T09:11:07Z</time>
      </trkpt>
      <trkpt lat="43.8503" lon="6.99484">
        <ele>838.8</ele>
        <time>2025-03-15T09:11:07Z</time>
      </trkpt>
      <trkpt lat="43.85033" lon="6.99508">
        <ele>841.4</ele>
        <time>2025-03-15T09:11:07Z</time>
      </trkpt>
      <trkpt lat="43.85037" lon="6.99526">
        <ele>841.4</ele>
        <time>2025-03-15T09:11:07Z</time>
      </trkpt>
      <trkpt lat="43.85038" lon="6.99533">
        <ele>841.8</ele>
        <time>2025-03-15T09:11:07Z</time>
      </trkpt>
      <trkpt lat="43.85035" lon="6.99537">
        <ele>841.8</ele>
        <time>2025-03-15T09:11:07Z</time>
      </trkpt>
      <trkpt lat="43.85031" lon="6.99538">
        <ele>843.4</ele>
        <time>2025-03-15T09:11:07Z</time>
      </trkpt>
      <trkpt lat="43.85028" lon="6.99534">
        <ele>846.8</ele>
        <time>2025-03-15T09:11:07Z</time>
      </trkpt>
      <trkpt lat="43.85025" lon="6.99517">
        <ele>846.5</ele>
        <time>2025-03-15T09:11:07Z</time>
      </trkpt>
      <trkpt lat="43.85021" lon="6.99492">
        <ele>846.6</ele>
        <time>2025-03-15T09:11:07Z</time>
      </trkpt>
      <trkpt lat="43.85012" lon="6.99454">
        <ele>848.2</ele>
        <time>2025-03-15T09:11:07Z</time>
      </trkpt>
      <trkpt lat="43.85003" lon="6.99402">
        <ele>850.8</ele>
        <time>2025-03-15T09:11:07Z</time>
      </trkpt>
      <trkpt lat="43.84999" lon="6.99359">
        <ele>854.9</ele>
        <time>2025-03-15T09:11:07Z</time>
      </trkpt>
      <trkpt lat="43.84998" lon="6.99332">
        <ele>854.4</ele>
        <time>2025-03-15T09:11:07Z</time>
      </trkpt>
      <trkpt lat="43.84999" lon="6.99313">
        <ele>853.9</ele>
        <time>2025-03-15T09:11:07Z</time>
      </trkpt>
      <trkpt lat="43.85" lon="6.99301">
        <ele>854.9</ele>
        <time>2025-03-15T09:11:07Z</time>
      </trkpt>
      <trkpt lat="43.85004" lon="6.99255">
        <ele>861.3</ele>
        <time>2025-03-15T09:11:07Z</time>
      </trkpt>
      <trkpt lat="43.85011" lon="6.99208">
        <ele>862.4</ele>
        <time>2025-03-15T09:11:07Z</time>
      </trkpt>
      <trkpt lat="43.85012" lon="6.99196">
        <ele>864.3</ele>
        <time>2025-03-15T09:11:07Z</time>
      </trkpt>
      <trkpt lat="43.85012" lon="6.99182">
        <ele>864.3</ele>
        <time>2025-03-15T09:11:07Z</time>
      </trkpt>
      <trkpt lat="43.8501" lon="6.99162">
        <ele>865.4</ele>
        <time>2025-03-15T09:11:07Z</time>
      </trkpt>
      <trkpt lat="43.85009" lon="6.99157">
        <ele>864.9</ele>
        <time>2025-03-15T09:11:07Z</time>
      </trkpt>
      <trkpt lat="43.85005" lon="6.99127">
        <ele>866.1</ele>
        <time>2025-03-15T09:11:07Z</time>
      </trkpt>
      <trkpt lat="43.85002" lon="6.99086">
        <ele>870.5</ele>
        <time>2025-03-15T09:11:07Z</time>
      </trkpt>
      <trkpt lat="43.85" lon="6.99066">
        <ele>869.2</ele>
        <time>2025-03-15T09:11:07Z</time>
      </trkpt>
      <trkpt lat="43.85002" lon="6.9904">
        <ele>871.5</ele>
        <time>2025-03-15T09:11:07Z</time>
      </trkpt>
      <trkpt lat="43.85008" lon="6.98993">
        <ele>876.3</ele>
        <time>2025-03-15T09:11:07Z</time>
      </trkpt>
      <trkpt lat="43.85012" lon="6.98947">
        <ele>880.9</ele>
        <time>2025-03-15T09:11:07Z</time>
      </trkpt>
      <trkpt lat="43.85016" lon="6.98916">
        <ele>883.9</ele>
        <time>2025-03-15T09:11:07Z</time>
      </trkpt>
      <trkpt lat="43.85021" lon="6.98901">
        <ele>885.4</ele>
        <time>2025-03-15T09:11:07Z</time>
      </trkpt>
      <trkpt lat="43.85031" lon="6.98876">
        <ele>881.6</ele>
        <time>2025-03-15T09:11:07Z</time>
      </trkpt>
      <trkpt lat="43.85037" lon="6.98855">
        <ele>883</ele>
        <time>2025-03-15T09:11:07Z</time>
      </trkpt>
      <trkpt lat="43.85044" lon="6.98821">
        <ele>883.6</ele>
        <time>2025-03-15T09:11:07Z</time>
      </trkpt>
      <trkpt lat="43.85044" lon="6.98808">
        <ele>885.6</ele>
        <time>2025-03-15T09:11:07Z</time>
      </trkpt>
      <trkpt lat="43.8504" lon="6.98777">
        <ele>889.3</ele>
        <time>2025-03-15T09:11:07Z</time>
      </trkpt>
      <trkpt lat="43.85031" lon="6.98714">
        <ele>896</ele>
        <time>2025-03-15T09:11:07Z</time>
      </trkpt>
      <trkpt lat="43.85027" lon="6.9869">
        <ele>895.6</ele>
        <time>2025-03-15T09:11:07Z</time>
      </trkpt>
      <trkpt lat="43.85021" lon="6.98688">
        <ele>897.7</ele>
        <time>2025-03-15T09:11:07Z</time>
      </trkpt>
      <trkpt lat="43.85014" lon="6.98689">
        <ele>897.6</ele>
        <time>2025-03-15T09:11:07Z</time>
      </trkpt>
      <trkpt lat="43.85008" lon="6.98695">
        <ele>896.4</ele>
        <time>2025-03-15T09:11:07Z</time>
      </trkpt>
      <trkpt lat="43.85004" lon="6.98698">
        <ele>896.4</ele>
        <time>2025-03-15T09:11:07Z</time>
      </trkpt>
      <trkpt lat="43.8499" lon="6.98715">
        <ele>900.1</ele>
        <time>2025-03-15T09:11:07Z</time>
      </trkpt>
      <trkpt lat="43.8497" lon="6.98732">
        <ele>898.5</ele>
        <time>2025-03-15T09:11:07Z</time>
      </trkpt>
      <trkpt lat="43.84953" lon="6.98745">
        <ele>894.4</ele>
        <time>2025-03-15T09:11:07Z</time>
      </trkpt>
      <trkpt lat="43.84937" lon="6.98762">
        <ele>892</ele>
        <time>2025-03-15T09:11:07Z</time>
      </trkpt>
      <trkpt lat="43.84923" lon="6.98778">
        <ele>891</ele>
        <time>2025-03-15T09:11:07Z</time>
      </trkpt>
      <trkpt lat="43.84916" lon="6.98791">
        <ele>889.7</ele>
        <time>2025-03-15T09:11:07Z</time>
      </trkpt>
      <trkpt lat="43.84908" lon="6.98808">
        <ele>889.2</ele>
        <time>2025-03-15T09:11:07Z</time>
      </trkpt>
      <trkpt lat="43.84903" lon="6.9882">
        <ele>889.7</ele>
        <time>2025-03-15T09:11:07Z</time>
      </trkpt>
      <trkpt lat="43.84899" lon="6.98828">
        <ele>891.4</ele>
        <time>2025-03-15T09:11:07Z</time>
      </trkpt>
      <trkpt lat="43.84893" lon="6.98835">
        <ele>892.4</ele>
        <time>2025-03-15T09:11:07Z</time>
      </trkpt>
      <trkpt lat="43.84887" lon="6.98839">
        <ele>890.3</ele>
        <time>2025-03-15T09:11:07Z</time>
      </trkpt>
      <trkpt lat="43.84873" lon="6.98849">
        <ele>887.8</ele>
        <time>2025-03-15T09:11:07Z</time>
      </trkpt>
      <trkpt lat="43.84866" lon="6.98855">
        <ele>888.1</ele>
        <time>2025-03-15T09:11:07Z</time>
      </trkpt>
      <trkpt lat="43.84861" lon="6.98864">
        <ele>891.1</ele>
        <time>2025-03-15T09:11:07Z</time>
      </trkpt>
      <trkpt lat="43.84856" lon="6.98874">
        <ele>894.6</ele>
        <time>2025-03-15T09:11:07Z</time>
      </trkpt>
      <trkpt lat="43.84854" lon="6.98877">
        <ele>897.2</ele>
        <time>2025-03-15T09:11:07Z</time>
      </trkpt>
      <trkpt lat="43.84853" lon="6.98878">
        <ele>895.6</ele>
        <time>2025-03-15T09:11:07Z</time>
      </trkpt>
      <trkpt lat="43.84848" lon="6.98879">
        <ele>894.2</ele>
        <time>2025-03-15T09:11:07Z</time>
      </trkpt>
      <trkpt lat="43.84836" lon="6.98882">
        <ele>894</ele>
        <time>2025-03-15T09:11:07Z</time>
      </trkpt>
      <trkpt lat="43.84829" lon="6.98884">
        <ele>893.2</ele>
        <time>2025-03-15T09:11:07Z</time>
      </trkpt>
      <trkpt lat="43.84817" lon="6.98891">
        <ele>893.8</ele>
        <time>2025-03-15T09:11:07Z</time>
      </trkpt>
      <trkpt lat="43.84807" lon="6.98902">
        <ele>893.3</ele>
        <time>2025-03-15T09:11:07Z</time>
      </trkpt>
      <trkpt lat="43.84802" lon="6.98908">
        <ele>891.4</ele>
        <time>2025-03-15T09:11:07Z</time>
      </trkpt>
      <trkpt lat="43.84798" lon="6.98914">
        <ele>890</ele>
        <time>2025-03-15T09:11:07Z</time>
      </trkpt>
      <trkpt lat="43.84795" lon="6.98929">
        <ele>894.4</ele>
        <time>2025-03-15T09:11:07Z</time>
      </trkpt>
      <trkpt lat="43.84789" lon="6.98958">
        <ele>896.6</ele>
        <time>2025-03-15T09:11:07Z</time>
      </trkpt>
      <trkpt lat="43.84784" lon="6.98978">
        <ele>899.1</ele>
        <time>2025-03-15T09:11:07Z</time>
      </trkpt>
      <trkpt lat="43.84779" lon="6.98987">
        <ele>898.7</ele>
        <time>2025-03-15T09:11:07Z</time>
      </trkpt>
      <trkpt lat="43.84772" lon="6.98998">
        <ele>898.8</ele>
        <time>2025-03-15T09:11:07Z</time>
      </trkpt>
      <trkpt lat="43.84759" lon="6.99012">
        <ele>899.1</ele>
        <time>2025-03-15T09:11:07Z</time>
      </trkpt>
      <trkpt lat="43.84746" lon="6.99022">
        <ele>897.8</ele>
        <time>2025-03-15T09:11:07Z</time>
      </trkpt>
      <trkpt lat="43.84734" lon="6.99028">
        <ele>897.9</ele>
        <time>2025-03-15T09:11:07Z</time>
      </trkpt>
      <trkpt lat="43.84729" lon="6.99032">
        <ele>895.4</ele>
        <time>2025-03-15T09:11:07Z</time>
      </trkpt>
      <trkpt lat="43.84726" lon="6.99038">
        <ele>896.1</ele>
        <time>2025-03-15T09:11:07Z</time>
      </trkpt>
      <trkpt lat="43.84726" lon="6.9905">
        <ele>897.3</ele>
        <time>2025-03-15T09:11:07Z</time>
      </trkpt>
      <trkpt lat="43.84726" lon="6.99059">
        <ele>897.6</ele>
        <time>2025-03-15T09:11:07Z</time>
      </trkpt>
      <trkpt lat="43.84725" lon="6.99067">
        <ele>895</ele>
        <time>2025-03-15T09:11:07Z</time>
      </trkpt>
      <trkpt lat="43.84722" lon="6.99081">
        <ele>897.9</ele>
        <time>2025-03-15T09:11:07Z</time>
      </trkpt>
      <trkpt lat="43.84715" lon="6.991">
        <ele>900</ele>
        <time>2025-03-15T09:11:07Z</time>
      </trkpt>
      <trkpt lat="43.84704" lon="6.99125">
        <ele>900.6</ele>
        <time>2025-03-15T09:11:07Z</time>
      </trkpt>
      <trkpt lat="43.8469" lon="6.99155">
        <ele>900.3</ele>
        <time>2025-03-15T09:11:07Z</time>
      </trkpt>
      <trkpt lat="43.84681" lon="6.99172">
        <ele>900.6</ele>
        <time>2025-03-15T09:11:07Z</time>
      </trkpt>
      <trkpt lat="43.84671" lon="6.99185">
        <ele>899.5</ele>
        <time>2025-03-15T09:11:07Z</time>
      </trkpt>
      <trkpt lat="43.84665" lon="6.9919">
        <ele>896.7</ele>
        <time>2025-03-15T09:11:07Z</time>
      </trkpt>
      <trkpt lat="43.84658" lon="6.99197">
        <ele>895.6</ele>
        <time>2025-03-15T09:11:07Z</time>
      </trkpt>
      <trkpt lat="43.84648" lon="6.99203">
        <ele>894.2</ele>
        <time>2025-03-15T09:11:07Z</time>
      </trkpt>
      <trkpt lat="43.84644" lon="6.99206">
        <ele>892.6</ele>
        <time>2025-03-15T09:11:07Z</time>
      </trkpt>
      <trkpt lat="43.84635" lon="6.99213">
        <ele>892.4</ele>
        <time>2025-03-15T09:11:07Z</time>
      </trkpt>
      <trkpt lat="43.84631" lon="6.99216">
        <ele>891.5</ele>
        <time>2025-03-15T09:11:07Z</time>
      </trkpt>
      <trkpt lat="43.84628" lon="6.99223">
        <ele>890.1</ele>
        <time>2025-03-15T09:11:07Z</time>
      </trkpt>
      <trkpt lat="43.84622" lon="6.99244">
        <ele>888.9</ele>
        <time>2025-03-15T09:11:07Z</time>
      </trkpt>
      <trkpt lat="43.84616" lon="6.99266">
        <ele>892.1</ele>
        <time>2025-03-15T09:11:07Z</time>
      </trkpt>
      <trkpt lat="43.84604" lon="6.99298">
        <ele>891.8</ele>
        <time>2025-03-15T09:11:07Z</time>
      </trkpt>
      <trkpt lat="43.84595" lon="6.99314">
        <ele>887.2</ele>
        <time>2025-03-15T09:11:07Z</time>
      </trkpt>
      <trkpt lat="43.84592" lon="6.99321">
        <ele>885.8</ele>
        <time>2025-03-15T09:11:07Z</time>
      </trkpt>
      <trkpt lat="43.84589" lon="6.99325">
        <ele>886.3</ele>
        <time>2025-03-15T09:11:07Z</time>
      </trkpt>
      <trkpt lat="43.84583" lon="6.99335">
        <ele>883.2</ele>
        <time>2025-03-15T09:11:07Z</time>
      </trkpt>
      <trkpt lat="43.84576" lon="6.9935">
        <ele>883.3</ele>
        <time>2025-03-15T09:11:07Z</time>
      </trkpt>
      <trkpt lat="43.84568" lon="6.99368">
        <ele>882</ele>
        <time>2025-03-15T09:11:07Z</time>
      </trkpt>
      <trkpt lat="43.84563" lon="6.99377">
        <ele>881.7</ele>
        <time>2025-03-15T09:11:07Z</time>
      </trkpt>
      <trkpt lat="43.84557" lon="6.99381">
        <ele>880.1</ele>
        <time>2025-03-15T09:11:07Z</time>
      </trkpt>
      <trkpt lat="43.84544" lon="6.99383">
        <ele>878.3</ele>
        <time>2025-03-15T09:11:07Z</time>
      </trkpt>
      <trkpt lat="43.84524" lon="6.9938">
        <ele>875.9</ele>
        <time>2025-03-15T09:11:07Z</time>
      </trkpt>
      <trkpt lat="43.84519" lon="6.9938">
        <ele>875.2</ele>
        <time>2025-03-15T09:11:07Z</time>
      </trkpt>
      <trkpt lat="43.84513" lon="6.99377">
        <ele>874.4</ele>
        <time>2025-03-15T09:11:07Z</time>
      </trkpt>
      <trkpt lat="43.84509" lon="6.99373">
        <ele>873.6</ele>
        <time>2025-03-15T09:11:07Z</time>
      </trkpt>
      <trkpt lat="43.84506" lon="6.99363">
        <ele>872.5</ele>
        <time>2025-03-15T09:11:07Z</time>
      </trkpt>
      <trkpt lat="43.84503" lon="6.99345">
        <ele>870.7</ele>
        <time>2025-03-15T09:11:07Z</time>
      </trkpt>
      <trkpt lat="43.84499" lon="6.99331">
        <ele>868.3</ele>
        <time>2025-03-15T09:11:07Z</time>
      </trkpt>
      <trkpt lat="43.84493" lon="6.99326">
        <ele>867.8</ele>
        <time>2025-03-15T09:11:07Z</time>
      </trkpt>
      <trkpt lat="43.84488" lon="6.99326">
        <ele>867.8</ele>
        <time>2025-03-15T09:11:07Z</time>
      </trkpt>
      <trkpt lat="43.84482" lon="6.9933">
        <ele>868.2</ele>
        <time>2025-03-15T09:11:07Z</time>
      </trkpt>
      <trkpt lat="43.84477" lon="6.99335">
        <ele>868.4</ele>
        <time>2025-03-15T09:11:07Z</time>
      </trkpt>
      <trkpt lat="43.84471" lon="6.99336">
        <ele>867.8</ele>
        <time>2025-03-15T09:11:07Z</time>
      </trkpt>
      <trkpt lat="43.84465" lon="6.99334">
        <ele>867</ele>
        <time>2025-03-15T09:11:07Z</time>
      </trkpt>
      <trkpt lat="43.84459" lon="6.99329">
        <ele>865.6</ele>
        <time>2025-03-15T09:11:07Z</time>
      </trkpt>
      <trkpt lat="43.84455" lon="6.9932">
        <ele>865.2</ele>
        <time>2025-03-15T09:11:07Z</time>
      </trkpt>
      <trkpt lat="43.84452" lon="6.99307">
        <ele>863.9</ele>
        <time>2025-03-15T09:11:07Z</time>
      </trkpt>
      <trkpt lat="43.8445" lon="6.99287">
        <ele>862.1</ele>
        <time>2025-03-15T09:11:07Z</time>
      </trkpt>
      <trkpt lat="43.84446" lon="6.99271">
        <ele>860.8</ele>
        <time>2025-03-15T09:11:07Z</time>
      </trkpt>
      <trkpt lat="43.84442" lon="6.99261">
        <ele>860</ele>
        <time>2025-03-15T09:11:07Z</time>
      </trkpt>
      <trkpt lat="43.8443" lon="6.99244">
        <ele>859.5</ele>
        <time>2025-03-15T09:11:07Z</time>
      </trkpt>
      <trkpt lat="43.8442" lon="6.99229">
        <ele>859</ele>
        <time>2025-03-15T09:11:07Z</time>
      </trkpt>
      <trkpt lat="43.84415" lon="6.99222">
        <ele>858.1</ele>
        <time>2025-03-15T09:11:07Z</time>
      </trkpt>
      <trkpt lat="43.84404" lon="6.99206">
        <ele>856.7</ele>
        <time>2025-03-15T09:11:07Z</time>
      </trkpt>
      <trkpt lat="43.84395" lon="6.99194">
        <ele>856.5</ele>
        <time>2025-03-15T09:11:07Z</time>
      </trkpt>
      <trkpt lat="43.84388" lon="6.99188">
        <ele>856.4</ele>
        <time>2025-03-15T09:11:07Z</time>
      </trkpt>
      <trkpt lat="43.84385" lon="6.99183">
        <ele>856.4</ele>
        <time>2025-03-15T09:11:07Z</time>
      </trkpt>
      <trkpt lat="43.84379" lon="6.99178">
        <ele>856.5</ele>
        <time>2025-03-15T09:11:07Z</time>
      </trkpt>
      <trkpt lat="43.84375" lon="6.99175">
        <ele>856.7</ele>
        <time>2025-03-15T09:11:07Z</time>
      </trkpt>
      <trkpt lat="43.8437" lon="6.99171">
        <ele>857</ele>
        <time>2025-03-15T09:11:07Z</time>
      </trkpt>
      <trkpt lat="43.84351" lon="6.99149">
        <ele>860.1</ele>
        <time>2025-03-15T09:11:07Z</time>
      </trkpt>
      <trkpt lat="43.84342" lon="6.99135">
        <ele>861.6</ele>
        <time>2025-03-15T09:11:07Z</time>
      </trkpt>
      <trkpt lat="43.84336" lon="6.99133">
        <ele>862.4</ele>
        <time>2025-03-15T09:11:07Z</time>
      </trkpt>
      <trkpt lat="43.84331" lon="6.99132">
        <ele>863.3</ele>
        <time>2025-03-15T09:11:07Z</time>
      </trkpt>
      <trkpt lat="43.84326" lon="6.99124">
        <ele>863.8</ele>
        <time>2025-03-15T09:11:07Z</time>
      </trkpt>
      <trkpt lat="43.84318" lon="6.9911">
        <ele>864.1</ele>
        <time>2025-03-15T09:11:07Z</time>
      </trkpt>
      <trkpt lat="43.84314" lon="6.99105">
        <ele>864.2</ele>
        <time>2025-03-15T09:11:07Z</time>
      </trkpt>
      <trkpt lat="43.84308" lon="6.99107">
        <ele>865.3</ele>
        <time>2025-03-15T09:11:07Z</time>
      </trkpt>
      <trkpt lat="43.84303" lon="6.99116">
        <ele>866.7</ele>
        <time>2025-03-15T09:11:07Z</time>
      </trkpt>
      <trkpt lat="43.84299" lon="6.99128">
        <ele>868.2</ele>
        <time>2025-03-15T09:11:07Z</time>
      </trkpt>
      <trkpt lat="43.84296" lon="6.99139">
        <ele>868.7</ele>
        <time>2025-03-15T09:11:07Z</time>
      </trkpt>
      <trkpt lat="43.84293" lon="6.9915">
        <ele>869.6</ele>
        <time>2025-03-15T09:11:07Z</time>
      </trkpt>
      <trkpt lat="43.84287" lon="6.99157">
        <ele>871.2</ele>
        <time>2025-03-15T09:11:07Z</time>
      </trkpt>
      <trkpt lat="43.84275" lon="6.99171">
        <ele>872.9</ele>
        <time>2025-03-15T09:11:07Z</time>
      </trkpt>
      <trkpt lat="43.84267" lon="6.99181">
        <ele>874.6</ele>
        <time>2025-03-15T09:11:07Z</time>
      </trkpt>
      <trkpt lat="43.84257" lon="6.992">
        <ele>883.3</ele>
        <time>2025-03-15T09:11:07Z</time>
      </trkpt>
      <trkpt lat="43.84243" lon="6.99223">
        <ele>886.1</ele>
        <time>2025-03-15T09:11:07Z</time>
      </trkpt>
      <trkpt lat="43.84224" lon="6.99251">
        <ele>885.9</ele>
        <time>2025-03-15T09:11:07Z</time>
      </trkpt>
      <trkpt lat="43.84205" lon="6.99286">
        <ele>888.5</ele>
        <time>2025-03-15T09:11:07Z</time>
      </trkpt>
      <trkpt lat="43.842" lon="6.99297">
        <ele>889.4</ele>
        <time>2025-03-15T09:11:07Z</time>
      </trkpt>
      <trkpt lat="43.84187" lon="6.99319">
        <ele>891.6</ele>
        <time>2025-03-15T09:11:07Z</time>
      </trkpt>
      <trkpt lat="43.8418" lon="6.99333">
        <ele>893.6</ele>
        <time>2025-03-15T09:11:07Z</time>
      </trkpt>
      <trkpt lat="43.84169" lon="6.99359">
        <ele>894.3</ele>
        <time>2025-03-15T09:11:07Z</time>
      </trkpt>
      <trkpt lat="43.84168" lon="6.99361">
        <ele>894.3</ele>
        <time>2025-03-15T09:11:07Z</time>
      </trkpt>
      <trkpt lat="43.84165" lon="6.99371">
        <ele>895.7</ele>
        <time>2025-03-15T09:11:07Z</time>
      </trkpt>
      <trkpt lat="43.84156" lon="6.99397">
        <ele>898.3</ele>
        <time>2025-03-15T09:11:07Z</time>
      </trkpt>
      <trkpt lat="43.84142" lon="6.99432">
        <ele>903</ele>
        <time>2025-03-15T09:11:07Z</time>
      </trkpt>
      <trkpt lat="43.84129" lon="6.99467">
        <ele>907.5</ele>
        <time>2025-03-15T09:11:07Z</time>
      </trkpt>
      <trkpt lat="43.84123" lon="6.99489">
        <ele>909.6</ele>
        <time>2025-03-15T09:11:07Z</time>
      </trkpt>
      <trkpt lat="43.84116" lon="6.99507">
        <ele>909.2</ele>
        <time>2025-03-15T09:11:07Z</time>
      </trkpt>
      <trkpt lat="43.84106" lon="6.99529">
        <ele>913.4</ele>
        <time>2025-03-15T09:11:07Z</time>
      </trkpt>
      <trkpt lat="43.841" lon="6.99545">
        <ele>914.7</ele>
        <time>2025-03-15T09:11:07Z</time>
      </trkpt>
      <trkpt lat="43.84095" lon="6.99565">
        <ele>915.6</ele>
        <time>2025-03-15T09:11:07Z</time>
      </trkpt>
      <trkpt lat="43.84084" lon="6.99611">
        <ele>918.8</ele>
        <time>2025-03-15T09:11:07Z</time>
      </trkpt>
      <trkpt lat="43.84078" lon="6.9963">
        <ele>919.6</ele>
        <time>2025-03-15T09:11:07Z</time>
      </trkpt>
      <trkpt lat="43.84076" lon="6.99645">
        <ele>922.7</ele>
        <time>2025-03-15T09:11:07Z</time>
      </trkpt>
      <trkpt lat="43.84076" lon="6.99661">
        <ele>921.3</ele>
        <time>2025-03-15T09:11:07Z</time>
      </trkpt>
      <trkpt lat="43.84074" lon="6.99671">
        <ele>920.4</ele>
        <time>2025-03-15T09:11:07Z</time>
      </trkpt>
      <trkpt lat="43.84072" lon="6.99675">
        <ele>923.3</ele>
        <time>2025-03-15T09:11:07Z</time>
      </trkpt>
      <trkpt lat="43.84066" lon="6.99693">
        <ele>924.5</ele>
        <time>2025-03-15T09:11:07Z</time>
      </trkpt>
      <trkpt lat="43.8405" lon="6.99732">
        <ele>927.4</ele>
        <time>2025-03-15T09:11:07Z</time>
      </trkpt>
      <trkpt lat="43.8404" lon="6.99752">
        <ele>928.2</ele>
        <time>2025-03-15T09:11:07Z</time>
      </trkpt>
      <trkpt lat="43.84021" lon="6.99783">
        <ele>935.6</ele>
        <time>2025-03-15T09:11:07Z</time>
      </trkpt>
      <trkpt lat="43.84007" lon="6.99804">
        <ele>935.7</ele>
        <time>2025-03-15T09:11:07Z</time>
      </trkpt>
      <trkpt lat="43.84003" lon="6.99817">
        <ele>936.2</ele>
        <time>2025-03-15T09:11:07Z</time>
      </trkpt>
      <trkpt lat="43.83994" lon="6.99845">
        <ele>939.1</ele>
        <time>2025-03-15T09:11:07Z</time>
      </trkpt>
      <trkpt lat="43.83986" lon="6.99866">
        <ele>940.2</ele>
        <time>2025-03-15T09:11:07Z</time>
      </trkpt>
      <trkpt lat="43.83974" lon="6.99888">
        <ele>943.5</ele>
        <time>2025-03-15T09:11:07Z</time>
      </trkpt>
      <trkpt lat="43.83969" lon="6.999">
        <ele>943.8</ele>
        <time>2025-03-15T09:11:07Z</time>
      </trkpt>
      <trkpt lat="43.83966" lon="6.99914">
        <ele>942.2</ele>
        <time>2025-03-15T09:11:07Z</time>
      </trkpt>
      <trkpt lat="43.83959" lon="6.99947">
        <ele>944.2</ele>
        <time>2025-03-15T09:11:07Z</time>
      </trkpt>
      <trkpt lat="43.83958" lon="6.99949">
        <ele>944.2</ele>
        <time>2025-03-15T09:11:07Z</time>
      </trkpt>
      <trkpt lat="43.83954" lon="6.99958">
        <ele>943.2</ele>
        <time>2025-03-15T09:11:07Z</time>
      </trkpt>
      <trkpt lat="43.83948" lon="6.99964">
        <ele>944.5</ele>
        <time>2025-03-15T09:11:07Z</time>
      </trkpt>
      <trkpt lat="43.83942" lon="6.99967">
        <ele>943.9</ele>
        <time>2025-03-15T09:11:07Z</time>
      </trkpt>
      <trkpt lat="43.83927" lon="6.99964">
        <ele>948.3</ele>
        <time>2025-03-15T09:11:07Z</time>
      </trkpt>
      <trkpt lat="43.83917" lon="6.99961">
        <ele>952.7</ele>
        <time>2025-03-15T09:11:07Z</time>
      </trkpt>
      <trkpt lat="43.8391" lon="6.99962">
        <ele>953.7</ele>
        <time>2025-03-15T09:11:07Z</time>
      </trkpt>
      <trkpt lat="43.83903" lon="6.99964">
        <ele>954.8</ele>
        <time>2025-03-15T09:11:07Z</time>
      </trkpt>
      <trkpt lat="43.83896" lon="6.99974">
        <ele>956.5</ele>
        <time>2025-03-15T09:11:07Z</time>
      </trkpt>
      <trkpt lat="43.83885" lon="6.99992">
        <ele>956.9</ele>
        <time>2025-03-15T09:11:07Z</time>
      </trkpt>
      <trkpt lat="43.83873" lon="7.00015">
        <ele>958</ele>
        <time>2025-03-15T09:11:07Z</time>
      </trkpt>
      <trkpt lat="43.83866" lon="7.00027">
        <ele>960.5</ele>
        <time>2025-03-15T09:11:07Z</time>
      </trkpt>
      <trkpt lat="43.83865" lon="7.00032">
        <ele>960.5</ele>
        <time>2025-03-15T09:11:07Z</time>
      </trkpt>
      <trkpt lat="43.83864" lon="7.0004">
        <ele>960.1</ele>
        <time>2025-03-15T09:11:07Z</time>
      </trkpt>
      <trkpt lat="43.83862" lon="7.00053">
        <ele>961</ele>
        <time>2025-03-15T09:11:07Z</time>
      </trkpt>
      <trkpt lat="43.83859" lon="7.00071">
        <ele>960.5</ele>
        <time>2025-03-15T09:11:07Z</time>
      </trkpt>
      <trkpt lat="43.83855" lon="7.00096">
        <ele>963</ele>
        <time>2025-03-15T09:11:07Z</time>
      </trkpt>
      <trkpt lat="43.83853" lon="7.00121">
        <ele>967.6</ele>
        <time>2025-03-15T09:11:07Z</time>
      </trkpt>
      <trkpt lat="43.83852" lon="7.00137">
        <ele>968.2</ele>
        <time>2025-03-15T09:11:07Z</time>
      </trkpt>
      <trkpt lat="43.8385" lon="7.00151">
        <ele>968.1</ele>
        <time>2025-03-15T09:11:07Z</time>
      </trkpt>
      <trkpt lat="43.83846" lon="7.00178">
        <ele>970.4</ele>
        <time>2025-03-15T09:11:07Z</time>
      </trkpt>
      <trkpt lat="43.83842" lon="7.002">
        <ele>971.9</ele>
        <time>2025-03-15T09:11:07Z</time>
      </trkpt>
      <trkpt lat="43.83836" lon="7.00221">
        <ele>975.6</ele>
        <time>2025-03-15T09:11:07Z</time>
      </trkpt>
      <trkpt lat="43.83828" lon="7.00245">
        <ele>978.3</ele>
        <time>2025-03-15T09:11:07Z</time>
      </trkpt>
      <trkpt lat="43.83818" lon="7.00268">
        <ele>979.8</ele>
        <time>2025-03-15T09:11:07Z</time>
      </trkpt>
      <trkpt lat="43.83811" lon="7.00287">
        <ele>981</ele>
        <time>2025-03-15T09:11:07Z</time>
      </trkpt>
      <trkpt lat="43.83805" lon="7.00311">
        <ele>985.4</ele>
        <time>2025-03-15T09:11:07Z</time>
      </trkpt>
      <trkpt lat="43.83799" lon="7.00356">
        <ele>987.3</ele>
        <time>2025-03-15T09:11:07Z</time>
      </trkpt>
      <trkpt lat="43.83795" lon="7.00385">
        <ele>988.8</ele>
        <time>2025-03-15T09:11:07Z</time>
      </trkpt>
      <trkpt lat="43.83792" lon="7.00396">
        <ele>989.8</ele>
        <time>2025-03-15T09:11:07Z</time>
      </trkpt>
      <trkpt lat="43.83788" lon="7.00403">
        <ele>990.8</ele>
        <time>2025-03-15T09:11:07Z</time>
      </trkpt>
      <trkpt lat="43.83772" lon="7.00417">
        <ele>996.2</ele>
        <time>2025-03-15T09:11:07Z</time>
      </trkpt>
      <trkpt lat="43.83762" lon="7.00427">
        <ele>998.1</ele>
        <time>2025-03-15T09:11:07Z</time>
      </trkpt>
      <trkpt lat="43.83754" lon="7.00442">
        <ele>1000.2</ele>
        <time>2025-03-15T09:11:07Z</time>
      </trkpt>
      <trkpt lat="43.83748" lon="7.00462">
        <ele>1000.7</ele>
        <time>2025-03-15T09:11:07Z</time>
      </trkpt>
      <trkpt lat="43.83744" lon="7.0048">
        <ele>1002.6</ele>
        <time>2025-03-15T09:11:07Z</time>
      </trkpt>
      <trkpt lat="43.83736" lon="7.00508">
        <ele>1004.3</ele>
        <time>2025-03-15T09:11:07Z</time>
      </trkpt>
      <trkpt lat="43.83731" lon="7.00535">
        <ele>1006.7</ele>
        <time>2025-03-15T09:11:07Z</time>
      </trkpt>
      <trkpt lat="43.83729" lon="7.00556">
        <ele>1008.7</ele>
        <time>2025-03-15T09:11:07Z</time>
      </trkpt>
      <trkpt lat="43.83729" lon="7.00561">
        <ele>1008.6</ele>
        <time>2025-03-15T09:11:07Z</time>
      </trkpt>
      <trkpt lat="43.83728" lon="7.0057">
        <ele>1008.4</ele>
        <time>2025-03-15T09:11:07Z</time>
      </trkpt>
      <trkpt lat="43.83726" lon="7.00573">
        <ele>1008.6</ele>
        <time>2025-03-15T09:11:07Z</time>
      </trkpt>
      <trkpt lat="43.83725" lon="7.00569">
        <ele>1011.8</ele>
        <time>2025-03-15T09:11:07Z</time>
      </trkpt>
      <trkpt lat="43.83724" lon="7.00555">
        <ele>1011.6</ele>
        <time>2025-03-15T09:11:07Z</time>
      </trkpt>
      <trkpt lat="43.83727" lon="7.00536">
        <ele>1009.4</ele>
        <time>2025-03-15T09:11:07Z</time>
      </trkpt>
      <trkpt lat="43.8373" lon="7.00512">
        <ele>1006.6</ele>
        <time>2025-03-15T09:11:07Z</time>
      </trkpt>
      <trkpt lat="43.83731" lon="7.00503">
        <ele>1007.9</ele>
        <time>2025-03-15T09:11:07Z</time>
      </trkpt>
      <trkpt lat="43.83731" lon="7.00487">
        <ele>1009.6</ele>
        <time>2025-03-15T09:11:07Z</time>
      </trkpt>
      <trkpt lat="43.83732" lon="7.00454">
        <ele>1010.6</ele>
        <time>2025-03-15T09:11:07Z</time>
      </trkpt>
      <trkpt lat="43.83733" lon="7.00415">
        <ele>1013.1</ele>
        <time>2025-03-15T09:11:07Z</time>
      </trkpt>
      <trkpt lat="43.83732" lon="7.00386">
        <ele>1014.5</ele>
        <time>2025-03-15T09:11:07Z</time>
      </trkpt>
      <trkpt lat="43.8373" lon="7.00358">
        <ele>1015.3</ele>
        <time>2025-03-15T09:11:07Z</time>
      </trkpt>
      <trkpt lat="43.83729" lon="7.0034">
        <ele>1016.6</ele>
        <time>2025-03-15T09:11:07Z</time>
      </trkpt>
      <trkpt lat="43.83725" lon="7.00321">
        <ele>1017.6</ele>
        <time>2025-03-15T09:11:07Z</time>
      </trkpt>
      <trkpt lat="43.83724" lon="7.00299">
        <ele>1018</ele>
        <time>2025-03-15T09:11:07Z</time>
      </trkpt>
      <trkpt lat="43.83713" lon="7.00303">
        <ele>1020.1</ele>
        <time>2025-03-15T09:11:07Z</time>
      </trkpt>
      <trkpt lat="43.83708" lon="7.00318">
        <ele>1021.8</ele>
        <time>2025-03-15T09:11:07Z</time>
      </trkpt>
      <trkpt lat="43.83681" lon="7.00346">
        <ele>1029.2</ele>
        <time>2025-03-15T09:11:07Z</time>
      </trkpt>
      <trkpt lat="43.83679" lon="7.0036">
        <ele>1030.3</ele>
        <time>2025-03-15T09:11:07Z</time>
      </trkpt>
      <trkpt lat="43.83677" lon="7.00373">
        <ele>1032.8</ele>
        <time>2025-03-15T09:11:07Z</time>
      </trkpt>
      <trkpt lat="43.83667" lon="7.0038">
        <ele>1037.8</ele>
        <time>2025-03-15T09:11:07Z</time>
      </trkpt>
      <trkpt lat="43.83665" lon="7.00399">
        <ele>1044.6</ele>
        <time>2025-03-15T09:11:07Z</time>
      </trkpt>
      <trkpt lat="43.83661" lon="7.0043">
        <ele>1048.5</ele>
        <time>2025-03-15T09:11:07Z</time>
      </trkpt>
      <trkpt lat="43.83655" lon="7.00427">
        <ele>1052</ele>
        <time>2025-03-15T09:11:07Z</time>
      </trkpt>
      <trkpt lat="43.83654" lon="7.00467">
        <ele>1056.1</ele>
        <time>2025-03-15T09:11:07Z</time>
      </trkpt>
      <trkpt lat="43.83647" lon="7.00469">
        <ele>1060.7</ele>
        <time>2025-03-15T09:11:07Z</time>
      </trkpt>
      <trkpt lat="43.83645" lon="7.00493">
        <ele>1062.8</ele>
        <time>2025-03-15T09:11:07Z</time>
      </trkpt>
      <trkpt lat="43.83641" lon="7.00492">
        <ele>1065.2</ele>
        <time>2025-03-15T09:11:07Z</time>
      </trkpt>
      <trkpt lat="43.83631" lon="7.0052">
        <ele>1071.4</ele>
        <time>2025-03-15T09:11:07Z</time>
      </trkpt>
      <trkpt lat="43.83621" lon="7.00558">
        <ele>1080</ele>
        <time>2025-03-15T09:11:07Z</time>
      </trkpt>
      <trkpt lat="43.8362" lon="7.00562">
        <ele>1080.1</ele>
        <time>2025-03-15T09:11:07Z</time>
      </trkpt>
      <trkpt lat="43.83621" lon="7.00576">
        <ele>1081.1</ele>
        <time>2025-03-15T09:11:07Z</time>
      </trkpt>
      <trkpt lat="43.83621" lon="7.00592">
        <ele>1081.5</ele>
        <time>2025-03-15T09:11:07Z</time>
      </trkpt>
      <trkpt lat="43.83619" lon="7.00633">
        <ele>1085.1</ele>
        <time>2025-03-15T09:11:07Z</time>
      </trkpt>
      <trkpt lat="43.83611" lon="7.00753">
        <ele>1098.8</ele>
        <time>2025-03-15T09:11:07Z</time>
      </trkpt>
      <trkpt lat="43.83609" lon="7.00792">
        <ele>1101.3</ele>
        <time>2025-03-15T09:11:07Z</time>
      </trkpt>
      <trkpt lat="43.83609" lon="7.00793">
        <ele>1101.3</ele>
        <time>2025-03-15T09:11:07Z</time>
      </trkpt>
      <trkpt lat="43.83604" lon="7.00827">
        <ele>1103.9</ele>
        <time>2025-03-15T09:11:07Z</time>
      </trkpt>
      <trkpt lat="43.83603" lon="7.00832">
        <ele>1104.1</ele>
        <time>2025-03-15T09:11:07Z</time>
      </trkpt>
      <trkpt lat="43.83599" lon="7.00852">
        <ele>1106.1</ele>
        <time>2025-03-15T09:11:07Z</time>
      </trkpt>
      <trkpt lat="43.83592" lon="7.00884">
        <ele>1109.9</ele>
        <time>2025-03-15T09:11:07Z</time>
      </trkpt>
      <trkpt lat="43.83563" lon="7.00987">
        <ele>1127.7</ele>
        <time>2025-03-15T09:11:07Z</time>
      </trkpt>
      <trkpt lat="43.8355" lon="7.01062">
        <ele>1133.8</ele>
        <time>2025-03-15T09:11:07Z</time>
      </trkpt>
      <trkpt lat="43.8354" lon="7.01086">
        <ele>1140.1</ele>
        <time>2025-03-15T09:11:07Z</time>
      </trkpt>
      <trkpt lat="43.83502" lon="7.01198">
        <ele>1157.1</ele>
        <time>2025-03-15T09:11:07Z</time>
      </trkpt>
      <trkpt lat="43.83489" lon="7.0123">
        <ele>1161.8</ele>
        <time>2025-03-15T09:11:07Z</time>
      </trkpt>
      <trkpt lat="43.83452" lon="7.01351">
        <ele>1180.4</ele>
        <time>2025-03-15T09:11:07Z</time>
      </trkpt>
      <trkpt lat="43.83449" lon="7.01352">
        <ele>1182.8</ele>
        <time>2025-03-15T09:11:07Z</time>
      </trkpt>
      <trkpt lat="43.83443" lon="7.01358">
        <ele>1185.7</ele>
        <time>2025-03-15T09:11:07Z</time>
      </trkpt>
      <trkpt lat="43.83438" lon="7.01366">
        <ele>1189.3</ele>
        <time>2025-03-15T09:11:07Z</time>
      </trkpt>
      <trkpt lat="43.83435" lon="7.01377">
        <ele>1193.1</ele>
        <time>2025-03-15T09:11:07Z</time>
      </trkpt>
      <trkpt lat="43.8343" lon="7.01383">
        <ele>1196.4</ele>
        <time>2025-03-15T09:11:07Z</time>
      </trkpt>
      <trkpt lat="43.83424" lon="7.01381">
        <ele>1201.2</ele>
        <time>2025-03-15T09:11:07Z</time>
      </trkpt>
      <trkpt lat="43.83419" lon="7.0138">
        <ele>1203.7</ele>
        <time>2025-03-15T09:11:07Z</time>
      </trkpt>
      <trkpt lat="43.83414" lon="7.01378">
        <ele>1205.7</ele>
        <time>2025-03-15T09:11:07Z</time>
      </trkpt>
      <trkpt lat="43.83409" lon="7.01381">
        <ele>1208.3</ele>
        <time>2025-03-15T09:11:07Z</time>
      </trkpt>
      <trkpt lat="43.83406" lon="7.01388">
        <ele>1211.1</ele>
        <time>2025-03-15T09:11:07Z</time>
      </trkpt>
      <trkpt lat="43.83401" lon="7.01393">
        <ele>1213.5</ele>
        <time>2025-03-15T09:11:07Z</time>
      </trkpt>
      <trkpt lat="43.83399" lon="7.01401">
        <ele>1215.8</ele>
        <time>2025-03-15T09:11:07Z</time>
      </trkpt>
      <trkpt lat="43.83397" lon="7.01411">
        <ele>1215.6</ele>
        <time>2025-03-15T09:11:07Z</time>
      </trkpt>
      <trkpt lat="43.83385" lon="7.01446">
        <ele>1222.9</ele>
        <time>2025-03-15T09:11:07Z</time>
      </trkpt>
      <trkpt lat="43.83358" lon="7.01528">
        <ele>1238.3</ele>
        <time>2025-03-15T09:11:07Z</time>
      </trkpt>
      <trkpt lat="43.83351" lon="7.0155">
        <ele>1241.7</ele>
        <time>2025-03-15T09:11:07Z</time>
      </trkpt>
      <trkpt lat="43.83326" lon="7.01604">
        <ele>1259.6</ele>
        <time>2025-03-15T09:11:07Z</time>
      </trkpt>
      <trkpt lat="43.83326" lon="7.01636">
        <ele>1265.1</ele>
        <time>2025-03-15T09:11:07Z</time>
      </trkpt>
      <trkpt lat="43.83324" lon="7.0166">
        <ele>1264</ele>
        <time>2025-03-15T09:11:07Z</time>
      </trkpt>
      <trkpt lat="43.83319" lon="7.01656">
        <ele>1267</ele>
        <time>2025-03-15T09:11:07Z</time>
      </trkpt>
      <trkpt lat="43.83288" lon="7.01728">
        <ele>1275.6</ele>
        <time>2025-03-15T09:11:07Z</time>
      </trkpt>
      <trkpt lat="43.83286" lon="7.01745">
        <ele>1277.5</ele>
        <time>2025-03-15T09:11:07Z</time>
      </trkpt>
      <trkpt lat="43.83275" lon="7.01792">
        <ele>1281.2</ele>
        <time>2025-03-15T09:11:07Z</time>
      </trkpt>
      <trkpt lat="43.83251" lon="7.01894">
        <ele>1296.7</ele>
        <time>2025-03-15T09:11:07Z</time>
      </trkpt>
      <trkpt lat="43.83243" lon="7.01909">
        <ele>1301.3</ele>
        <time>2025-03-15T09:11:07Z</time>
      </trkpt>
      <trkpt lat="43.8324" lon="7.01917">
        <ele>1303.7</ele>
        <time>2025-03-15T09:11:07Z</time>
      </trkpt>
      <trkpt lat="43.83234" lon="7.01951">
        <ele>1306.3</ele>
        <time>2025-03-15T09:11:07Z</time>
      </trkpt>
      <trkpt lat="43.83231" lon="7.01961">
        <ele>1308.3</ele>
        <time>2025-03-15T09:11:07Z</time>
      </trkpt>
      <trkpt lat="43.83224" lon="7.01952">
        <ele>1310.4</ele>
        <time>2025-03-15T09:11:07Z</time>
      </trkpt>
      <trkpt lat="43.83215" lon="7.01945">
        <ele>1314.4</ele>
        <time>2025-03-15T09:11:07Z</time>
      </trkpt>
      <trkpt lat="43.83218" lon="7.01929">
        <ele>1314.1</ele>
        <time>2025-03-15T09:11:07Z</time>
      </trkpt>
      <trkpt lat="43.83213" lon="7.01886">
        <ele>1316.3</ele>
        <time>2025-03-15T09:11:07Z</time>
      </trkpt>
      <trkpt lat="43.83212" lon="7.01879">
        <ele>1316.5</ele>
        <time>2025-03-15T09:11:07Z</time>
      </trkpt>
      <trkpt lat="43.83206" lon="7.01871">
        <ele>1318.7</ele>
        <time>2025-03-15T09:11:07Z</time>
      </trkpt>
      <trkpt lat="43.83203" lon="7.01852">
        <ele>1319.7</ele>
        <time>2025-03-15T09:11:07Z</time>
      </trkpt>
      <trkpt lat="43.83201" lon="7.01789">
        <ele>1320.2</ele>
        <time>2025-03-15T09:11:07Z</time>
      </trkpt>
      <trkpt lat="43.83207" lon="7.01692">
        <ele>1316.1</ele>
        <time>2025-03-15T09:11:07Z</time>
      </trkpt>
      <trkpt lat="43.83218" lon="7.01659">
        <ele>1315.7</ele>
        <time>2025-03-15T09:11:07Z</time>
      </trkpt>
      <trkpt lat="43.83227" lon="7.01557">
        <ele>1324.1</ele>
        <time>2025-03-15T09:11:07Z</time>
      </trkpt>
      <trkpt lat="43.83229" lon="7.01482">
        <ele>1324.4</ele>
        <time>2025-03-15T09:11:07Z</time>
      </trkpt>
      <trkpt lat="43.83228" lon="7.01416">
        <ele>1320</ele>
        <time>2025-03-15T09:11:07Z</time>
      </trkpt>
      <trkpt lat="43.83236" lon="7.01337">
        <ele>1317</ele>
        <time>2025-03-15T09:11:07Z</time>
      </trkpt>
      <trkpt lat="43.83236" lon="7.01285">
        <ele>1319.8</ele>
        <time>2025-03-15T09:11:07Z</time>
      </trkpt>
      <trkpt lat="43.83243" lon="7.01173">
        <ele>1317.5</ele>
        <time>2025-03-15T09:11:07Z</time>
      </trkpt>
      <trkpt lat="43.83249" lon="7.01141">
        <ele>1313.5</ele>
        <time>2025-03-15T09:11:07Z</time>
      </trkpt>
      <trkpt lat="43.83248" lon="7.01117">
        <ele>1320.1</ele>
        <time>2025-03-15T09:11:07Z</time>
      </trkpt>
      <trkpt lat="43.83258" lon="7.01079">
        <ele>1317.7</ele>
        <time>2025-03-15T09:11:07Z</time>
      </trkpt>
      <trkpt lat="43.83263" lon="7.01055">
        <ele>1316.2</ele>
        <time>2025-03-15T09:11:07Z</time>
      </trkpt>
      <trkpt lat="43.83265" lon="7.01032">
        <ele>1317.5</ele>
        <time>2025-03-15T09:11:07Z</time>
      </trkpt>
      <trkpt lat="43.83258" lon="7.01007">
        <ele>1321.4</ele>
        <time>2025-03-15T09:11:07Z</time>
      </trkpt>
      <trkpt lat="43.83245" lon="7.00978">
        <ele>1326.1</ele>
        <time>2025-03-15T09:11:07Z</time>
      </trkpt>
      <trkpt lat="43.83216" lon="7.00921">
        <ele>1334.5</ele>
        <time>2025-03-15T09:11:07Z</time>
      </trkpt>
      <trkpt lat="43.83192" lon="7.00873">
        <ele>1343.6</ele>
        <time>2025-03-15T09:11:07Z</time>
      </trkpt>
      <trkpt lat="43.83177" lon="7.00834">
        <ele>1347.2</ele>
        <time>2025-03-15T09:11:07Z</time>
      </trkpt>
      <trkpt lat="43.83171" lon="7.00792">
        <ele>1349.2</ele>
        <time>2025-03-15T09:11:07Z</time>
      </trkpt>
      <trkpt lat="43.83169" lon="7.00759">
        <ele>1348.1</ele>
        <time>2025-03-15T09:11:07Z</time>
      </trkpt>
      <trkpt lat="43.83159" lon="7.00741">
        <ele>1352.1</ele>
        <time>2025-03-15T09:11:07Z</time>
      </trkpt>
      <trkpt lat="43.83152" lon="7.00705">
        <ele>1355</ele>
        <time>2025-03-15T09:11:07Z</time>
      </trkpt>
      <trkpt lat="43.8315" lon="7.00674">
        <ele>1355.1</ele>
        <time>2025-03-15T09:11:07Z</time>
      </trkpt>
      <trkpt lat="43.83148" lon="7.00653">
        <ele>1353.1</ele>
        <time>2025-03-15T09:11:07Z</time>
      </trkpt>
      <trkpt lat="43.83138" lon="7.00628">
        <ele>1355.6</ele>
        <time>2025-03-15T09:11:07Z</time>
      </trkpt>
      <trkpt lat="43.83131" lon="7.00623">
        <ele>1359.6</ele>
        <time>2025-03-15T09:11:07Z</time>
      </trkpt>
      <trkpt lat="43.83128" lon="7.00646">
        <ele>1364.9</ele>
        <time>2025-03-15T09:11:07Z</time>
      </trkpt>
      <trkpt lat="43.83114" lon="7.00618">
        <ele>1369.5</ele>
        <time>2025-03-15T09:11:07Z</time>
      </trkpt>
      <trkpt lat="43.83108" lon="7.00634">
        <ele>1373.8</ele>
        <time>2025-03-15T09:11:07Z</time>
      </trkpt>
      <trkpt lat="43.83102" lon="7.00636">
        <ele>1379.4</ele>
        <time>2025-03-15T09:11:07Z</time>
      </trkpt>
      <trkpt lat="43.83098" lon="7.00648">
        <ele>1382.7</ele>
        <time>2025-03-15T09:11:07Z</time>
      </trkpt>
      <trkpt lat="43.83094" lon="7.00641">
        <ele>1384.9</ele>
        <time>2025-03-15T09:11:07Z</time>
      </trkpt>
      <trkpt lat="43.83085" lon="7.00634">
        <ele>1389.4</ele>
        <time>2025-03-15T09:11:07Z</time>
      </trkpt>
      <trkpt lat="43.8307" lon="7.00593">
        <ele>1394.6</ele>
        <time>2025-03-15T09:11:07Z</time>
      </trkpt>
      <trkpt lat="43.83063" lon="7.00573">
        <ele>1398.9</ele>
        <time>2025-03-15T09:11:07Z</time>
      </trkpt>
      <trkpt lat="43.8306" lon="7.0056">
        <ele>1397.8</ele>
        <time>2025-03-15T09:11:07Z</time>
      </trkpt>
      <trkpt lat="43.83061" lon="7.00546">
        <ele>1396.5</ele>
        <time>2025-03-15T09:11:07Z</time>
      </trkpt>
      <trkpt lat="43.83053" lon="7.00465">
        <ele>1388.2</ele>
        <time>2025-03-15T09:11:07Z</time>
      </trkpt>
      <trkpt lat="43.83043" lon="7.00424">
        <ele>1388.1</ele>
        <time>2025-03-15T09:11:07Z</time>
      </trkpt>
      <trkpt lat="43.83036" lon="7.00397">
        <ele>1392</ele>
        <time>2025-03-15T09:11:07Z</time>
      </trkpt>
      <trkpt lat="43.83008" lon="7.0029">
        <ele>1397.2</ele>
        <time>2025-03-15T09:11:07Z</time>
      </trkpt>
      <trkpt lat="43.8301" lon="7.00226">
        <ele>1385.3</ele>
        <time>2025-03-15T09:11:07Z</time>
      </trkpt>
      <trkpt lat="43.83006" lon="7.00192">
        <ele>1384.9</ele>
        <time>2025-03-15T09:11:07Z</time>
      </trkpt>
      <trkpt lat="43.83012" lon="7.00118">
        <ele>1374.4</ele>
        <time>2025-03-15T09:11:07Z</time>
      </trkpt>
      <trkpt lat="43.83018" lon="7.00098">
        <ele>1366.6</ele>
        <time>2025-03-15T09:11:07Z</time>
      </trkpt>
      <trkpt lat="43.83019" lon="7.00089">
        <ele>1366.1</ele>
        <time>2025-03-15T09:11:07Z</time>
      </trkpt>
      <trkpt lat="43.83019" lon="7.00073">
        <ele>1365.7</ele>
        <time>2025-03-15T09:11:07Z</time>
      </trkpt>
      <trkpt lat="43.83019" lon="7.00046">
        <ele>1365.1</ele>
        <time>2025-03-15T09:11:07Z</time>
      </trkpt>
      <trkpt lat="43.83028" lon="7.00018">
        <ele>1359.2</ele>
        <time>2025-03-15T09:11:07Z</time>
      </trkpt>
      <trkpt lat="43.8302" lon="6.99994">
        <ele>1366</ele>
        <time>2025-03-15T09:11:07Z</time>
      </trkpt>
      <trkpt lat="43.8301" lon="6.99984">
        <ele>1372.5</ele>
        <time>2025-03-15T09:11:07Z</time>
      </trkpt>
      <trkpt lat="43.83005" lon="6.99977">
        <ele>1375.7</ele>
        <time>2025-03-15T09:11:07Z</time>
      </trkpt>
      <trkpt lat="43.83004" lon="6.9996">
        <ele>1378.7</ele>
        <time>2025-03-15T09:11:07Z</time>
      </trkpt>
      <trkpt lat="43.83001" lon="6.99943">
        <ele>1378.5</ele>
        <time>2025-03-15T09:11:07Z</time>
      </trkpt>
      <trkpt lat="43.82997" lon="6.99916">
        <ele>1381.6</ele>
        <time>2025-03-15T09:11:07Z</time>
      </trkpt>
      <trkpt lat="43.82996" lon="6.99904">
        <ele>1381.8</ele>
        <time>2025-03-15T09:11:07Z</time>
      </trkpt>
      <trkpt lat="43.82991" lon="6.99894">
        <ele>1387.5</ele>
        <time>2025-03-15T09:11:07Z</time>
      </trkpt>
      <trkpt lat="43.8299" lon="6.9988">
        <ele>1387.6</ele>
        <time>2025-03-15T09:11:07Z</time>
      </trkpt>
      <trkpt lat="43.8299" lon="6.9987">
        <ele>1387.6</ele>
        <time>2025-03-15T09:11:07Z</time>
      </trkpt>
      <trkpt lat="43.82993" lon="6.99852">
        <ele>1384.9</ele>
        <time>2025-03-15T09:11:07Z</time>
      </trkpt>
      <trkpt lat="43.82995" lon="6.99842">
        <ele>1384.9</ele>
        <time>2025-03-15T09:11:07Z</time>
      </trkpt>
      <trkpt lat="43.82996" lon="6.99832">
        <ele>1382.1</ele>
        <time>2025-03-15T09:11:07Z</time>
      </trkpt>
      <trkpt lat="43.82996" lon="6.9982">
        <ele>1382.1</ele>
        <time>2025-03-15T09:11:07Z</time>
      </trkpt>
      <trkpt lat="43.82996" lon="6.99812">
        <ele>1382.1</ele>
        <time>2025-03-15T09:11:07Z</time>
      </trkpt>
      <trkpt lat="43.82998" lon="6.99803">
        <ele>1382.1</ele>
        <time>2025-03-15T09:11:07Z</time>
      </trkpt>
      <trkpt lat="43.83003" lon="6.99788">
        <ele>1379.1</ele>
        <time>2025-03-15T09:11:07Z</time>
      </trkpt>
      <trkpt lat="43.83006" lon="6.99776">
        <ele>1376</ele>
        <time>2025-03-15T09:11:07Z</time>
      </trkpt>
      <trkpt lat="43.83008" lon="6.99762">
        <ele>1375.8</ele>
        <time>2025-03-15T09:11:07Z</time>
      </trkpt>
      <trkpt lat="43.83009" lon="6.99747">
        <ele>1372.6</ele>
        <time>2025-03-15T09:11:07Z</time>
      </trkpt>
      <trkpt lat="43.83008" lon="6.99738">
        <ele>1375.1</ele>
        <time>2025-03-15T09:11:07Z</time>
      </trkpt>
      <trkpt lat="43.83008" lon="6.99727">
        <ele>1374.9</ele>
        <time>2025-03-15T09:11:07Z</time>
      </trkpt>
      <trkpt lat="43.83006" lon="6.9971">
        <ele>1374.3</ele>
        <time>2025-03-15T09:11:07Z</time>
      </trkpt>
      <trkpt lat="43.83001" lon="6.99683">
        <ele>1375.7</ele>
        <time>2025-03-15T09:11:07Z</time>
      </trkpt>
      <trkpt lat="43.82997" lon="6.99673">
        <ele>1377.8</ele>
        <time>2025-03-15T09:11:07Z</time>
      </trkpt>
      <trkpt lat="43.82994" lon="6.99657">
        <ele>1379.5</ele>
        <time>2025-03-15T09:11:07Z</time>
      </trkpt>
      <trkpt lat="43.82992" lon="6.99643">
        <ele>1378.9</ele>
        <time>2025-03-15T09:11:07Z</time>
      </trkpt>
      <trkpt lat="43.82993" lon="6.99626">
        <ele>1378.2</ele>
        <time>2025-03-15T09:11:07Z</time>
      </trkpt>
      <trkpt lat="43.82994" lon="6.99616">
        <ele>1378</ele>
        <time>2025-03-15T09:11:07Z</time>
      </trkpt>
      <trkpt lat="43.82992" lon="6.99604">
        <ele>1377.8</ele>
        <time>2025-03-15T09:11:07Z</time>
      </trkpt>
      <trkpt lat="43.82992" lon="6.99573">
        <ele>1377.7</ele>
        <time>2025-03-15T09:11:07Z</time>
      </trkpt>
      <trkpt lat="43.82992" lon="6.99567">
        <ele>1377.7</ele>
        <time>2025-03-15T09:11:07Z</time>
      </trkpt>
      <trkpt lat="43.82992" lon="6.99544">
        <ele>1378.1</ele>
        <time>2025-03-15T09:11:07Z</time>
      </trkpt>
      <trkpt lat="43.82996" lon="6.99532">
        <ele>1376.3</ele>
        <time>2025-03-15T09:11:07Z</time>
      </trkpt>
      <trkpt lat="43.82997" lon="6.99527">
        <ele>1376.4</ele>
        <time>2025-03-15T09:11:07Z</time>
      </trkpt>
      <trkpt lat="43.82998" lon="6.99516">
        <ele>1376.9</ele>
        <time>2025-03-15T09:11:07Z</time>
      </trkpt>
      <trkpt lat="43.83002" lon="6.99502">
        <ele>1375.8</ele>
        <time>2025-03-15T09:11:07Z</time>
      </trkpt>
      <trkpt lat="43.83014" lon="6.99437">
        <ele>1374.9</ele>
        <time>2025-03-15T09:11:07Z</time>
      </trkpt>
      <trkpt lat="43.83018" lon="6.99395">
        <ele>1376.4</ele>
        <time>2025-03-15T09:11:07Z</time>
      </trkpt>
      <trkpt lat="43.83024" lon="6.99361">
        <ele>1377.2</ele>
        <time>2025-03-15T09:11:07Z</time>
      </trkpt>
      <trkpt lat="43.8303" lon="6.99344">
        <ele>1375.1</ele>
        <time>2025-03-15T09:11:07Z</time>
      </trkpt>
      <trkpt lat="43.83047" lon="6.99316">
        <ele>1371.7</ele>
        <time>2025-03-15T09:11:07Z</time>
      </trkpt>
      <trkpt lat="43.83054" lon="6.99285">
        <ele>1370.9</ele>
        <time>2025-03-15T09:11:07Z</time>
      </trkpt>
      <trkpt lat="43.83067" lon="6.99267">
        <ele>1366.8</ele>
        <time>2025-03-15T09:11:07Z</time>
      </trkpt>
      <trkpt lat="43.83075" lon="6.99215">
        <ele>1372.6</ele>
        <time>2025-03-15T09:11:07Z</time>
      </trkpt>
      <trkpt lat="43.83085" lon="6.99142">
        <ele>1378</ele>
        <time>2025-03-15T09:11:07Z</time>
      </trkpt>
      <trkpt lat="43.83091" lon="6.99097">
        <ele>1375.9</ele>
        <time>2025-03-15T09:11:07Z</time>
      </trkpt>
      <trkpt lat="43.83084" lon="6.99083">
        <ele>1379.8</ele>
        <time>2025-03-15T09:11:07Z</time>
      </trkpt>
      <trkpt lat="43.83078" lon="6.99063">
        <ele>1381.7</ele>
        <time>2025-03-15T09:11:07Z</time>
      </trkpt>
      <trkpt lat="43.83081" lon="6.99049">
        <ele>1381.7</ele>
        <time>2025-03-15T09:11:07Z</time>
      </trkpt>
      <trkpt lat="43.83098" lon="6.98989">
        <ele>1374.5</ele>
        <time>2025-03-15T09:11:07Z</time>
      </trkpt>
      <trkpt lat="43.83105" lon="6.98956">
        <ele>1372.5</ele>
        <time>2025-03-15T09:11:07Z</time>
      </trkpt>
      <trkpt lat="43.83108" lon="6.98936">
        <ele>1371.9</ele>
        <time>2025-03-15T09:11:07Z</time>
      </trkpt>
      <trkpt lat="43.83113" lon="6.98909">
        <ele>1371.6</ele>
        <time>2025-03-15T09:11:07Z</time>
      </trkpt>
      <trkpt lat="43.83112" lon="6.98889">
        <ele>1372.7</ele>
        <time>2025-03-15T09:11:07Z</time>
      </trkpt>
      <trkpt lat="43.83108" lon="6.9887">
        <ele>1375</ele>
        <time>2025-03-15T09:11:07Z</time>
      </trkpt>
      <trkpt lat="43.83117" lon="6.98849">
        <ele>1372.4</ele>
        <time>2025-03-15T09:11:07Z</time>
      </trkpt>
      <trkpt lat="43.83117" lon="6.98824">
        <ele>1373</ele>
        <time>2025-03-15T09:11:07Z</time>
      </trkpt>
      <trkpt lat="43.83109" lon="6.98795">
        <ele>1376.4</ele>
        <time>2025-03-15T09:11:07Z</time>
      </trkpt>
      <trkpt lat="43.83113" lon="6.98736">
        <ele>1377.3</ele>
        <time>2025-03-15T09:11:07Z</time>
      </trkpt>
      <trkpt lat="43.83118" lon="6.98727">
        <ele>1376.6</ele>
        <time>2025-03-15T09:11:07Z</time>
      </trkpt>
      <trkpt lat="43.83126" lon="6.98711">
        <ele>1375.2</ele>
        <time>2025-03-15T09:11:07Z</time>
      </trkpt>
      <trkpt lat="43.83134" lon="6.98677">
        <ele>1376.5</ele>
        <time>2025-03-15T09:11:07Z</time>
      </trkpt>
      <trkpt lat="43.83139" lon="6.98657">
        <ele>1378.4</ele>
        <time>2025-03-15T09:11:07Z</time>
      </trkpt>
      <trkpt lat="43.8314" lon="6.98648">
        <ele>1379.8</ele>
        <time>2025-03-15T09:11:07Z</time>
      </trkpt>
      <trkpt lat="43.83147" lon="6.98644">
        <ele>1377.7</ele>
        <time>2025-03-15T09:11:07Z</time>
      </trkpt>
      <trkpt lat="43.83152" lon="6.98617">
        <ele>1380.7</ele>
        <time>2025-03-15T09:11:07Z</time>
      </trkpt>
      <trkpt lat="43.83159" lon="6.986">
        <ele>1380.6</ele>
        <time>2025-03-15T09:11:07Z</time>
      </trkpt>
      <trkpt lat="43.83174" lon="6.98586">
        <ele>1378.3</ele>
        <time>2025-03-15T09:11:07Z</time>
      </trkpt>
      <trkpt lat="43.83176" lon="6.98563">
        <ele>1380.2</ele>
        <time>2025-03-15T09:11:07Z</time>
      </trkpt>
      <trkpt lat="43.83187" lon="6.98541">
        <ele>1379.4</ele>
        <time>2025-03-15T09:11:07Z</time>
      </trkpt>
      <trkpt lat="43.83204" lon="6.98491">
        <ele>1377.4</ele>
        <time>2025-03-15T09:11:07Z</time>
      </trkpt>
      <trkpt lat="43.83218" lon="6.98451">
        <ele>1376.6</ele>
        <time>2025-03-15T09:11:07Z</time>
      </trkpt>
      <trkpt lat="43.83232" lon="6.98428">
        <ele>1372.6</ele>
        <time>2025-03-15T09:11:07Z</time>
      </trkpt>
      <trkpt lat="43.83238" lon="6.98401">
        <ele>1373</ele>
        <time>2025-03-15T09:11:07Z</time>
      </trkpt>
      <trkpt lat="43.8324" lon="6.98394">
        <ele>1373.7</ele>
        <time>2025-03-15T09:11:07Z</time>
      </trkpt>
      <trkpt lat="43.83242" lon="6.98387">
        <ele>1373.1</ele>
        <time>2025-03-15T09:11:07Z</time>
      </trkpt>
      <trkpt lat="43.83244" lon="6.98374">
        <ele>1374</ele>
        <time>2025-03-15T09:11:07Z</time>
      </trkpt>
      <trkpt lat="43.83244" lon="6.98368">
        <ele>1374.2</ele>
        <time>2025-03-15T09:11:07Z</time>
      </trkpt>
      <trkpt lat="43.83244" lon="6.98357">
        <ele>1374.7</ele>
        <time>2025-03-15T09:11:07Z</time>
      </trkpt>
      <trkpt lat="43.83246" lon="6.98345">
        <ele>1373.5</ele>
        <time>2025-03-15T09:11:07Z</time>
      </trkpt>
      <trkpt lat="43.83244" lon="6.98336">
        <ele>1374.9</ele>
        <time>2025-03-15T09:11:07Z</time>
      </trkpt>
      <trkpt lat="43.83242" lon="6.98326">
        <ele>1374.8</ele>
        <time>2025-03-15T09:11:07Z</time>
      </trkpt>
      <trkpt lat="43.83236" lon="6.98309">
        <ele>1375.9</ele>
        <time>2025-03-15T09:11:07Z</time>
      </trkpt>
      <trkpt lat="43.83239" lon="6.98286">
        <ele>1375.6</ele>
        <time>2025-03-15T09:11:07Z</time>
      </trkpt>
      <trkpt lat="43.83239" lon="6.98263">
        <ele>1375.6</ele>
        <time>2025-03-15T09:11:07Z</time>
      </trkpt>
      <trkpt lat="43.83243" lon="6.98239">
        <ele>1374.6</ele>
        <time>2025-03-15T09:11:07Z</time>
      </trkpt>
      <trkpt lat="43.83246" lon="6.98212">
        <ele>1374</ele>
        <time>2025-03-15T09:11:07Z</time>
      </trkpt>
      <trkpt lat="43.83233" lon="6.98187">
        <ele>1379.2</ele>
        <time>2025-03-15T09:11:07Z</time>
      </trkpt>
      <trkpt lat="43.83234" lon="6.98174">
        <ele>1380.6</ele>
        <time>2025-03-15T09:11:07Z</time>
      </trkpt>
      <trkpt lat="43.83244" lon="6.9817">
        <ele>1379.2</ele>
        <time>2025-03-15T09:11:07Z</time>
      </trkpt>
      <trkpt lat="43.83256" lon="6.98159">
        <ele>1378.8</ele>
        <time>2025-03-15T09:11:07Z</time>
      </trkpt>
      <trkpt lat="43.83263" lon="6.98145">
        <ele>1380</ele>
        <time>2025-03-15T09:11:07Z</time>
      </trkpt>
      <trkpt lat="43.83276" lon="6.9813">
        <ele>1381.3</ele>
        <time>2025-03-15T09:11:07Z</time>
      </trkpt>
      <trkpt lat="43.83286" lon="6.98125">
        <ele>1382.7</ele>
        <time>2025-03-15T09:11:07Z</time>
      </trkpt>
      <trkpt lat="43.83301" lon="6.98124">
        <ele>1380.4</ele>
        <time>2025-03-15T09:11:07Z</time>
      </trkpt>
      <trkpt lat="43.8333" lon="6.98122">
        <ele>1376.8</ele>
        <time>2025-03-15T09:11:07Z</time>
      </trkpt>
      <trkpt lat="43.83344" lon="6.98121">
        <ele>1376.2</ele>
        <time>2025-03-15T09:11:07Z</time>
      </trkpt>
      <trkpt lat="43.83357" lon="6.98118">
        <ele>1375</ele>
        <time>2025-03-15T09:11:07Z</time>
      </trkpt>
      <trkpt lat="43.83371" lon="6.98108">
        <ele>1377.5</ele>
        <time>2025-03-15T09:11:07Z</time>
      </trkpt>
      <trkpt lat="43.83383" lon="6.98095">
        <ele>1379</ele>
        <time>2025-03-15T09:11:07Z</time>
      </trkpt>
      <trkpt lat="43.83391" lon="6.98081">
        <ele>1380.2</ele>
        <time>2025-03-15T09:11:07Z</time>
      </trkpt>
      <trkpt lat="43.83398" lon="6.9807">
        <ele>1380.9</ele>
        <time>2025-03-15T09:11:07Z</time>
      </trkpt>
      <trkpt lat="43.83401" lon="6.98055">
        <ele>1382.6</ele>
        <time>2025-03-15T09:11:07Z</time>
      </trkpt>
      <trkpt lat="43.83404" lon="6.98043">
        <ele>1383.3</ele>
        <time>2025-03-15T09:11:07Z</time>
      </trkpt>
      <trkpt lat="43.83416" lon="6.98031">
        <ele>1382</ele>
        <time>2025-03-15T09:11:07Z</time>
      </trkpt>
      <trkpt lat="43.83427" lon="6.98016">
        <ele>1380.3</ele>
        <time>2025-03-15T09:11:07Z</time>
      </trkpt>
      <trkpt lat="43.83436" lon="6.97996">
        <ele>1379.7</ele>
        <time>2025-03-15T09:11:07Z</time>
      </trkpt>
      <trkpt lat="43.83437" lon="6.97979">
        <ele>1380.2</ele>
        <time>2025-03-15T09:11:07Z</time>
      </trkpt>
      <trkpt lat="43.83436" lon="6.97964">
        <ele>1380.5</ele>
        <time>2025-03-15T09:11:07Z</time>
      </trkpt>
      <trkpt lat="43.83435" lon="6.97963">
        <ele>1380.5</ele>
        <time>2025-03-15T09:11:07Z</time>
      </trkpt>
      <trkpt lat="43.83436" lon="6.97964">
        <ele>1380.5</ele>
        <time>2025-03-15T09:11:07Z</time>
      </trkpt>
      <trkpt lat="43.8344" lon="6.97939">
        <ele>1380.6</ele>
        <time>2025-03-15T09:11:07Z</time>
      </trkpt>
      <trkpt lat="43.83415" lon="6.97897">
        <ele>1389.9</ele>
        <time>2025-03-15T09:11:07Z</time>
      </trkpt>
      <trkpt lat="43.83425" lon="6.9789">
        <ele>1388.9</ele>
        <time>2025-03-15T09:11:07Z</time>
      </trkpt>
      <trkpt lat="43.83452" lon="6.97902">
        <ele>1384.5</ele>
        <time>2025-03-15T09:11:07Z</time>
      </trkpt>
      <trkpt lat="43.83481" lon="6.97918">
        <ele>1377.2</ele>
        <time>2025-03-15T09:11:07Z</time>
      </trkpt>
      <trkpt lat="43.83505" lon="6.97918">
        <ele>1374.3</ele>
        <time>2025-03-15T09:11:07Z</time>
      </trkpt>
      <trkpt lat="43.83527" lon="6.97907">
        <ele>1374.1</ele>
        <time>2025-03-15T09:11:07Z</time>
      </trkpt>
      <trkpt lat="43.83553" lon="6.97914">
        <ele>1369.4</ele>
        <time>2025-03-15T09:11:07Z</time>
      </trkpt>
      <trkpt lat="43.83566" lon="6.97927">
        <ele>1364.7</ele>
        <time>2025-03-15T09:11:07Z</time>
      </trkpt>
      <trkpt lat="43.83578" lon="6.97915">
        <ele>1368.9</ele>
        <time>2025-03-15T09:11:07Z</time>
      </trkpt>
      <trkpt lat="43.83603" lon="6.97921">
        <ele>1364.5</ele>
        <time>2025-03-15T09:11:07Z</time>
      </trkpt>
      <trkpt lat="43.83632" lon="6.97921">
        <ele>1364.2</ele>
        <time>2025-03-15T09:11:07Z</time>
      </trkpt>
      <trkpt lat="43.83656" lon="6.97921">
        <ele>1363</ele>
        <time>2025-03-15T09:11:07Z</time>
      </trkpt>
      <trkpt lat="43.83678" lon="6.97935">
        <ele>1358.5</ele>
        <time>2025-03-15T09:11:07Z</time>
      </trkpt>
      <trkpt lat="43.83699" lon="6.9795">
        <ele>1353.6</ele>
        <time>2025-03-15T09:11:07Z</time>
      </trkpt>
      <trkpt lat="43.83711" lon="6.97946">
        <ele>1352.2</ele>
        <time>2025-03-15T09:11:07Z</time>
      </trkpt>
      <trkpt lat="43.83724" lon="6.97993">
        <ele>1345.4</ele>
        <time>2025-03-15T09:11:07Z</time>
      </trkpt>
      <trkpt lat="43.83739" lon="6.97971">
        <ele>1343.2</ele>
        <time>2025-03-15T09:11:07Z</time>
      </trkpt>
      <trkpt lat="43.83745" lon="6.98007">
        <ele>1341.1</ele>
        <time>2025-03-15T09:11:07Z</time>
      </trkpt>
      <trkpt lat="43.83732" lon="6.98041">
        <ele>1339.2</ele>
        <time>2025-03-15T09:11:07Z</time>
      </trkpt>
      <trkpt lat="43.83749" lon="6.98056">
        <ele>1335.4</ele>
        <time>2025-03-15T09:11:07Z</time>
      </trkpt>
      <trkpt lat="43.83757" lon="6.98064">
        <ele>1332.7</ele>
        <time>2025-03-15T09:11:07Z</time>
      </trkpt>
      <trkpt lat="43.83738" lon="6.98091">
        <ele>1329.2</ele>
        <time>2025-03-15T09:11:07Z</time>
      </trkpt>
      <trkpt lat="43.83723" lon="6.98112">
        <ele>1323.1</ele>
        <time>2025-03-15T09:11:07Z</time>
      </trkpt>
      <trkpt lat="43.83728" lon="6.98119">
        <ele>1321</ele>
        <time>2025-03-15T09:11:07Z</time>
      </trkpt>
      <trkpt lat="43.8375" lon="6.9812">
        <ele>1321.4</ele>
        <time>2025-03-15T09:11:07Z</time>
      </trkpt>
      <trkpt lat="43.83757" lon="6.98126">
        <ele>1318.5</ele>
        <time>2025-03-15T09:11:07Z</time>
      </trkpt>
      <trkpt lat="43.83747" lon="6.98137">
        <ele>1316.9</ele>
        <time>2025-03-15T09:11:07Z</time>
      </trkpt>
      <trkpt lat="43.83729" lon="6.98157">
        <ele>1309.8</ele>
        <time>2025-03-15T09:11:07Z</time>
      </trkpt>
      <trkpt lat="43.83711" lon="6.98159">
        <ele>1307.1</ele>
        <time>2025-03-15T09:11:07Z</time>
      </trkpt>
      <trkpt lat="43.8372" lon="6.98174">
        <ele>1303.9</ele>
        <time>2025-03-15T09:11:07Z</time>
      </trkpt>
      <trkpt lat="43.83735" lon="6.98192">
        <ele>1301.1</ele>
        <time>2025-03-15T09:11:07Z</time>
      </trkpt>
      <trkpt lat="43.83724" lon="6.98194">
        <ele>1299.5</ele>
        <time>2025-03-15T09:11:07Z</time>
      </trkpt>
      <trkpt lat="43.83713" lon="6.98202">
        <ele>1295.8</ele>
        <time>2025-03-15T09:11:07Z</time>
      </trkpt>
      <trkpt lat="43.83726" lon="6.98217">
        <ele>1293</ele>
        <time>2025-03-15T09:11:07Z</time>
      </trkpt>
      <trkpt lat="43.83723" lon="6.98223">
        <ele>1291.4</ele>
        <time>2025-03-15T09:11:07Z</time>
      </trkpt>
      <trkpt lat="43.83707" lon="6.98231">
        <ele>1286.4</ele>
        <time>2025-03-15T09:11:07Z</time>
      </trkpt>
      <trkpt lat="43.83726" lon="6.98251">
        <ele>1285.8</ele>
        <time>2025-03-15T09:11:07Z</time>
      </trkpt>
      <trkpt lat="43.83714" lon="6.9827">
        <ele>1280.3</ele>
        <time>2025-03-15T09:11:07Z</time>
      </trkpt>
      <trkpt lat="43.83725" lon="6.98286">
        <ele>1277.4</ele>
        <time>2025-03-15T09:11:07Z</time>
      </trkpt>
      <trkpt lat="43.83745" lon="6.98293">
        <ele>1273.7</ele>
        <time>2025-03-15T09:11:07Z</time>
      </trkpt>
      <trkpt lat="43.83753" lon="6.9831">
        <ele>1267.9</ele>
        <time>2025-03-15T09:11:07Z</time>
      </trkpt>
      <trkpt lat="43.83752" lon="6.9833">
        <ele>1264.2</ele>
        <time>2025-03-15T09:11:07Z</time>
      </trkpt>
      <trkpt lat="43.83737" lon="6.98371">
        <ele>1255.4</ele>
        <time>2025-03-15T09:11:07Z</time>
      </trkpt>
      <trkpt lat="43.83754" lon="6.9837">
        <ele>1253.9</ele>
        <time>2025-03-15T09:11:07Z</time>
      </trkpt>
      <trkpt lat="43.83761" lon="6.98371">
        <ele>1252.3</ele>
        <time>2025-03-15T09:11:07Z</time>
      </trkpt>
      <trkpt lat="43.83753" lon="6.98394">
        <ele>1249.3</ele>
        <time>2025-03-15T09:11:07Z</time>
      </trkpt>
      <trkpt lat="43.83743" lon="6.98414">
        <ele>1245.5</ele>
        <time>2025-03-15T09:11:07Z</time>
      </trkpt>
      <trkpt lat="43.83765" lon="6.9841">
        <ele>1243.3</ele>
        <time>2025-03-15T09:11:07Z</time>
      </trkpt>
      <trkpt lat="43.83777" lon="6.98409">
        <ele>1240.9</ele>
        <time>2025-03-15T09:11:07Z</time>
      </trkpt>
      <trkpt lat="43.83756" lon="6.98456">
        <ele>1235.3</ele>
        <time>2025-03-15T09:11:07Z</time>
      </trkpt>
      <trkpt lat="43.83772" lon="6.9845">
        <ele>1234.8</ele>
        <time>2025-03-15T09:11:07Z</time>
      </trkpt>
      <trkpt lat="43.83788" lon="6.98447">
        <ele>1231.9</ele>
        <time>2025-03-15T09:11:07Z</time>
      </trkpt>
      <trkpt lat="43.83801" lon="6.98447">
        <ele>1229.6</ele>
        <time>2025-03-15T09:11:07Z</time>
      </trkpt>
      <trkpt lat="43.838" lon="6.98468">
        <ele>1226.3</ele>
        <time>2025-03-15T09:11:07Z</time>
      </trkpt>
      <trkpt lat="43.83794" lon="6.98492">
        <ele>1223.5</ele>
        <time>2025-03-15T09:11:07Z</time>
      </trkpt>
      <trkpt lat="43.83779" lon="6.98527">
        <ele>1216.4</ele>
        <time>2025-03-15T09:11:07Z</time>
      </trkpt>
      <trkpt lat="43.83835" lon="6.98516">
        <ele>1213.9</ele>
        <time>2025-03-15T09:11:07Z</time>
      </trkpt>
      <trkpt lat="43.83846" lon="6.98542">
        <ele>1208.5</ele>
        <time>2025-03-15T09:11:07Z</time>
      </trkpt>
      <trkpt lat="43.83857" lon="6.98556">
        <ele>1205.9</ele>
        <time>2025-03-15T09:11:07Z</time>
      </trkpt>
      <trkpt lat="43.8387" lon="6.98554">
        <ele>1206.2</ele>
        <time>2025-03-15T09:11:07Z</time>
      </trkpt>
      <trkpt lat="43.83881" lon="6.98567">
        <ele>1204.6</ele>
        <time>2025-03-15T09:11:07Z</time>
      </trkpt>
      <trkpt lat="43.839" lon="6.98596">
        <ele>1199.2</ele>
        <time>2025-03-15T09:11:07Z</time>
      </trkpt>
      <trkpt lat="43.83886" lon="6.98596">
        <ele>1200.1</ele>
        <time>2025-03-15T09:11:07Z</time>
      </trkpt>
      <trkpt lat="43.83883" lon="6.98619">
        <ele>1195.9</ele>
        <time>2025-03-15T09:11:07Z</time>
      </trkpt>
      <trkpt lat="43.83871" lon="6.98637">
        <ele>1189.4</ele>
        <time>2025-03-15T09:11:07Z</time>
      </trkpt>
      <trkpt lat="43.83837" lon="6.98666">
        <ele>1175.6</ele>
        <time>2025-03-15T09:11:07Z</time>
      </trkpt>
      <trkpt lat="43.83793" lon="6.98666">
        <ele>1176.7</ele>
        <time>2025-03-15T09:11:07Z</time>
      </trkpt>
      <trkpt lat="43.83788" lon="6.98676">
        <ele>1177.4</ele>
        <time>2025-03-15T09:11:07Z</time>
      </trkpt>
      <trkpt lat="43.83805" lon="6.98698">
        <ele>1174.3</ele>
        <time>2025-03-15T09:11:07Z</time>
      </trkpt>
      <trkpt lat="43.83821" lon="6.98723">
        <ele>1172.6</ele>
        <time>2025-03-15T09:11:07Z</time>
      </trkpt>
      <trkpt lat="43.8383" lon="6.98742">
        <ele>1172.6</ele>
        <time>2025-03-15T09:11:07Z</time>
      </trkpt>
      <trkpt lat="43.83829" lon="6.98756">
        <ele>1174.3</ele>
        <time>2025-03-15T09:11:07Z</time>
      </trkpt>
      <trkpt lat="43.83828" lon="6.98769">
        <ele>1176.9</ele>
        <time>2025-03-15T09:11:07Z</time>
      </trkpt>
      <trkpt lat="43.83827" lon="6.98778">
        <ele>1178.3</ele>
        <time>2025-03-15T09:11:07Z</time>
      </trkpt>
      <trkpt lat="43.83824" lon="6.98789">
        <ele>1179</ele>
        <time>2025-03-15T09:11:07Z</time>
      </trkpt>
      <trkpt lat="43.83811" lon="6.98806">
        <ele>1182.9</ele>
        <time>2025-03-15T09:11:07Z</time>
      </trkpt>
      <trkpt lat="43.83786" lon="6.98832">
        <ele>1188.8</ele>
        <time>2025-03-15T09:11:07Z</time>
      </trkpt>
      <trkpt lat="43.83772" lon="6.9885">
        <ele>1196.1</ele>
        <time>2025-03-15T09:11:07Z</time>
      </trkpt>
      <trkpt lat="43.83775" lon="6.98873">
        <ele>1196.1</ele>
        <time>2025-03-15T09:11:07Z</time>
      </trkpt>
      <trkpt lat="43.83787" lon="6.98896">
        <ele>1193.2</ele>
        <time>2025-03-15T09:11:07Z</time>
      </trkpt>
      <trkpt lat="43.83798" lon="6.98912">
        <ele>1192.4</ele>
        <time>2025-03-15T09:11:07Z</time>
      </trkpt>
      <trkpt lat="43.83814" lon="6.98938">
        <ele>1191.1</ele>
        <time>2025-03-15T09:11:07Z</time>
      </trkpt>
      <trkpt lat="43.83829" lon="6.98983">
        <ele>1188.4</ele>
        <time>2025-03-15T09:11:07Z</time>
      </trkpt>
      <trkpt lat="43.83839" lon="6.99023">
        <ele>1184.6</ele>
        <time>2025-03-15T09:11:07Z</time>
      </trkpt>
      <trkpt lat="43.83836" lon="6.99024">
        <ele>1186.6</ele>
        <time>2025-03-15T09:11:07Z</time>
      </trkpt>
      <trkpt lat="43.83835" lon="6.99036">
        <ele>1185.1</ele>
        <time>2025-03-15T09:11:07Z</time>
      </trkpt>
      <trkpt lat="43.83824" lon="6.99076">
        <ele>1186</ele>
        <time>2025-03-15T09:11:07Z</time>
      </trkpt>
      <trkpt lat="43.8381" lon="6.99104">
        <ele>1189.7</ele>
        <time>2025-03-15T09:11:07Z</time>
      </trkpt>
      <trkpt lat="43.83786" lon="6.9915">
        <ele>1193.1</ele>
        <time>2025-03-15T09:11:07Z</time>
      </trkpt>
      <trkpt lat="43.83781" lon="6.99163">
        <ele>1192.3</ele>
        <time>2025-03-15T09:11:07Z</time>
      </trkpt>
      <trkpt lat="43.83771" lon="6.99173">
        <ele>1193.5</ele>
        <time>2025-03-15T09:11:07Z</time>
      </trkpt>
      <trkpt lat="43.83757" lon="6.99181">
        <ele>1195.9</ele>
        <time>2025-03-15T09:11:07Z</time>
      </trkpt>
      <trkpt lat="43.83743" lon="6.99185">
        <ele>1197.2</ele>
        <time>2025-03-15T09:11:07Z</time>
      </trkpt>
      <trkpt lat="43.83732" lon="6.99187">
        <ele>1197.6</ele>
        <time>2025-03-15T09:11:07Z</time>
      </trkpt>
      <trkpt lat="43.83717" lon="6.99195">
        <ele>1198.5</ele>
        <time>2025-03-15T09:11:07Z</time>
      </trkpt>
      <trkpt lat="43.83703" lon="6.992">
        <ele>1201.5</ele>
        <time>2025-03-15T09:11:07Z</time>
      </trkpt>
      <trkpt lat="43.83691" lon="6.99199">
        <ele>1203.1</ele>
        <time>2025-03-15T09:11:07Z</time>
      </trkpt>
      <trkpt lat="43.83683" lon="6.99197">
        <ele>1205.8</ele>
        <time>2025-03-15T09:11:07Z</time>
      </trkpt>
      <trkpt lat="43.83675" lon="6.99207">
        <ele>1205</ele>
        <time>2025-03-15T09:11:07Z</time>
      </trkpt>
      <trkpt lat="43.83657" lon="6.99218">
        <ele>1205.9</ele>
        <time>2025-03-15T09:11:07Z</time>
      </trkpt>
      <trkpt lat="43.83641" lon="6.99226">
        <ele>1207.2</ele>
        <time>2025-03-15T09:11:07Z</time>
      </trkpt>
      <trkpt lat="43.83629" lon="6.99228">
        <ele>1209.2</ele>
        <time>2025-03-15T09:11:07Z</time>
      </trkpt>
      <trkpt lat="43.83605" lon="6.99228">
        <ele>1212.5</ele>
        <time>2025-03-15T09:11:07Z</time>
      </trkpt>
      <trkpt lat="43.83584" lon="6.99227">
        <ele>1214.3</ele>
        <time>2025-03-15T09:11:07Z</time>
      </trkpt>
      <trkpt lat="43.83565" lon="6.99225">
        <ele>1216.7</ele>
        <time>2025-03-15T09:11:07Z</time>
      </trkpt>
      <trkpt lat="43.83552" lon="6.99225">
        <ele>1218.6</ele>
        <time>2025-03-15T09:11:07Z</time>
      </trkpt>
      <trkpt lat="43.83539" lon="6.99227">
        <ele>1221.5</ele>
        <time>2025-03-15T09:11:07Z</time>
      </trkpt>
      <trkpt lat="43.8353" lon="6.9923">
        <ele>1223</ele>
        <time>2025-03-15T09:11:07Z</time>
      </trkpt>
      <trkpt lat="43.83522" lon="6.99238">
        <ele>1223.5</ele>
        <time>2025-03-15T09:11:07Z</time>
      </trkpt>
      <trkpt lat="43.83511" lon="6.99247">
        <ele>1223.3</ele>
        <time>2025-03-15T09:11:07Z</time>
      </trkpt>
      <trkpt lat="43.83491" lon="6.99253">
        <ele>1225.7</ele>
        <time>2025-03-15T09:11:07Z</time>
      </trkpt>
      <trkpt lat="43.83476" lon="6.99258">
        <ele>1227.6</ele>
        <time>2025-03-15T09:11:07Z</time>
      </trkpt>
      <trkpt lat="43.83449" lon="6.99266">
        <ele>1231.1</ele>
        <time>2025-03-15T09:11:07Z</time>
      </trkpt>
      <trkpt lat="43.83414" lon="6.99286">
        <ele>1234.3</ele>
        <time>2025-03-15T09:11:07Z</time>
      </trkpt>
      <trkpt lat="43.83402" lon="6.99301">
        <ele>1235</ele>
        <time>2025-03-15T09:11:07Z</time>
      </trkpt>
      <trkpt lat="43.83398" lon="6.99303">
        <ele>1235.7</ele>
        <time>2025-03-15T09:11:07Z</time>
      </trkpt>
      <trkpt lat="43.83398" lon="6.99295">
        <ele>1237.2</ele>
        <time>2025-03-15T09:11:07Z</time>
      </trkpt>
      <trkpt lat="43.83401" lon="6.99287">
        <ele>1237.8</ele>
        <time>2025-03-15T09:11:07Z</time>
      </trkpt>
      <trkpt lat="43.83419" lon="6.99261">
        <ele>1238.4</ele>
        <time>2025-03-15T09:11:07Z</time>
      </trkpt>
      <trkpt lat="43.83448" lon="6.99217">
        <ele>1242.7</ele>
        <time>2025-03-15T09:11:07Z</time>
      </trkpt>
      <trkpt lat="43.8347" lon="6.99197">
        <ele>1245.5</ele>
        <time>2025-03-15T09:11:07Z</time>
      </trkpt>
      <trkpt lat="43.83489" lon="6.99173">
        <ele>1247.2</ele>
        <time>2025-03-15T09:11:07Z</time>
      </trkpt>
      <trkpt lat="43.83501" lon="6.99148">
        <ele>1249.9</ele>
        <time>2025-03-15T09:11:07Z</time>
      </trkpt>
      <trkpt lat="43.83507" lon="6.99139">
        <ele>1249.7</ele>
        <time>2025-03-15T09:11:07Z</time>
      </trkpt>
      <trkpt lat="43.83507" lon="6.99133">
        <ele>1251.2</ele>
        <time>2025-03-15T09:11:07Z</time>
      </trkpt>
      <trkpt lat="43.83504" lon="6.99129">
        <ele>1252.8</ele>
        <time>2025-03-15T09:11:07Z</time>
      </trkpt>
      <trkpt lat="43.83495" lon="6.99112">
        <ele>1257.6</ele>
        <time>2025-03-15T09:11:07Z</time>
      </trkpt>
      <trkpt lat="43.83494" lon="6.99106">
        <ele>1258.1</ele>
        <time>2025-03-15T09:11:07Z</time>
      </trkpt>
      <trkpt lat="43.83494" lon="6.991">
        <ele>1258.5</ele>
        <time>2025-03-15T09:11:07Z</time>
      </trkpt>
      <trkpt lat="43.83494" lon="6.99095">
        <ele>1259</ele>
        <time>2025-03-15T09:11:07Z</time>
      </trkpt>
      <trkpt lat="43.83497" lon="6.99089">
        <ele>1259.3</ele>
        <time>2025-03-15T09:11:07Z</time>
      </trkpt>
      <trkpt lat="43.83504" lon="6.99081">
        <ele>1259.3</ele>
        <time>2025-03-15T09:11:07Z</time>
      </trkpt>
      <trkpt lat="43.83513" lon="6.99073">
        <ele>1259.3</ele>
        <time>2025-03-15T09:11:07Z</time>
      </trkpt>
      <trkpt lat="43.8352" lon="6.99062">
        <ele>1259.1</ele>
        <time>2025-03-15T09:11:07Z</time>
      </trkpt>
      <trkpt lat="43.83529" lon="6.99031">
        <ele>1261.8</ele>
        <time>2025-03-15T09:11:07Z</time>
      </trkpt>
      <trkpt lat="43.83534" lon="6.98995">
        <ele>1264.9</ele>
        <time>2025-03-15T09:11:07Z</time>
      </trkpt>
      <trkpt lat="43.83534" lon="6.98984">
        <ele>1265.3</ele>
        <time>2025-03-15T09:11:07Z</time>
      </trkpt>
      <trkpt lat="43.8353" lon="6.98977">
        <ele>1265.9</ele>
        <time>2025-03-15T09:11:07Z</time>
      </trkpt>
      <trkpt lat="43.83507" lon="6.98962">
        <ele>1268.9</ele>
        <time>2025-03-15T09:11:07Z</time>
      </trkpt>
      <trkpt lat="43.83486" lon="6.98954">
        <ele>1273</ele>
        <time>2025-03-15T09:11:07Z</time>
      </trkpt>
      <trkpt lat="43.83478" lon="6.98957">
        <ele>1274.2</ele>
        <time>2025-03-15T09:11:07Z</time>
      </trkpt>
      <trkpt lat="43.83456" lon="6.9897">
        <ele>1276.7</ele>
        <time>2025-03-15T09:11:07Z</time>
      </trkpt>
      <trkpt lat="43.83439" lon="6.98982">
        <ele>1277.9</ele>
        <time>2025-03-15T09:11:07Z</time>
      </trkpt>
      <trkpt lat="43.83411" lon="6.98988">
        <ele>1280.8</ele>
        <time>2025-03-15T09:11:07Z</time>
      </trkpt>
      <trkpt lat="43.83391" lon="6.98999">
        <ele>1282</ele>
        <time>2025-03-15T09:11:07Z</time>
      </trkpt>
      <trkpt lat="43.83377" lon="6.99013">
        <ele>1284.5</ele>
        <time>2025-03-15T09:11:07Z</time>
      </trkpt>
      <trkpt lat="43.83364" lon="6.99023">
        <ele>1286.8</ele>
        <time>2025-03-15T09:11:07Z</time>
      </trkpt>
      <trkpt lat="43.8335" lon="6.99028">
        <ele>1289.5</ele>
        <time>2025-03-15T09:11:07Z</time>
      </trkpt>
      <trkpt lat="43.83327" lon="6.99026">
        <ele>1296.7</ele>
        <time>2025-03-15T09:11:07Z</time>
      </trkpt>
      <trkpt lat="43.83318" lon="6.99023">
        <ele>1299.2</ele>
        <time>2025-03-15T09:11:07Z</time>
      </trkpt>
      <trkpt lat="43.83309" lon="6.99023">
        <ele>1301.1</ele>
        <time>2025-03-15T09:11:07Z</time>
      </trkpt>
      <trkpt lat="43.83301" lon="6.99026">
        <ele>1302.6</ele>
        <time>2025-03-15T09:11:07Z</time>
      </trkpt>
      <trkpt lat="43.83294" lon="6.99031">
        <ele>1304</ele>
        <time>2025-03-15T09:11:07Z</time>
      </trkpt>
      <trkpt lat="43.83286" lon="6.99037">
        <ele>1305.6</ele>
        <time>2025-03-15T09:11:07Z</time>
      </trkpt>
      <trkpt lat="43.83283" lon="6.99048">
        <ele>1306.2</ele>
        <time>2025-03-15T09:11:07Z</time>
      </trkpt>
      <trkpt lat="43.83281" lon="6.99056">
        <ele>1305.9</ele>
        <time>2025-03-15T09:11:07Z</time>
      </trkpt>
      <trkpt lat="43.83282" lon="6.99076">
        <ele>1304.7</ele>
        <time>2025-03-15T09:11:07Z</time>
      </trkpt>
      <trkpt lat="43.83282" lon="6.99089">
        <ele>1303.5</ele>
        <time>2025-03-15T09:11:07Z</time>
      </trkpt>
      <trkpt lat="43.83279" lon="6.99093">
        <ele>1303</ele>
        <time>2025-03-15T09:11:07Z</time>
      </trkpt>
      <trkpt lat="43.83272" lon="6.9909">
        <ele>1305.1</ele>
        <time>2025-03-15T09:11:07Z</time>
      </trkpt>
      <trkpt lat="43.83256" lon="6.99078">
        <ele>1310.4</ele>
        <time>2025-03-15T09:11:07Z</time>
      </trkpt>
      <trkpt lat="43.83245" lon="6.99017">
        <ele>1318.1</ele>
        <time>2025-03-15T09:11:07Z</time>
      </trkpt>
      <trkpt lat="43.83214" lon="6.98993">
        <ele>1331.3</ele>
        <time>2025-03-15T09:11:07Z</time>
      </trkpt>
      <trkpt lat="43.83211" lon="6.98992">
        <ele>1331.7</ele>
        <time>2025-03-15T09:11:07Z</time>
      </trkpt>
      <trkpt lat="43.83215" lon="6.98973">
        <ele>1332</ele>
        <time>2025-03-15T09:11:07Z</time>
      </trkpt>
      <trkpt lat="43.83208" lon="6.98934">
        <ele>1338.2</ele>
        <time>2025-03-15T09:11:07Z</time>
      </trkpt>
      <trkpt lat="43.832" lon="6.98933">
        <ele>1340.6</ele>
        <time>2025-03-15T09:11:07Z</time>
      </trkpt>
      <trkpt lat="43.83194" lon="6.98902">
        <ele>1344.5</ele>
        <time>2025-03-15T09:11:07Z</time>
      </trkpt>
      <trkpt lat="43.83193" lon="6.98896">
        <ele>1346.1</ele>
        <time>2025-03-15T09:11:07Z</time>
      </trkpt>
      <trkpt lat="43.83194" lon="6.98886">
        <ele>1345.3</ele>
        <time>2025-03-15T09:11:07Z</time>
      </trkpt>
      <trkpt lat="43.83173" lon="6.98858">
        <ele>1353.5</ele>
        <time>2025-03-15T09:11:07Z</time>
      </trkpt>
      <trkpt lat="43.83167" lon="6.98841">
        <ele>1356.9</ele>
        <time>2025-03-15T09:11:07Z</time>
      </trkpt>
      <trkpt lat="43.83159" lon="6.98862">
        <ele>1357.6</ele>
        <time>2025-03-15T09:11:07Z</time>
      </trkpt>
      <trkpt lat="43.83125" lon="6.98869">
        <ele>1368.9</ele>
        <time>2025-03-15T09:11:07Z</time>
      </trkpt>
      <trkpt lat="43.83108" lon="6.9887">
        <ele>1375</ele>
        <time>2025-03-15T09:11:07Z</time>
      </trkpt>
      <trkpt lat="43.83117" lon="6.98849">
        <ele>1372.4</ele>
        <time>2025-03-15T09:11:07Z</time>
      </trkpt>
      <trkpt lat="43.83117" lon="6.98824">
        <ele>1373</ele>
        <time>2025-03-15T09:11:07Z</time>
      </trkpt>
      <trkpt lat="43.83109" lon="6.98795">
        <ele>1376.4</ele>
        <time>2025-03-15T09:11:07Z</time>
      </trkpt>
      <trkpt lat="43.83113" lon="6.98736">
        <ele>1377.3</ele>
        <time>2025-03-15T09:11:07Z</time>
      </trkpt>
      <trkpt lat="43.83126" lon="6.98711">
        <ele>1375.2</ele>
        <time>2025-03-15T09:11:07Z</time>
      </trkpt>
      <trkpt lat="43.83134" lon="6.98677">
        <ele>1376.5</ele>
        <time>2025-03-15T09:11:07Z</time>
      </trkpt>
      <trkpt lat="43.83139" lon="6.98657">
        <ele>1378.4</ele>
        <time>2025-03-15T09:11:07Z</time>
      </trkpt>
      <trkpt lat="43.8314" lon="6.98648">
        <ele>1379.8</ele>
        <time>2025-03-15T09:11:07Z</time>
      </trkpt>
      <trkpt lat="43.83147" lon="6.98644">
        <ele>1377.7</ele>
        <time>2025-03-15T09:11:07Z</time>
      </trkpt>
      <trkpt lat="43.83152" lon="6.98617">
        <ele>1380.7</ele>
        <time>2025-03-15T09:11:07Z</time>
      </trkpt>
      <trkpt lat="43.83159" lon="6.986">
        <ele>1380.6</ele>
        <time>2025-03-15T09:11:07Z</time>
      </trkpt>
      <trkpt lat="43.83174" lon="6.98586">
        <ele>1378.3</ele>
        <time>2025-03-15T09:11:07Z</time>
      </trkpt>
      <trkpt lat="43.83176" lon="6.98563">
        <ele>1380.2</ele>
        <time>2025-03-15T09:11:07Z</time>
      </trkpt>
      <trkpt lat="43.83187" lon="6.98541">
        <ele>1379.4</ele>
        <time>2025-03-15T09:11:07Z</time>
      </trkpt>
      <trkpt lat="43.83204" lon="6.98491">
        <ele>1377.4</ele>
        <time>2025-03-15T09:11:07Z</time>
      </trkpt>
      <trkpt lat="43.83218" lon="6.98451">
        <ele>1376.6</ele>
        <time>2025-03-15T09:11:07Z</time>
      </trkpt>
      <trkpt lat="43.83232" lon="6.98428">
        <ele>1372.6</ele>
        <time>2025-03-15T09:11:07Z</time>
      </trkpt>
      <trkpt lat="43.83238" lon="6.98401">
        <ele>1373</ele>
        <time>2025-03-15T09:11:07Z</time>
      </trkpt>
      <trkpt lat="43.8324" lon="6.98394">
        <ele>1373.7</ele>
        <time>2025-03-15T09:11:07Z</time>
      </trkpt>
      <trkpt lat="43.83242" lon="6.98387">
        <ele>1373.1</ele>
        <time>2025-03-15T09:11:07Z</time>
      </trkpt>
      <trkpt lat="43.83244" lon="6.98374">
        <ele>1374</ele>
        <time>2025-03-15T09:11:07Z</time>
      </trkpt>
      <trkpt lat="43.83244" lon="6.98368">
        <ele>1374.2</ele>
        <time>2025-03-15T09:11:07Z</time>
      </trkpt>
      <trkpt lat="43.83244" lon="6.98357">
        <ele>1374.7</ele>
        <time>2025-03-15T09:11:07Z</time>
      </trkpt>
      <trkpt lat="43.83246" lon="6.98345">
        <ele>1373.5</ele>
        <time>2025-03-15T09:11:07Z</time>
      </trkpt>
      <trkpt lat="43.83244" lon="6.98336">
        <ele>1374.9</ele>
        <time>2025-03-15T09:11:07Z</time>
      </trkpt>
      <trkpt lat="43.83242" lon="6.98326">
        <ele>1374.8</ele>
        <time>2025-03-15T09:11:07Z</time>
      </trkpt>
      <trkpt lat="43.83236" lon="6.98309">
        <ele>1375.9</ele>
        <time>2025-03-15T09:11:07Z</time>
      </trkpt>
      <trkpt lat="43.83239" lon="6.98286">
        <ele>1375.6</ele>
        <time>2025-03-15T09:11:07Z</time>
      </trkpt>
      <trkpt lat="43.83239" lon="6.98263">
        <ele>1375.6</ele>
        <time>2025-03-15T09:11:07Z</time>
      </trkpt>
      <trkpt lat="43.83243" lon="6.98239">
        <ele>1374.6</ele>
        <time>2025-03-15T09:11:07Z</time>
      </trkpt>
      <trkpt lat="43.83246" lon="6.98212">
        <ele>1374</ele>
        <time>2025-03-15T09:11:07Z</time>
      </trkpt>
      <trkpt lat="43.83233" lon="6.98187">
        <ele>1379.2</ele>
        <time>2025-03-15T09:11:07Z</time>
      </trkpt>
      <trkpt lat="43.83234" lon="6.98174">
        <ele>1380.6</ele>
        <time>2025-03-15T09:11:07Z</time>
      </trkpt>
      <trkpt lat="43.83244" lon="6.9817">
        <ele>1379.2</ele>
        <time>2025-03-15T09:11:07Z</time>
      </trkpt>
      <trkpt lat="43.83256" lon="6.98159">
        <ele>1378.8</ele>
        <time>2025-03-15T09:11:07Z</time>
      </trkpt>
      <trkpt lat="43.83263" lon="6.98145">
        <ele>1380</ele>
        <time>2025-03-15T09:11:07Z</time>
      </trkpt>
      <trkpt lat="43.83276" lon="6.9813">
        <ele>1381.3</ele>
        <time>2025-03-15T09:11:07Z</time>
      </trkpt>
      <trkpt lat="43.83286" lon="6.98125">
        <ele>1382.7</ele>
        <time>2025-03-15T09:11:07Z</time>
      </trkpt>
      <trkpt lat="43.83301" lon="6.98124">
        <ele>1380.4</ele>
        <time>2025-03-15T09:11:07Z</time>
      </trkpt>
      <trkpt lat="43.8333" lon="6.98122">
        <ele>1376.8</ele>
        <time>2025-03-15T09:11:07Z</time>
      </trkpt>
      <trkpt lat="43.83344" lon="6.98121">
        <ele>1376.2</ele>
        <time>2025-03-15T09:11:07Z</time>
      </trkpt>
      <trkpt lat="43.83357" lon="6.98118">
        <ele>1375</ele>
        <time>2025-03-15T09:11:07Z</time>
      </trkpt>
      <trkpt lat="43.83371" lon="6.98108">
        <ele>1377.5</ele>
        <time>2025-03-15T09:11:07Z</time>
      </trkpt>
      <trkpt lat="43.83383" lon="6.98095">
        <ele>1379</ele>
        <time>2025-03-15T09:11:07Z</time>
      </trkpt>
      <trkpt lat="43.83391" lon="6.98081">
        <ele>1380.2</ele>
        <time>2025-03-15T09:11:07Z</time>
      </trkpt>
      <trkpt lat="43.83398" lon="6.9807">
        <ele>1380.9</ele>
        <time>2025-03-15T09:11:07Z</time>
      </trkpt>
      <trkpt lat="43.83401" lon="6.98055">
        <ele>1382.6</ele>
        <time>2025-03-15T09:11:07Z</time>
      </trkpt>
      <trkpt lat="43.83404" lon="6.98043">
        <ele>1383.3</ele>
        <time>2025-03-15T09:11:07Z</time>
      </trkpt>
      <trkpt lat="43.83416" lon="6.98031">
        <ele>1382</ele>
        <time>2025-03-15T09:11:07Z</time>
      </trkpt>
      <trkpt lat="43.83427" lon="6.98016">
        <ele>1380.3</ele>
        <time>2025-03-15T09:11:07Z</time>
      </trkpt>
      <trkpt lat="43.83436" lon="6.97996">
        <ele>1379.7</ele>
        <time>2025-03-15T09:11:07Z</time>
      </trkpt>
      <trkpt lat="43.83437" lon="6.97979">
        <ele>1380.2</ele>
        <time>2025-03-15T09:11:07Z</time>
      </trkpt>
      <trkpt lat="43.83436" lon="6.97964">
        <ele>1380.5</ele>
        <time>2025-03-15T09:11:07Z</time>
      </trkpt>
      <trkpt lat="43.8344" lon="6.97939">
        <ele>1380.6</ele>
        <time>2025-03-15T09:11:07Z</time>
      </trkpt>
      <trkpt lat="43.83415" lon="6.97897">
        <ele>1389.9</ele>
        <time>2025-03-15T09:11:07Z</time>
      </trkpt>
      <trkpt lat="43.83425" lon="6.9789">
        <ele>1388.9</ele>
        <time>2025-03-15T09:11:07Z</time>
      </trkpt>
      <trkpt lat="43.83452" lon="6.97902">
        <ele>1384.5</ele>
        <time>2025-03-15T09:11:07Z</time>
      </trkpt>
      <trkpt lat="43.83481" lon="6.97918">
        <ele>1377.2</ele>
        <time>2025-03-15T09:11:07Z</time>
      </trkpt>
      <trkpt lat="43.83505" lon="6.97918">
        <ele>1374.3</ele>
        <time>2025-03-15T09:11:07Z</time>
      </trkpt>
      <trkpt lat="43.83527" lon="6.97907">
        <ele>1374.1</ele>
        <time>2025-03-15T09:11:07Z</time>
      </trkpt>
      <trkpt lat="43.83553" lon="6.97914">
        <ele>1369.4</ele>
        <time>2025-03-15T09:11:07Z</time>
      </trkpt>
      <trkpt lat="43.83566" lon="6.97927">
        <ele>1364.7</ele>
        <time>2025-03-15T09:11:07Z</time>
      </trkpt>
      <trkpt lat="43.83578" lon="6.97915">
        <ele>1368.9</ele>
        <time>2025-03-15T09:11:07Z</time>
      </trkpt>
      <trkpt lat="43.83603" lon="6.97921">
        <ele>1364.5</ele>
        <time>2025-03-15T09:11:07Z</time>
      </trkpt>
      <trkpt lat="43.83632" lon="6.97921">
        <ele>1364.2</ele>
        <time>2025-03-15T09:11:07Z</time>
      </trkpt>
      <trkpt lat="43.83656" lon="6.97921">
        <ele>1363</ele>
        <time>2025-03-15T09:11:07Z</time>
      </trkpt>
      <trkpt lat="43.83678" lon="6.97935">
        <ele>1358.5</ele>
        <time>2025-03-15T09:11:07Z</time>
      </trkpt>
      <trkpt lat="43.83699" lon="6.9795">
        <ele>1353.6</ele>
        <time>2025-03-15T09:11:07Z</time>
      </trkpt>
      <trkpt lat="43.83711" lon="6.97946">
        <ele>1352.2</ele>
        <time>2025-03-15T09:11:07Z</time>
      </trkpt>
      <trkpt lat="43.8372" lon="6.97924">
        <ele>1352.8</ele>
        <time>2025-03-15T09:11:07Z</time>
      </trkpt>
      <trkpt lat="43.83734" lon="6.9792">
        <ele>1348.6</ele>
        <time>2025-03-15T09:11:07Z</time>
      </trkpt>
      <trkpt lat="43.83766" lon="6.97944">
        <ele>1338.1</ele>
        <time>2025-03-15T09:11:07Z</time>
      </trkpt>
      <trkpt lat="43.83794" lon="6.97953">
        <ele>1329.2</ele>
        <time>2025-03-15T09:11:07Z</time>
      </trkpt>
      <trkpt lat="43.83802" lon="6.97952">
        <ele>1327.7</ele>
        <time>2025-03-15T09:11:07Z</time>
      </trkpt>
      <trkpt lat="43.83848" lon="6.97933">
        <ele>1307.9</ele>
        <time>2025-03-15T09:11:07Z</time>
      </trkpt>
      <trkpt lat="43.83844" lon="6.97942">
        <ele>1308.5</ele>
        <time>2025-03-15T09:11:07Z</time>
      </trkpt>
      <trkpt lat="43.83866" lon="6.97934">
        <ele>1298</ele>
        <time>2025-03-15T09:11:07Z</time>
      </trkpt>
      <trkpt lat="43.83869" lon="6.97946">
        <ele>1293.6</ele>
        <time>2025-03-15T09:11:07Z</time>
      </trkpt>
      <trkpt lat="43.83876" lon="6.9795">
        <ele>1289.1</ele>
        <time>2025-03-15T09:11:07Z</time>
      </trkpt>
      <trkpt lat="43.83884" lon="6.97948">
        <ele>1285.8</ele>
        <time>2025-03-15T09:11:07Z</time>
      </trkpt>
      <trkpt lat="43.83884" lon="6.97958">
        <ele>1284.1</ele>
        <time>2025-03-15T09:11:07Z</time>
      </trkpt>
      <trkpt lat="43.8389" lon="6.97963">
        <ele>1282</ele>
        <time>2025-03-15T09:11:07Z</time>
      </trkpt>
      <trkpt lat="43.83895" lon="6.97961">
        <ele>1280.7</ele>
        <time>2025-03-15T09:11:07Z</time>
      </trkpt>
      <trkpt lat="43.83902" lon="6.97962">
        <ele>1277.3</ele>
        <time>2025-03-15T09:11:07Z</time>
      </trkpt>
      <trkpt lat="43.83914" lon="6.97964">
        <ele>1272</ele>
        <time>2025-03-15T09:11:07Z</time>
      </trkpt>
      <trkpt lat="43.83937" lon="6.97967">
        <ele>1262.9</ele>
        <time>2025-03-15T09:11:07Z</time>
      </trkpt>
      <trkpt lat="43.83932" lon="6.97945">
        <ele>1263.4</ele>
        <time>2025-03-15T09:11:07Z</time>
      </trkpt>
      <trkpt lat="43.83929" lon="6.97906">
        <ele>1259.3</ele>
        <time>2025-03-15T09:11:07Z</time>
      </trkpt>
      <trkpt lat="43.83931" lon="6.97901">
        <ele>1258.8</ele>
        <time>2025-03-15T09:11:07Z</time>
      </trkpt>
      <trkpt lat="43.83944" lon="6.97872">
        <ele>1247.9</ele>
        <time>2025-03-15T09:11:07Z</time>
      </trkpt>
      <trkpt lat="43.83946" lon="6.97867">
        <ele>1244.6</ele>
        <time>2025-03-15T09:11:07Z</time>
      </trkpt>
      <trkpt lat="43.83957" lon="6.97844">
        <ele>1234.4</ele>
        <time>2025-03-15T09:11:07Z</time>
      </trkpt>
      <trkpt lat="43.83966" lon="6.97832">
        <ele>1227.9</ele>
        <time>2025-03-15T09:11:07Z</time>
      </trkpt>
      <trkpt lat="43.83965" lon="6.97811">
        <ele>1228.1</ele>
        <time>2025-03-15T09:11:07Z</time>
      </trkpt>
      <trkpt lat="43.83964" lon="6.97794">
        <ele>1224.2</ele>
        <time>2025-03-15T09:11:07Z</time>
      </trkpt>
      <trkpt lat="43.83966" lon="6.97763">
        <ele>1216</ele>
        <time>2025-03-15T09:11:07Z</time>
      </trkpt>
      <trkpt lat="43.83982" lon="6.9774">
        <ele>1209.1</ele>
        <time>2025-03-15T09:11:07Z</time>
      </trkpt>
      <trkpt lat="43.83991" lon="6.97733">
        <ele>1204.4</ele>
        <time>2025-03-15T09:11:07Z</time>
      </trkpt>
      <trkpt lat="43.84009" lon="6.97692">
        <ele>1199</ele>
        <time>2025-03-15T09:11:07Z</time>
      </trkpt>
      <trkpt lat="43.84023" lon="6.97646">
        <ele>1195.8</ele>
        <time>2025-03-15T09:11:07Z</time>
      </trkpt>
      <trkpt lat="43.84032" lon="6.97614">
        <ele>1197.1</ele>
        <time>2025-03-15T09:11:07Z</time>
      </trkpt>
      <trkpt lat="43.84039" lon="6.97592">
        <ele>1199.8</ele>
        <time>2025-03-15T09:11:07Z</time>
      </trkpt>
      <trkpt lat="43.84049" lon="6.97588">
        <ele>1195.9</ele>
        <time>2025-03-15T09:11:07Z</time>
      </trkpt>
      <trkpt lat="43.84057" lon="6.97585">
        <ele>1189.3</ele>
        <time>2025-03-15T09:11:07Z</time>
      </trkpt>
      <trkpt lat="43.84062" lon="6.97574">
        <ele>1193</ele>
        <time>2025-03-15T09:11:07Z</time>
      </trkpt>
      <trkpt lat="43.84082" lon="6.97561">
        <ele>1176.2</ele>
        <time>2025-03-15T09:11:07Z</time>
      </trkpt>
      <trkpt lat="43.84087" lon="6.97558">
        <ele>1172.5</ele>
        <time>2025-03-15T09:11:07Z</time>
      </trkpt>
      <trkpt lat="43.84088" lon="6.97552">
        <ele>1173.3</ele>
        <time>2025-03-15T09:11:07Z</time>
      </trkpt>
      <trkpt lat="43.84087" lon="6.97543">
        <ele>1177</ele>
        <time>2025-03-15T09:11:07Z</time>
      </trkpt>
      <trkpt lat="43.84092" lon="6.97531">
        <ele>1176.3</ele>
        <time>2025-03-15T09:11:07Z</time>
      </trkpt>
      <trkpt lat="43.84099" lon="6.97517">
        <ele>1171.6</ele>
        <time>2025-03-15T09:11:07Z</time>
      </trkpt>
      <trkpt lat="43.84119" lon="6.97493">
        <ele>1164.3</ele>
        <time>2025-03-15T09:11:07Z</time>
      </trkpt>
      <trkpt lat="43.8413" lon="6.97488">
        <ele>1156.3</ele>
        <time>2025-03-15T09:11:07Z</time>
      </trkpt>
      <trkpt lat="43.84139" lon="6.97471">
        <ele>1154.5</ele>
        <time>2025-03-15T09:11:07Z</time>
      </trkpt>
      <trkpt lat="43.84144" lon="6.97468">
        <ele>1152.5</ele>
        <time>2025-03-15T09:11:07Z</time>
      </trkpt>
      <trkpt lat="43.84158" lon="6.97458">
        <ele>1146.3</ele>
        <time>2025-03-15T09:11:07Z</time>
      </trkpt>
      <trkpt lat="43.84177" lon="6.97444">
        <ele>1134.8</ele>
        <time>2025-03-15T09:11:07Z</time>
      </trkpt>
      <trkpt lat="43.84181" lon="6.97429">
        <ele>1132.7</ele>
        <time>2025-03-15T09:11:07Z</time>
      </trkpt>
      <trkpt lat="43.84189" lon="6.9742">
        <ele>1127.1</ele>
        <time>2025-03-15T09:11:07Z</time>
      </trkpt>
      <trkpt lat="43.8419" lon="6.97395">
        <ele>1122.3</ele>
        <time>2025-03-15T09:11:07Z</time>
      </trkpt>
      <trkpt lat="43.84187" lon="6.97378">
        <ele>1118.5</ele>
        <time>2025-03-15T09:11:07Z</time>
      </trkpt>
      <trkpt lat="43.84183" lon="6.97373">
        <ele>1119.1</ele>
        <time>2025-03-15T09:11:07Z</time>
      </trkpt>
      <trkpt lat="43.84187" lon="6.97367">
        <ele>1115.2</ele>
        <time>2025-03-15T09:11:07Z</time>
      </trkpt>
      <trkpt lat="43.84183" lon="6.97356">
        <ele>1111.6</ele>
        <time>2025-03-15T09:11:07Z</time>
      </trkpt>
      <trkpt lat="43.84182" lon="6.97353">
        <ele>1111.6</ele>
        <time>2025-03-15T09:11:07Z</time>
      </trkpt>
      <trkpt lat="43.84181" lon="6.97338">
        <ele>1102.6</ele>
        <time>2025-03-15T09:11:07Z</time>
      </trkpt>
      <trkpt lat="43.84181" lon="6.97326">
        <ele>1097.7</ele>
        <time>2025-03-15T09:11:07Z</time>
      </trkpt>
      <trkpt lat="43.84181" lon="6.9732">
        <ele>1097.1</ele>
        <time>2025-03-15T09:11:07Z</time>
      </trkpt>
      <trkpt lat="43.84186" lon="6.97311">
        <ele>1092.5</ele>
        <time>2025-03-15T09:11:07Z</time>
      </trkpt>
      <trkpt lat="43.84188" lon="6.97306">
        <ele>1091.7</ele>
        <time>2025-03-15T09:11:07Z</time>
      </trkpt>
      <trkpt lat="43.84189" lon="6.97297">
        <ele>1086.9</ele>
        <time>2025-03-15T09:11:07Z</time>
      </trkpt>
      <trkpt lat="43.84192" lon="6.97275">
        <ele>1084.4</ele>
        <time>2025-03-15T09:11:07Z</time>
      </trkpt>
      <trkpt lat="43.84192" lon="6.9726">
        <ele>1082.4</ele>
        <time>2025-03-15T09:11:07Z</time>
      </trkpt>
      <trkpt lat="43.84192" lon="6.97254">
        <ele>1080.7</ele>
        <time>2025-03-15T09:11:07Z</time>
      </trkpt>
      <trkpt lat="43.84194" lon="6.97255">
        <ele>1078.6</ele>
        <time>2025-03-15T09:11:07Z</time>
      </trkpt>
      <trkpt lat="43.84199" lon="6.97256">
        <ele>1075.6</ele>
        <time>2025-03-15T09:11:07Z</time>
      </trkpt>
      <trkpt lat="43.84202" lon="6.97253">
        <ele>1071.6</ele>
        <time>2025-03-15T09:11:07Z</time>
      </trkpt>
      <trkpt lat="43.84203" lon="6.9725">
        <ele>1071.6</ele>
        <time>2025-03-15T09:11:07Z</time>
      </trkpt>
      <trkpt lat="43.84207" lon="6.97232">
        <ele>1063.4</ele>
        <time>2025-03-15T09:11:07Z</time>
      </trkpt>
      <trkpt lat="43.842" lon="6.97198">
        <ele>1059</ele>
        <time>2025-03-15T09:11:07Z</time>
      </trkpt>
      <trkpt lat="43.84198" lon="6.97189">
        <ele>1058</ele>
        <time>2025-03-15T09:11:07Z</time>
      </trkpt>
      <trkpt lat="43.84203" lon="6.97181">
        <ele>1055.5</ele>
        <time>2025-03-15T09:11:07Z</time>
      </trkpt>
      <trkpt lat="43.84209" lon="6.9718">
        <ele>1052.9</ele>
        <time>2025-03-15T09:11:07Z</time>
      </trkpt>
      <trkpt lat="43.84219" lon="6.97173">
        <ele>1046.6</ele>
        <time>2025-03-15T09:11:07Z</time>
      </trkpt>
      <trkpt lat="43.84246" lon="6.97165">
        <ele>1032.9</ele>
        <time>2025-03-15T09:11:07Z</time>
      </trkpt>
      <trkpt lat="43.84253" lon="6.97157">
        <ele>1033.8</ele>
        <time>2025-03-15T09:11:07Z</time>
      </trkpt>
      <trkpt lat="43.84259" lon="6.97149">
        <ele>1031.8</ele>
        <time>2025-03-15T09:11:07Z</time>
      </trkpt>
      <trkpt lat="43.84265" lon="6.9714">
        <ele>1030.6</ele>
        <time>2025-03-15T09:11:07Z</time>
      </trkpt>
      <trkpt lat="43.84264" lon="6.97129">
        <ele>1031.2</ele>
        <time>2025-03-15T09:11:07Z</time>
      </trkpt>
      <trkpt lat="43.84262" lon="6.97108">
        <ele>1029.3</ele>
        <time>2025-03-15T09:11:07Z</time>
      </trkpt>
      <trkpt lat="43.84264" lon="6.97097">
        <ele>1031.2</ele>
        <time>2025-03-15T09:11:07Z</time>
      </trkpt>
      <trkpt lat="43.84279" lon="6.97082">
        <ele>1027.2</ele>
        <time>2025-03-15T09:11:07Z</time>
      </trkpt>
      <trkpt lat="43.84286" lon="6.97074">
        <ele>1026.3</ele>
        <time>2025-03-15T09:11:07Z</time>
      </trkpt>
      <trkpt lat="43.84298" lon="6.97058">
        <ele>1024.1</ele>
        <time>2025-03-15T09:11:07Z</time>
      </trkpt>
      <trkpt lat="43.84309" lon="6.97047">
        <ele>1018.4</ele>
        <time>2025-03-15T09:11:07Z</time>
      </trkpt>
      <trkpt lat="43.84321" lon="6.97035">
        <ele>1017.7</ele>
        <time>2025-03-15T09:11:07Z</time>
      </trkpt>
      <trkpt lat="43.84331" lon="6.9703">
        <ele>1011.8</ele>
        <time>2025-03-15T09:11:07Z</time>
      </trkpt>
      <trkpt lat="43.84339" lon="6.97023">
        <ele>1008.1</ele>
        <time>2025-03-15T09:11:07Z</time>
      </trkpt>
      <trkpt lat="43.84345" lon="6.97012">
        <ele>1008.8</ele>
        <time>2025-03-15T09:11:07Z</time>
      </trkpt>
      <trkpt lat="43.84351" lon="6.96993">
        <ele>1009.9</ele>
        <time>2025-03-15T09:11:07Z</time>
      </trkpt>
      <trkpt lat="43.84356" lon="6.96985">
        <ele>1009.1</ele>
        <time>2025-03-15T09:11:07Z</time>
      </trkpt>
      <trkpt lat="43.84366" lon="6.96979">
        <ele>1002.6</ele>
        <time>2025-03-15T09:11:07Z</time>
      </trkpt>
      <trkpt lat="43.84374" lon="6.96978">
        <ele>996.8</ele>
        <time>2025-03-15T09:11:07Z</time>
      </trkpt>
      <trkpt lat="43.84382" lon="6.96972">
        <ele>992.1</ele>
        <time>2025-03-15T09:11:07Z</time>
      </trkpt>
      <trkpt lat="43.84388" lon="6.96969">
        <ele>990.3</ele>
        <time>2025-03-15T09:11:07Z</time>
      </trkpt>
      <trkpt lat="43.84394" lon="6.96961">
        <ele>989.8</ele>
        <time>2025-03-15T09:11:07Z</time>
      </trkpt>
      <trkpt lat="43.84397" lon="6.96953">
        <ele>988.5</ele>
        <time>2025-03-15T09:11:07Z</time>
      </trkpt>
      <trkpt lat="43.84403" lon="6.96951">
        <ele>984.5</ele>
        <time>2025-03-15T09:11:07Z</time>
      </trkpt>
      <trkpt lat="43.84407" lon="6.96948">
        <ele>981.1</ele>
        <time>2025-03-15T09:11:07Z</time>
      </trkpt>
      <trkpt lat="43.84411" lon="6.96938">
        <ele>977.5</ele>
        <time>2025-03-15T09:11:07Z</time>
      </trkpt>
      <trkpt lat="43.84409" lon="6.96917">
        <ele>976.8</ele>
        <time>2025-03-15T09:11:07Z</time>
      </trkpt>
      <trkpt lat="43.8441" lon="6.96912">
        <ele>976.4</ele>
        <time>2025-03-15T09:11:07Z</time>
      </trkpt>
      <trkpt lat="43.84408" lon="6.96902">
        <ele>975.2</ele>
        <time>2025-03-15T09:11:07Z</time>
      </trkpt>
      <trkpt lat="43.84414" lon="6.96895">
        <ele>972</ele>
        <time>2025-03-15T09:11:07Z</time>
      </trkpt>
      <trkpt lat="43.84415" lon="6.96896">
        <ele>972</ele>
        <time>2025-03-15T09:11:07Z</time>
      </trkpt>
      <trkpt lat="43.84423" lon="6.96901">
        <ele>965.8</ele>
        <time>2025-03-15T09:11:07Z</time>
      </trkpt>
      <trkpt lat="43.84427" lon="6.96906">
        <ele>962.2</ele>
        <time>2025-03-15T09:11:07Z</time>
      </trkpt>
      <trkpt lat="43.84428" lon="6.96909">
        <ele>962</ele>
        <time>2025-03-15T09:11:07Z</time>
      </trkpt>
      <trkpt lat="43.8443" lon="6.96902">
        <ele>958.6</ele>
        <time>2025-03-15T09:11:07Z</time>
      </trkpt>
      <trkpt lat="43.8443" lon="6.96898">
        <ele>958.6</ele>
        <time>2025-03-15T09:11:07Z</time>
      </trkpt>
      <trkpt lat="43.84431" lon="6.96892">
        <ele>959.6</ele>
        <time>2025-03-15T09:11:07Z</time>
      </trkpt>
      <trkpt lat="43.8443" lon="6.96883">
        <ele>961.9</ele>
        <time>2025-03-15T09:11:07Z</time>
      </trkpt>
      <trkpt lat="43.84435" lon="6.96877">
        <ele>960.7</ele>
        <time>2025-03-15T09:11:07Z</time>
      </trkpt>
      <trkpt lat="43.84442" lon="6.96874">
        <ele>955.5</ele>
        <time>2025-03-15T09:11:07Z</time>
      </trkpt>
      <trkpt lat="43.84448" lon="6.96868">
        <ele>957.7</ele>
        <time>2025-03-15T09:11:07Z</time>
      </trkpt>
      <trkpt lat="43.84457" lon="6.96865">
        <ele>959.4</ele>
        <time>2025-03-15T09:11:07Z</time>
      </trkpt>
      <trkpt lat="43.84466" lon="6.96865">
        <ele>959</ele>
        <time>2025-03-15T09:11:07Z</time>
      </trkpt>
      <trkpt lat="43.84487" lon="6.96868">
        <ele>958.4</ele>
        <time>2025-03-15T09:11:07Z</time>
      </trkpt>
      <trkpt lat="43.8452" lon="6.9688">
        <ele>958.7</ele>
        <time>2025-03-15T09:11:07Z</time>
      </trkpt>
      <trkpt lat="43.84535" lon="6.96883">
        <ele>956.7</ele>
        <time>2025-03-15T09:11:07Z</time>
      </trkpt>
      <trkpt lat="43.84544" lon="6.96882">
        <ele>954.9</ele>
        <time>2025-03-15T09:11:07Z</time>
      </trkpt>
      <trkpt lat="43.84548" lon="6.96878">
        <ele>955</ele>
        <time>2025-03-15T09:11:07Z</time>
      </trkpt>
      <trkpt lat="43.84556" lon="6.96869">
        <ele>954.8</ele>
        <time>2025-03-15T09:11:07Z</time>
      </trkpt>
      <trkpt lat="43.84566" lon="6.96858">
        <ele>955.2</ele>
        <time>2025-03-15T09:11:07Z</time>
      </trkpt>
      <trkpt lat="43.84578" lon="6.96843">
        <ele>954.5</ele>
        <time>2025-03-15T09:11:07Z</time>
      </trkpt>
      <trkpt lat="43.8459" lon="6.96835">
        <ele>954.5</ele>
        <time>2025-03-15T09:11:07Z</time>
      </trkpt>
      <trkpt lat="43.84605" lon="6.96829">
        <ele>954.9</ele>
        <time>2025-03-15T09:11:07Z</time>
      </trkpt>
      <trkpt lat="43.84616" lon="6.9683">
        <ele>953.3</ele>
        <time>2025-03-15T09:11:07Z</time>
      </trkpt>
      <trkpt lat="43.84625" lon="6.96833">
        <ele>953.7</ele>
        <time>2025-03-15T09:11:07Z</time>
      </trkpt>
      <trkpt lat="43.84637" lon="6.96833">
        <ele>955</ele>
        <time>2025-03-15T09:11:07Z</time>
      </trkpt>
      <trkpt lat="43.84646" lon="6.96832">
        <ele>955.9</ele>
        <time>2025-03-15T09:11:07Z</time>
      </trkpt>
      <trkpt lat="43.84656" lon="6.96829">
        <ele>957.3</ele>
        <time>2025-03-15T09:11:07Z</time>
      </trkpt>
      <trkpt lat="43.84671" lon="6.96825">
        <ele>959.3</ele>
        <time>2025-03-15T09:11:07Z</time>
      </trkpt>
      <trkpt lat="43.84681" lon="6.96824">
        <ele>960.4</ele>
        <time>2025-03-15T09:11:07Z</time>
      </trkpt>
      <trkpt lat="43.84687" lon="6.9682">
        <ele>962.2</ele>
        <time>2025-03-15T09:11:07Z</time>
      </trkpt>
      <trkpt lat="43.84703" lon="6.96812">
        <ele>963.8</ele>
        <time>2025-03-15T09:11:07Z</time>
      </trkpt>
      <trkpt lat="43.84722" lon="6.968">
        <ele>961.9</ele>
        <time>2025-03-15T09:11:07Z</time>
      </trkpt>
      <trkpt lat="43.84741" lon="6.96797">
        <ele>959.9</ele>
        <time>2025-03-15T09:11:07Z</time>
      </trkpt>
      <trkpt lat="43.84762" lon="6.96794">
        <ele>957.4</ele>
        <time>2025-03-15T09:11:07Z</time>
      </trkpt>
      <trkpt lat="43.84776" lon="6.96788">
        <ele>955.3</ele>
        <time>2025-03-15T09:11:07Z</time>
      </trkpt>
      <trkpt lat="43.84786" lon="6.96781">
        <ele>952.6</ele>
        <time>2025-03-15T09:11:07Z</time>
      </trkpt>
      <trkpt lat="43.84796" lon="6.96774">
        <ele>950.6</ele>
        <time>2025-03-15T09:11:07Z</time>
      </trkpt>
      <trkpt lat="43.84801" lon="6.9677">
        <ele>950.2</ele>
        <time>2025-03-15T09:11:07Z</time>
      </trkpt>
      <trkpt lat="43.84806" lon="6.96763">
        <ele>950.6</ele>
        <time>2025-03-15T09:11:07Z</time>
      </trkpt>
      <trkpt lat="43.84811" lon="6.9675">
        <ele>949.4</ele>
        <time>2025-03-15T09:11:07Z</time>
      </trkpt>
      <trkpt lat="43.84815" lon="6.96745">
        <ele>949.9</ele>
        <time>2025-03-15T09:11:07Z</time>
      </trkpt>
      <trkpt lat="43.84819" lon="6.96741">
        <ele>949.2</ele>
        <time>2025-03-15T09:11:07Z</time>
      </trkpt>
      <trkpt lat="43.84825" lon="6.96739">
        <ele>948.1</ele>
        <time>2025-03-15T09:11:07Z</time>
      </trkpt>
      <trkpt lat="43.84832" lon="6.96735">
        <ele>947.7</ele>
        <time>2025-03-15T09:11:07Z</time>
      </trkpt>
      <trkpt lat="43.84841" lon="6.96734">
        <ele>947.4</ele>
        <time>2025-03-15T09:11:07Z</time>
      </trkpt>
      <trkpt lat="43.84845" lon="6.96734">
        <ele>947.4</ele>
        <time>2025-03-15T09:11:07Z</time>
      </trkpt>
      <trkpt lat="43.84852" lon="6.96734">
        <ele>946.5</ele>
        <time>2025-03-15T09:11:07Z</time>
      </trkpt>
      <trkpt lat="43.84857" lon="6.96742">
        <ele>945.6</ele>
        <time>2025-03-15T09:11:07Z</time>
      </trkpt>
      <trkpt lat="43.84864" lon="6.96753">
        <ele>943.4</ele>
        <time>2025-03-15T09:11:07Z</time>
      </trkpt>
      <trkpt lat="43.84866" lon="6.96761">
        <ele>943.7</ele>
        <time>2025-03-15T09:11:07Z</time>
      </trkpt>
      <trkpt lat="43.8487" lon="6.96773">
        <ele>943.2</ele>
        <time>2025-03-15T09:11:07Z</time>
      </trkpt>
      <trkpt lat="43.84874" lon="6.96782">
        <ele>942.9</ele>
        <time>2025-03-15T09:11:07Z</time>
      </trkpt>
      <trkpt lat="43.84875" lon="6.96784">
        <ele>943.2</ele>
        <time>2025-03-15T09:11:07Z</time>
      </trkpt>
      <trkpt lat="43.84879" lon="6.9679">
        <ele>942.7</ele>
        <time>2025-03-15T09:11:07Z</time>
      </trkpt>
      <trkpt lat="43.84881" lon="6.96795">
        <ele>942.2</ele>
        <time>2025-03-15T09:11:07Z</time>
      </trkpt>
      <trkpt lat="43.84887" lon="6.96802">
        <ele>941.4</ele>
        <time>2025-03-15T09:11:07Z</time>
      </trkpt>
      <trkpt lat="43.84896" lon="6.9681">
        <ele>939.6</ele>
        <time>2025-03-15T09:11:07Z</time>
      </trkpt>
      <trkpt lat="43.84901" lon="6.96804">
        <ele>939.3</ele>
        <time>2025-03-15T09:11:07Z</time>
      </trkpt>
      <trkpt lat="43.84917" lon="6.9679">
        <ele>939.7</ele>
        <time>2025-03-15T09:11:07Z</time>
      </trkpt>
      <trkpt lat="43.84923" lon="6.96786">
        <ele>940.4</ele>
        <time>2025-03-15T09:11:07Z</time>
      </trkpt>
      <trkpt lat="43.84927" lon="6.96787">
        <ele>941.9</ele>
        <time>2025-03-15T09:11:07Z</time>
      </trkpt>
      <trkpt lat="43.84932" lon="6.96788">
        <ele>942.4</ele>
        <time>2025-03-15T09:11:07Z</time>
      </trkpt>
      <trkpt lat="43.84936" lon="6.96789">
        <ele>942.9</ele>
        <time>2025-03-15T09:11:07Z</time>
      </trkpt>
      <trkpt lat="43.84944" lon="6.96784">
        <ele>942.7</ele>
        <time>2025-03-15T09:11:07Z</time>
      </trkpt>
      <trkpt lat="43.84956" lon="6.96781">
        <ele>942.1</ele>
        <time>2025-03-15T09:11:07Z</time>
      </trkpt>
      <trkpt lat="43.84972" lon="6.96779">
        <ele>943.3</ele>
        <time>2025-03-15T09:11:07Z</time>
      </trkpt>
      <trkpt lat="43.84983" lon="6.96778">
        <ele>945.6</ele>
        <time>2025-03-15T09:11:07Z</time>
      </trkpt>
      <trkpt lat="43.84992" lon="6.96774">
        <ele>946.8</ele>
        <time>2025-03-15T09:11:07Z</time>
      </trkpt>
      <trkpt lat="43.84998" lon="6.96766">
        <ele>944.9</ele>
        <time>2025-03-15T09:11:07Z</time>
      </trkpt>
      <trkpt lat="43.85005" lon="6.96755">
        <ele>943</ele>
        <time>2025-03-15T09:11:07Z</time>
      </trkpt>
      <trkpt lat="43.8501" lon="6.96748">
        <ele>943.2</ele>
        <time>2025-03-15T09:11:07Z</time>
      </trkpt>
      <trkpt lat="43.85013" lon="6.96738">
        <ele>938.7</ele>
        <time>2025-03-15T09:11:07Z</time>
      </trkpt>
      <trkpt lat="43.85017" lon="6.96732">
        <ele>939</ele>
        <time>2025-03-15T09:11:07Z</time>
      </trkpt>
      <trkpt lat="43.85022" lon="6.96724">
        <ele>937.4</ele>
        <time>2025-03-15T09:11:07Z</time>
      </trkpt>
      <trkpt lat="43.85025" lon="6.96718">
        <ele>935.4</ele>
        <time>2025-03-15T09:11:07Z</time>
      </trkpt>
      <trkpt lat="43.8503" lon="6.96713">
        <ele>937.4</ele>
        <time>2025-03-15T09:11:07Z</time>
      </trkpt>
      <trkpt lat="43.85037" lon="6.96709">
        <ele>938.7</ele>
        <time>2025-03-15T09:11:07Z</time>
      </trkpt>
      <trkpt lat="43.85037" lon="6.96705">
        <ele>938.7</ele>
        <time>2025-03-15T09:11:07Z</time>
      </trkpt>
      <trkpt lat="43.85038" lon="6.96697">
        <ele>935.2</ele>
        <time>2025-03-15T09:11:07Z</time>
      </trkpt>
      <trkpt lat="43.85037" lon="6.96688">
        <ele>931.8</ele>
        <time>2025-03-15T09:11:07Z</time>
      </trkpt>
      <trkpt lat="43.85038" lon="6.96678">
        <ele>927.1</ele>
        <time>2025-03-15T09:11:07Z</time>
      </trkpt>
      <trkpt lat="43.85041" lon="6.96672">
        <ele>929</ele>
        <time>2025-03-15T09:11:07Z</time>
      </trkpt>
      <trkpt lat="43.85043" lon="6.96667">
        <ele>931.2</ele>
        <time>2025-03-15T09:11:07Z</time>
      </trkpt>
      <trkpt lat="43.85047" lon="6.96651">
        <ele>930.1</ele>
        <time>2025-03-15T09:11:07Z</time>
      </trkpt>
      <trkpt lat="43.85052" lon="6.96633">
        <ele>929.4</ele>
        <time>2025-03-15T09:11:07Z</time>
      </trkpt>
      <trkpt lat="43.85053" lon="6.96622">
        <ele>926.3</ele>
        <time>2025-03-15T09:11:07Z</time>
      </trkpt>
      <trkpt lat="43.85054" lon="6.96605">
        <ele>921.7</ele>
        <time>2025-03-15T09:11:07Z</time>
      </trkpt>
      <trkpt lat="43.85052" lon="6.96593">
        <ele>919.4</ele>
        <time>2025-03-15T09:11:07Z</time>
      </trkpt>
      <trkpt lat="43.85053" lon="6.96584">
        <ele>917.7</ele>
        <time>2025-03-15T09:11:07Z</time>
      </trkpt>
      <trkpt lat="43.85056" lon="6.96569">
        <ele>918.2</ele>
        <time>2025-03-15T09:11:07Z</time>
      </trkpt>
      <trkpt lat="43.85063" lon="6.96545">
        <ele>913.8</ele>
        <time>2025-03-15T09:11:07Z</time>
      </trkpt>
      <trkpt lat="43.85073" lon="6.96519">
        <ele>913.8</ele>
        <time>2025-03-15T09:11:07Z</time>
      </trkpt>
      <trkpt lat="43.85083" lon="6.96495">
        <ele>911.4</ele>
        <time>2025-03-15T09:11:07Z</time>
      </trkpt>
      <trkpt lat="43.85093" lon="6.96472">
        <ele>907.1</ele>
        <time>2025-03-15T09:11:07Z</time>
      </trkpt>
      <trkpt lat="43.85097" lon="6.9646">
        <ele>905.2</ele>
        <time>2025-03-15T09:11:07Z</time>
      </trkpt>
      <trkpt lat="43.85098" lon="6.96456">
        <ele>905.2</ele>
        <time>2025-03-15T09:11:07Z</time>
      </trkpt>
      <trkpt lat="43.85103" lon="6.96437">
        <ele>902.1</ele>
        <time>2025-03-15T09:11:07Z</time>
      </trkpt>
      <trkpt lat="43.85106" lon="6.96423">
        <ele>897.1</ele>
        <time>2025-03-15T09:11:07Z</time>
      </trkpt>
      <trkpt lat="43.85115" lon="6.96407">
        <ele>894.8</ele>
        <time>2025-03-15T09:11:07Z</time>
      </trkpt>
      <trkpt lat="43.85121" lon="6.96393">
        <ele>894.5</ele>
        <time>2025-03-15T09:11:07Z</time>
      </trkpt>
      <trkpt lat="43.85128" lon="6.96379">
        <ele>892.2</ele>
        <time>2025-03-15T09:11:07Z</time>
      </trkpt>
      <trkpt lat="43.85136" lon="6.96365">
        <ele>890.5</ele>
        <time>2025-03-15T09:11:07Z</time>
      </trkpt>
      <trkpt lat="43.85146" lon="6.96347">
        <ele>891.3</ele>
        <time>2025-03-15T09:11:07Z</time>
      </trkpt>
      <trkpt lat="43.85152" lon="6.96331">
        <ele>887.1</ele>
        <time>2025-03-15T09:11:07Z</time>
      </trkpt>
      <trkpt lat="43.85158" lon="6.96319">
        <ele>886.6</ele>
        <time>2025-03-15T09:11:07Z</time>
      </trkpt>
      <trkpt lat="43.85163" lon="6.96307">
        <ele>887.9</ele>
        <time>2025-03-15T09:11:07Z</time>
      </trkpt>
      <trkpt lat="43.85169" lon="6.96289">
        <ele>884.5</ele>
        <time>2025-03-15T09:11:07Z</time>
      </trkpt>
      <trkpt lat="43.85175" lon="6.96271">
        <ele>878.6</ele>
        <time>2025-03-15T09:11:07Z</time>
      </trkpt>
      <trkpt lat="43.85181" lon="6.96258">
        <ele>878.2</ele>
        <time>2025-03-15T09:11:07Z</time>
      </trkpt>
      <trkpt lat="43.85186" lon="6.96251">
        <ele>878.7</ele>
        <time>2025-03-15T09:11:07Z</time>
      </trkpt>
      <trkpt lat="43.85191" lon="6.96245">
        <ele>876.4</ele>
        <time>2025-03-15T09:11:07Z</time>
      </trkpt>
      <trkpt lat="43.85197" lon="6.96235">
        <ele>873.7</ele>
        <time>2025-03-15T09:11:07Z</time>
      </trkpt>
      <trkpt lat="43.852" lon="6.96228">
        <ele>870.7</ele>
        <time>2025-03-15T09:11:07Z</time>
      </trkpt>
      <trkpt lat="43.85204" lon="6.96223">
        <ele>870.2</ele>
        <time>2025-03-15T09:11:07Z</time>
      </trkpt>
      <trkpt lat="43.8521" lon="6.96221">
        <ele>872.1</ele>
        <time>2025-03-15T09:11:07Z</time>
      </trkpt>
      <trkpt lat="43.85219" lon="6.96218">
        <ele>875.7</ele>
        <time>2025-03-15T09:11:07Z</time>
      </trkpt>
      <trkpt lat="43.85225" lon="6.96216">
        <ele>879.3</ele>
        <time>2025-03-15T09:11:07Z</time>
      </trkpt>
      <trkpt lat="43.85226" lon="6.96212">
        <ele>877</ele>
        <time>2025-03-15T09:11:07Z</time>
      </trkpt>
      <trkpt lat="43.85228" lon="6.96201">
        <ele>875.8</ele>
        <time>2025-03-15T09:11:07Z</time>
      </trkpt>
      <trkpt lat="43.85228" lon="6.9619">
        <ele>873.5</ele>
        <time>2025-03-15T09:11:07Z</time>
      </trkpt>
      <trkpt lat="43.85229" lon="6.96181">
        <ele>870.7</ele>
        <time>2025-03-15T09:11:07Z</time>
      </trkpt>
      <trkpt lat="43.85228" lon="6.96173">
        <ele>869.6</ele>
        <time>2025-03-15T09:11:07Z</time>
      </trkpt>
      <trkpt lat="43.85227" lon="6.96164">
        <ele>861.9</ele>
        <time>2025-03-15T09:11:07Z</time>
      </trkpt>
      <trkpt lat="43.85225" lon="6.9616">
        <ele>861.9</ele>
        <time>2025-03-15T09:11:07Z</time>
      </trkpt>
      <trkpt lat="43.85226" lon="6.96148">
        <ele>858.7</ele>
        <time>2025-03-15T09:11:07Z</time>
      </trkpt>
      <trkpt lat="43.85228" lon="6.96127">
        <ele>856.1</ele>
        <time>2025-03-15T09:11:07Z</time>
      </trkpt>
      <trkpt lat="43.85231" lon="6.96119">
        <ele>853.3</ele>
        <time>2025-03-15T09:11:07Z</time>
      </trkpt>
      <trkpt lat="43.85234" lon="6.96114">
        <ele>855</ele>
        <time>2025-03-15T09:11:07Z</time>
      </trkpt>
      <trkpt lat="43.85236" lon="6.96106">
        <ele>854.7</ele>
        <time>2025-03-15T09:11:07Z</time>
      </trkpt>
      <trkpt lat="43.85238" lon="6.961">
        <ele>852.8</ele>
        <time>2025-03-15T09:11:07Z</time>
      </trkpt>
      <trkpt lat="43.85242" lon="6.96094">
        <ele>852</ele>
        <time>2025-03-15T09:11:07Z</time>
      </trkpt>
      <trkpt lat="43.85245" lon="6.96087">
        <ele>853</ele>
        <time>2025-03-15T09:11:07Z</time>
      </trkpt>
      <trkpt lat="43.8525" lon="6.9608">
        <ele>852.1</ele>
        <time>2025-03-15T09:11:07Z</time>
      </trkpt>
      <trkpt lat="43.85254" lon="6.96068">
        <ele>849.7</ele>
        <time>2025-03-15T09:11:07Z</time>
      </trkpt>
      <trkpt lat="43.85258" lon="6.96054">
        <ele>848.1</ele>
        <time>2025-03-15T09:11:07Z</time>
      </trkpt>
      <trkpt lat="43.85262" lon="6.96041">
        <ele>846.8</ele>
        <time>2025-03-15T09:11:07Z</time>
      </trkpt>
      <trkpt lat="43.85268" lon="6.96027">
        <ele>845</ele>
        <time>2025-03-15T09:11:07Z</time>
      </trkpt>
      <trkpt lat="43.85275" lon="6.96014">
        <ele>845.5</ele>
        <time>2025-03-15T09:11:07Z</time>
      </trkpt>
      <trkpt lat="43.85286" lon="6.95999">
        <ele>843.8</ele>
        <time>2025-03-15T09:11:07Z</time>
      </trkpt>
      <trkpt lat="43.85298" lon="6.9598">
        <ele>844.8</ele>
        <time>2025-03-15T09:11:07Z</time>
      </trkpt>
      <trkpt lat="43.85311" lon="6.95957">
        <ele>841.6</ele>
        <time>2025-03-15T09:11:07Z</time>
      </trkpt>
      <trkpt lat="43.85321" lon="6.95941">
        <ele>840.8</ele>
        <time>2025-03-15T09:11:07Z</time>
      </trkpt>
      <trkpt lat="43.85327" lon="6.95932">
        <ele>842.4</ele>
        <time>2025-03-15T09:11:07Z</time>
      </trkpt>
      <trkpt lat="43.8533" lon="6.95923">
        <ele>840.4</ele>
        <time>2025-03-15T09:11:07Z</time>
      </trkpt>
      <trkpt lat="43.85329" lon="6.95914">
        <ele>838.2</ele>
        <time>2025-03-15T09:11:07Z</time>
      </trkpt>
      <trkpt lat="43.85329" lon="6.95905">
        <ele>836</ele>
        <time>2025-03-15T09:11:07Z</time>
      </trkpt>
      <trkpt lat="43.85331" lon="6.95898">
        <ele>836.4</ele>
        <time>2025-03-15T09:11:07Z</time>
      </trkpt>
      <trkpt lat="43.85336" lon="6.9589">
        <ele>837.4</ele>
        <time>2025-03-15T09:11:07Z</time>
      </trkpt>
      <trkpt lat="43.85347" lon="6.95881">
        <ele>837.2</ele>
        <time>2025-03-15T09:11:07Z</time>
      </trkpt>
      <trkpt lat="43.85358" lon="6.95872">
        <ele>832.4</ele>
        <time>2025-03-15T09:11:07Z</time>
      </trkpt>
      <trkpt lat="43.85365" lon="6.95869">
        <ele>832.1</ele>
        <time>2025-03-15T09:11:07Z</time>
      </trkpt>
      <trkpt lat="43.85376" lon="6.95867">
        <ele>830.1</ele>
        <time>2025-03-15T09:11:07Z</time>
      </trkpt>
      <trkpt lat="43.85384" lon="6.95864">
        <ele>829.6</ele>
        <time>2025-03-15T09:11:07Z</time>
      </trkpt>
      <trkpt lat="43.85394" lon="6.95858">
        <ele>827.2</ele>
        <time>2025-03-15T09:11:07Z</time>
      </trkpt>
      <trkpt lat="43.85399" lon="6.95854">
        <ele>826</ele>
        <time>2025-03-15T09:11:07Z</time>
      </trkpt>
      <trkpt lat="43.85406" lon="6.95851">
        <ele>826</ele>
        <time>2025-03-15T09:11:07Z</time>
      </trkpt>
      <trkpt lat="43.85415" lon="6.95851">
        <ele>825.3</ele>
        <time>2025-03-15T09:11:07Z</time>
      </trkpt>
      <trkpt lat="43.85424" lon="6.95851">
        <ele>823.6</ele>
        <time>2025-03-15T09:11:07Z</time>
      </trkpt>
      <trkpt lat="43.85429" lon="6.95853">
        <ele>820.6</ele>
        <time>2025-03-15T09:11:07Z</time>
      </trkpt>
      <trkpt lat="43.85432" lon="6.95859">
        <ele>821.4</ele>
        <time>2025-03-15T09:11:07Z</time>
      </trkpt>
      <trkpt lat="43.85435" lon="6.95871">
        <ele>820.8</ele>
        <time>2025-03-15T09:11:07Z</time>
      </trkpt>
      <trkpt lat="43.85437" lon="6.95883">
        <ele>822</ele>
        <time>2025-03-15T09:11:07Z</time>
      </trkpt>
      <trkpt lat="43.85441" lon="6.95901">
        <ele>821.7</ele>
        <time>2025-03-15T09:11:07Z</time>
      </trkpt>
      <trkpt lat="43.85449" lon="6.95925">
        <ele>819.7</ele>
        <time>2025-03-15T09:11:07Z</time>
      </trkpt>
      <trkpt lat="43.85455" lon="6.95943">
        <ele>815.8</ele>
        <time>2025-03-15T09:11:07Z</time>
      </trkpt>
      <trkpt lat="43.85458" lon="6.95952">
        <ele>816.7</ele>
        <time>2025-03-15T09:11:07Z</time>
      </trkpt>
      <trkpt lat="43.85465" lon="6.95977">
        <ele>812.8</ele>
        <time>2025-03-15T09:11:07Z</time>
      </trkpt>
      <trkpt lat="43.85471" lon="6.96007">
        <ele>812.2</ele>
        <time>2025-03-15T09:11:07Z</time>
      </trkpt>
      <trkpt lat="43.85483" lon="6.96041">
        <ele>806.5</ele>
        <time>2025-03-15T09:11:07Z</time>
      </trkpt>
      <trkpt lat="43.85497" lon="6.96074">
        <ele>805.1</ele>
        <time>2025-03-15T09:11:07Z</time>
      </trkpt>
      <trkpt lat="43.85507" lon="6.96104">
        <ele>800.8</ele>
        <time>2025-03-15T09:11:07Z</time>
      </trkpt>
      <trkpt lat="43.85518" lon="6.9613">
        <ele>795.2</ele>
        <time>2025-03-15T09:11:07Z</time>
      </trkpt>
      <trkpt lat="43.85521" lon="6.96127">
        <ele>792.8</ele>
        <time>2025-03-15T09:11:07Z</time>
      </trkpt>
      <trkpt lat="43.85524" lon="6.96146">
        <ele>789.4</ele>
        <time>2025-03-15T09:11:07Z</time>
      </trkpt>
      <trkpt lat="43.85525" lon="6.9615">
        <ele>789.1</ele>
        <time>2025-03-15T09:11:07Z</time>
      </trkpt>
      <trkpt lat="43.85534" lon="6.96173">
        <ele>782.6</ele>
        <time>2025-03-15T09:11:07Z</time>
      </trkpt>
      <trkpt lat="43.85535" lon="6.96165">
        <ele>782.5</ele>
        <time>2025-03-15T09:11:07Z</time>
      </trkpt>
      <trkpt lat="43.85561" lon="6.96219">
        <ele>768.7</ele>
        <time>2025-03-15T09:11:07Z</time>
      </trkpt>
      <trkpt lat="43.85575" lon="6.96248">
        <ele>760.7</ele>
        <time>2025-03-15T09:11:07Z</time>
      </trkpt>
      <trkpt lat="43.85576" lon="6.96241">
        <ele>759</ele>
        <time>2025-03-15T09:11:07Z</time>
      </trkpt>
      <trkpt lat="43.85577" lon="6.96231">
        <ele>757.5</ele>
        <time>2025-03-15T09:11:07Z</time>
      </trkpt>
      <trkpt lat="43.85594" lon="6.96258">
        <ele>749.5</ele>
        <time>2025-03-15T09:11:07Z</time>
      </trkpt>
      <trkpt lat="43.85605" lon="6.96278">
        <ele>744</ele>
        <time>2025-03-15T09:11:07Z</time>
      </trkpt>
      <trkpt lat="43.85606" lon="6.96272">
        <ele>743.2</ele>
        <time>2025-03-15T09:11:07Z</time>
      </trkpt>
      <trkpt lat="43.85606" lon="6.96258">
        <ele>740.6</ele>
        <time>2025-03-15T09:11:07Z</time>
      </trkpt>
      <trkpt lat="43.85607" lon="6.96266">
        <ele>741.8</ele>
        <time>2025-03-15T09:11:07Z</time>
      </trkpt>
      <trkpt lat="43.85612" lon="6.96274">
        <ele>740.7</ele>
        <time>2025-03-15T09:11:07Z</time>
      </trkpt>
      <trkpt lat="43.85616" lon="6.96279">
        <ele>739.3</ele>
        <time>2025-03-15T09:11:07Z</time>
      </trkpt>
      <trkpt lat="43.85632" lon="6.96288">
        <ele>732.9</ele>
        <time>2025-03-15T09:11:07Z</time>
      </trkpt>
      <trkpt lat="43.85653" lon="6.96296">
        <ele>724</ele>
        <time>2025-03-15T09:11:07Z</time>
      </trkpt>
      <trkpt lat="43.85663" lon="6.96302">
        <ele>723.2</ele>
        <time>2025-03-15T09:11:07Z</time>
      </trkpt>
      <trkpt lat="43.85677" lon="6.96314">
        <ele>719.9</ele>
        <time>2025-03-15T09:11:07Z</time>
      </trkpt>
      <trkpt lat="43.85688" lon="6.96319">
        <ele>716.1</ele>
        <time>2025-03-15T09:11:07Z</time>
      </trkpt>
      <trkpt lat="43.85701" lon="6.96322">
        <ele>712</ele>
        <time>2025-03-15T09:11:07Z</time>
      </trkpt>
      <trkpt lat="43.85707" lon="6.9632">
        <ele>710.9</ele>
        <time>2025-03-15T09:11:07Z</time>
      </trkpt>
      <trkpt lat="43.85712" lon="6.96323">
        <ele>709.9</ele>
        <time>2025-03-15T09:11:07Z</time>
      </trkpt>
      <trkpt lat="43.85722" lon="6.96332">
        <ele>705.6</ele>
        <time>2025-03-15T09:11:07Z</time>
      </trkpt>
      <trkpt lat="43.85726" lon="6.96336">
        <ele>703.7</ele>
        <time>2025-03-15T09:11:07Z</time>
      </trkpt>
      <trkpt lat="43.8573" lon="6.96332">
        <ele>702.7</ele>
        <time>2025-03-15T09:11:07Z</time>
      </trkpt>
      <trkpt lat="43.85735" lon="6.96329">
        <ele>701.7</ele>
        <time>2025-03-15T09:11:07Z</time>
      </trkpt>
      <trkpt lat="43.85736" lon="6.96322">
        <ele>702</ele>
        <time>2025-03-15T09:11:07Z</time>
      </trkpt>
      <trkpt lat="43.85738" lon="6.96317">
        <ele>700.3</ele>
        <time>2025-03-15T09:11:07Z</time>
      </trkpt>
      <trkpt lat="43.85742" lon="6.96315">
        <ele>700.3</ele>
        <time>2025-03-15T09:11:07Z</time>
      </trkpt>
      <trkpt lat="43.85744" lon="6.96314">
        <ele>698.2</ele>
        <time>2025-03-15T09:11:07Z</time>
      </trkpt>
      <trkpt lat="43.85747" lon="6.96312">
        <ele>696.6</ele>
        <time>2025-03-15T09:11:07Z</time>
      </trkpt>
      <trkpt lat="43.85754" lon="6.96316">
        <ele>695.3</ele>
        <time>2025-03-15T09:11:07Z</time>
      </trkpt>
      <trkpt lat="43.85757" lon="6.96319">
        <ele>693.7</ele>
        <time>2025-03-15T09:11:07Z</time>
      </trkpt>
      <trkpt lat="43.85759" lon="6.96316">
        <ele>693.5</ele>
        <time>2025-03-15T09:11:07Z</time>
      </trkpt>
      <trkpt lat="43.85758" lon="6.96306">
        <ele>692.6</ele>
        <time>2025-03-15T09:11:07Z</time>
      </trkpt>
      <trkpt lat="43.85756" lon="6.96296">
        <ele>690.1</ele>
        <time>2025-03-15T09:11:07Z</time>
      </trkpt>
      <trkpt lat="43.85756" lon="6.96291">
        <ele>689.1</ele>
        <time>2025-03-15T09:11:07Z</time>
      </trkpt>
      <trkpt lat="43.85759" lon="6.9629">
        <ele>689.1</ele>
        <time>2025-03-15T09:11:07Z</time>
      </trkpt>
      <trkpt lat="43.85763" lon="6.96294">
        <ele>688.5</ele>
        <time>2025-03-15T09:11:07Z</time>
      </trkpt>
      <trkpt lat="43.85768" lon="6.96297">
        <ele>685.1</ele>
        <time>2025-03-15T09:11:07Z</time>
      </trkpt>
      <trkpt lat="43.85772" lon="6.96295">
        <ele>685.1</ele>
        <time>2025-03-15T09:11:07Z</time>
      </trkpt>
      <trkpt lat="43.85775" lon="6.96299">
        <ele>684.2</ele>
        <time>2025-03-15T09:11:07Z</time>
      </trkpt>
      <trkpt lat="43.85778" lon="6.96302">
        <ele>683</ele>
        <time>2025-03-15T09:11:07Z</time>
      </trkpt>
      <trkpt lat="43.85782" lon="6.96306">
        <ele>681.5</ele>
        <time>2025-03-15T09:11:07Z</time>
      </trkpt>
      <trkpt lat="43.85787" lon="6.96309">
        <ele>679.5</ele>
        <time>2025-03-15T09:11:07Z</time>
      </trkpt>
      <trkpt lat="43.85789" lon="6.96309">
        <ele>679.5</ele>
        <time>2025-03-15T09:11:07Z</time>
      </trkpt>
      <trkpt lat="43.8579" lon="6.96304">
        <ele>677.3</ele>
        <time>2025-03-15T09:11:07Z</time>
      </trkpt>
      <trkpt lat="43.85791" lon="6.96297">
        <ele>676.2</ele>
        <time>2025-03-15T09:11:07Z</time>
      </trkpt>
      <trkpt lat="43.85795" lon="6.96299">
        <ele>674.9</ele>
        <time>2025-03-15T09:11:07Z</time>
      </trkpt>
      <trkpt lat="43.85799" lon="6.96308">
        <ele>673.5</ele>
        <time>2025-03-15T09:11:07Z</time>
      </trkpt>
      <trkpt lat="43.85802" lon="6.96312">
        <ele>673.5</ele>
        <time>2025-03-15T09:11:07Z</time>
      </trkpt>
      <trkpt lat="43.85803" lon="6.96307">
        <ele>671.4</ele>
        <time>2025-03-15T09:11:07Z</time>
      </trkpt>
      <trkpt lat="43.85805" lon="6.96302">
        <ele>671.3</ele>
        <time>2025-03-15T09:11:07Z</time>
      </trkpt>
      <trkpt lat="43.85807" lon="6.96297">
        <ele>668.6</ele>
        <time>2025-03-15T09:11:07Z</time>
      </trkpt>
      <trkpt lat="43.85806" lon="6.96288">
        <ele>668.8</ele>
        <time>2025-03-15T09:11:07Z</time>
      </trkpt>
      <trkpt lat="43.85806" lon="6.96282">
        <ele>667.7</ele>
        <time>2025-03-15T09:11:07Z</time>
      </trkpt>
      <trkpt lat="43.8581" lon="6.96285">
        <ele>667</ele>
        <time>2025-03-15T09:11:07Z</time>
      </trkpt>
      <trkpt lat="43.85818" lon="6.96293">
        <ele>664.6</ele>
        <time>2025-03-15T09:11:07Z</time>
      </trkpt>
      <trkpt lat="43.85823" lon="6.96299">
        <ele>662.7</ele>
        <time>2025-03-15T09:11:07Z</time>
      </trkpt>
      <trkpt lat="43.85826" lon="6.96297">
        <ele>660.5</ele>
        <time>2025-03-15T09:11:07Z</time>
      </trkpt>
      <trkpt lat="43.85826" lon="6.96292">
        <ele>660.2</ele>
        <time>2025-03-15T09:11:07Z</time>
      </trkpt>
      <trkpt lat="43.85826" lon="6.96283">
        <ele>658.7</ele>
        <time>2025-03-15T09:11:07Z</time>
      </trkpt>
      <trkpt lat="43.85828" lon="6.96282">
        <ele>658.7</ele>
        <time>2025-03-15T09:11:07Z</time>
      </trkpt>
      <trkpt lat="43.85832" lon="6.96284">
        <ele>656.8</ele>
        <time>2025-03-15T09:11:07Z</time>
      </trkpt>
      <trkpt lat="43.85835" lon="6.96286">
        <ele>655.5</ele>
        <time>2025-03-15T09:11:07Z</time>
      </trkpt>
      <trkpt lat="43.85838" lon="6.96289">
        <ele>653.8</ele>
        <time>2025-03-15T09:11:07Z</time>
      </trkpt>
      <trkpt lat="43.85839" lon="6.96286">
        <ele>653.5</ele>
        <time>2025-03-15T09:11:07Z</time>
      </trkpt>
      <trkpt lat="43.85839" lon="6.96284">
        <ele>652.8</ele>
        <time>2025-03-15T09:11:07Z</time>
      </trkpt>
      <trkpt lat="43.8584" lon="6.96281">
        <ele>652.8</ele>
        <time>2025-03-15T09:11:07Z</time>
      </trkpt>
      <trkpt lat="43.85842" lon="6.9628">
        <ele>650.1</ele>
        <time>2025-03-15T09:11:07Z</time>
      </trkpt>
      <trkpt lat="43.85845" lon="6.96281">
        <ele>650.9</ele>
        <time>2025-03-15T09:11:07Z</time>
      </trkpt>
      <trkpt lat="43.85851" lon="6.96291">
        <ele>647.3</ele>
        <time>2025-03-15T09:11:07Z</time>
      </trkpt>
      <trkpt lat="43.85856" lon="6.96297">
        <ele>644.9</ele>
        <time>2025-03-15T09:11:07Z</time>
      </trkpt>
      <trkpt lat="43.85861" lon="6.96296">
        <ele>642.7</ele>
        <time>2025-03-15T09:11:07Z</time>
      </trkpt>
      <trkpt lat="43.85866" lon="6.96292">
        <ele>641</ele>
        <time>2025-03-15T09:11:07Z</time>
      </trkpt>
      <trkpt lat="43.85869" lon="6.9629">
        <ele>639</ele>
        <time>2025-03-15T09:11:07Z</time>
      </trkpt>
      <trkpt lat="43.85872" lon="6.96291">
        <ele>636.9</ele>
        <time>2025-03-15T09:11:07Z</time>
      </trkpt>
      <trkpt lat="43.85872" lon="6.96298">
        <ele>636</ele>
        <time>2025-03-15T09:11:07Z</time>
      </trkpt>
      <trkpt lat="43.8587" lon="6.96308">
        <ele>636.8</ele>
        <time>2025-03-15T09:11:07Z</time>
      </trkpt>
      <trkpt lat="43.85868" lon="6.96314">
        <ele>636.1</ele>
        <time>2025-03-15T09:11:07Z</time>
      </trkpt>
      <trkpt lat="43.85872" lon="6.96322">
        <ele>632.7</ele>
        <time>2025-03-15T09:11:07Z</time>
      </trkpt>
      <trkpt lat="43.85875" lon="6.96342">
        <ele>629.8</ele>
        <time>2025-03-15T09:11:07Z</time>
      </trkpt>
      <trkpt lat="43.85878" lon="6.96373">
        <ele>623.3</ele>
        <time>2025-03-15T09:11:07Z</time>
      </trkpt>
      <trkpt lat="43.85877" lon="6.9639">
        <ele>619.7</ele>
        <time>2025-03-15T09:11:07Z</time>
      </trkpt>
      <trkpt lat="43.85868" lon="6.96412">
        <ele>618</ele>
        <time>2025-03-15T09:11:07Z</time>
      </trkpt>
      <trkpt lat="43.85868" lon="6.96425">
        <ele>614.9</ele>
        <time>2025-03-15T09:11:07Z</time>
      </trkpt>
      <trkpt lat="43.85868" lon="6.96436">
        <ele>612</ele>
        <time>2025-03-15T09:11:07Z</time>
      </trkpt>
      <trkpt lat="43.85873" lon="6.96443">
        <ele>609.1</ele>
        <time>2025-03-15T09:11:07Z</time>
      </trkpt>
      <trkpt lat="43.85877" lon="6.96445">
        <ele>606.3</ele>
        <time>2025-03-15T09:11:07Z</time>
      </trkpt>
      <trkpt lat="43.85878" lon="6.96453">
        <ele>604.3</ele>
        <time>2025-03-15T09:11:07Z</time>
      </trkpt>
      <trkpt lat="43.85885" lon="6.9646">
        <ele>599.9</ele>
        <time>2025-03-15T09:11:07Z</time>
      </trkpt>
      <trkpt lat="43.85891" lon="6.96467">
        <ele>596.3</ele>
        <time>2025-03-15T09:11:07Z</time>
      </trkpt>
      <trkpt lat="43.85899" lon="6.96473">
        <ele>591.2</ele>
        <time>2025-03-15T09:11:07Z</time>
      </trkpt>
      <trkpt lat="43.85898" lon="6.96482">
        <ele>588</ele>
        <time>2025-03-15T09:11:07Z</time>
      </trkpt>
      <trkpt lat="43.85888" lon="6.96495">
        <ele>588.5</ele>
        <time>2025-03-15T09:11:07Z</time>
      </trkpt>
      <trkpt lat="43.85881" lon="6.96511">
        <ele>585.9</ele>
        <time>2025-03-15T09:11:07Z</time>
      </trkpt>
      <trkpt lat="43.85877" lon="6.96517">
        <ele>585.5</ele>
        <time>2025-03-15T09:11:07Z</time>
      </trkpt>
      <trkpt lat="43.85878" lon="6.96528">
        <ele>584.8</ele>
        <time>2025-03-15T09:11:07Z</time>
      </trkpt>
      <trkpt lat="43.85892" lon="6.96529">
        <ele>581.3</ele>
        <time>2025-03-15T09:11:07Z</time>
      </trkpt>
      <trkpt lat="43.85918" lon="6.96511">
        <ele>573.5</ele>
        <time>2025-03-15T09:11:07Z</time>
      </trkpt>
      <trkpt lat="43.85932" lon="6.96498">
        <ele>567.5</ele>
        <time>2025-03-15T09:11:07Z</time>
      </trkpt>
      <trkpt lat="43.85938" lon="6.96488">
        <ele>565.8</ele>
        <time>2025-03-15T09:11:07Z</time>
      </trkpt>
      <trkpt lat="43.85939" lon="6.96469">
        <ele>566.3</ele>
        <time>2025-03-15T09:11:07Z</time>
      </trkpt>
      <trkpt lat="43.85945" lon="6.96488">
        <ele>562.2</ele>
        <time>2025-03-15T09:11:07Z</time>
      </trkpt>
      <trkpt lat="43.85946" lon="6.96504">
        <ele>561.6</ele>
        <time>2025-03-15T09:11:07Z</time>
      </trkpt>
      <trkpt lat="43.85941" lon="6.9652">
        <ele>562.3</ele>
        <time>2025-03-15T09:11:07Z</time>
      </trkpt>
      <trkpt lat="43.85942" lon="6.96537">
        <ele>562.7</ele>
        <time>2025-03-15T09:11:07Z</time>
      </trkpt>
      <trkpt lat="43.85951" lon="6.96549">
        <ele>564.8</ele>
        <time>2025-03-15T09:11:07Z</time>
      </trkpt>
      <trkpt lat="43.85959" lon="6.96546">
        <ele>566.2</ele>
        <time>2025-03-15T09:11:07Z</time>
      </trkpt>
      <trkpt lat="43.85973" lon="6.96516">
        <ele>561.6</ele>
        <time>2025-03-15T09:11:07Z</time>
      </trkpt>
      <trkpt lat="43.85995" lon="6.96493">
        <ele>557.6</ele>
        <time>2025-03-15T09:11:07Z</time>
      </trkpt>
      <trkpt lat="43.86" lon="6.96483">
        <ele>557.7</ele>
        <time>2025-03-15T09:11:07Z</time>
      </trkpt>
      <trkpt lat="43.86012" lon="6.96466">
        <ele>555.1</ele>
        <time>2025-03-15T09:11:07Z</time>
      </trkpt>
      <trkpt lat="43.86019" lon="6.96447">
        <ele>553.2</ele>
        <time>2025-03-15T09:11:07Z</time>
      </trkpt>
      <trkpt lat="43.86025" lon="6.96428">
        <ele>551.1</ele>
        <time>2025-03-15T09:11:07Z</time>
      </trkpt>
      <trkpt lat="43.86032" lon="6.96408">
        <ele>548</ele>
        <time>2025-03-15T09:11:07Z</time>
      </trkpt>
      <trkpt lat="43.86041" lon="6.96393">
        <ele>547.5</ele>
        <time>2025-03-15T09:11:07Z</time>
      </trkpt>
      <trkpt lat="43.86049" lon="6.96387">
        <ele>547</ele>
        <time>2025-03-15T09:11:07Z</time>
      </trkpt>
      <trkpt lat="43.8606" lon="6.96378">
        <ele>544.8</ele>
        <time>2025-03-15T09:11:07Z</time>
      </trkpt>
      <trkpt lat="43.86069" lon="6.96373">
        <ele>543.6</ele>
        <time>2025-03-15T09:11:07Z</time>
      </trkpt>
      <trkpt lat="43.86076" lon="6.96368">
        <ele>542.7</ele>
        <time>2025-03-15T09:11:07Z</time>
      </trkpt>
      <trkpt lat="43.86084" lon="6.96357">
        <ele>541.5</ele>
        <time>2025-03-15T09:11:07Z</time>
      </trkpt>
      <trkpt lat="43.86094" lon="6.96331">
        <ele>537.7</ele>
        <time>2025-03-15T09:11:07Z</time>
      </trkpt>
      <trkpt lat="43.86105" lon="6.96307">
        <ele>537.5</ele>
        <time>2025-03-15T09:11:07Z</time>
      </trkpt>
      <trkpt lat="43.86111" lon="6.96289">
        <ele>534.5</ele>
        <time>2025-03-15T09:11:07Z</time>
      </trkpt>
      <trkpt lat="43.86113" lon="6.96274">
        <ele>531.6</ele>
        <time>2025-03-15T09:11:07Z</time>
      </trkpt>
      <trkpt lat="43.86115" lon="6.96243">
        <ele>523.5</ele>
        <time>2025-03-15T09:11:07Z</time>
      </trkpt>
      <trkpt lat="43.86116" lon="6.96223">
        <ele>521</ele>
        <time>2025-03-15T09:11:07Z</time>
      </trkpt>
      <trkpt lat="43.86118" lon="6.96217">
        <ele>520.1</ele>
        <time>2025-03-15T09:11:07Z</time>
      </trkpt>
      <trkpt lat="43.8612" lon="6.96214">
        <ele>519.9</ele>
        <time>2025-03-15T09:11:07Z</time>
      </trkpt>
      <trkpt lat="43.86126" lon="6.96214">
        <ele>520</ele>
        <time>2025-03-15T09:11:07Z</time>
      </trkpt>
      <trkpt lat="43.86133" lon="6.96218">
        <ele>520.3</ele>
        <time>2025-03-15T09:11:07Z</time>
      </trkpt>
      <trkpt lat="43.86144" lon="6.9623">
        <ele>522.7</ele>
        <time>2025-03-15T09:11:07Z</time>
      </trkpt>
      <trkpt lat="43.86162" lon="6.96251">
        <ele>524.4</ele>
        <time>2025-03-15T09:11:07Z</time>
      </trkpt>
      <trkpt lat="43.86178" lon="6.96265">
        <ele>521.2</ele>
        <time>2025-03-15T09:11:07Z</time>
      </trkpt>
      <trkpt lat="43.86195" lon="6.96273">
        <ele>516.7</ele>
        <time>2025-03-15T09:11:07Z</time>
      </trkpt>
      <trkpt lat="43.86208" lon="6.96283">
        <ele>514.2</ele>
        <time>2025-03-15T09:11:07Z</time>
      </trkpt>
      <trkpt lat="43.86216" lon="6.96292">
        <ele>512.9</ele>
        <time>2025-03-15T09:11:07Z</time>
      </trkpt>
      <trkpt lat="43.86227" lon="6.96303">
        <ele>511.9</ele>
        <time>2025-03-15T09:11:07Z</time>
      </trkpt>
      <trkpt lat="43.86236" lon="6.96313">
        <ele>505.5</ele>
        <time>2025-03-15T09:11:07Z</time>
      </trkpt>
      <trkpt lat="43.86244" lon="6.96332">
        <ele>506.4</ele>
        <time>2025-03-15T09:11:07Z</time>
      </trkpt>
      <trkpt lat="43.86249" lon="6.96348">
        <ele>502.5</ele>
        <time>2025-03-15T09:11:07Z</time>
      </trkpt>
      <trkpt lat="43.86251" lon="6.96384">
        <ele>503.5</ele>
        <time>2025-03-15T09:11:07Z</time>
      </trkpt>
      <trkpt lat="43.86255" lon="6.96401">
        <ele>500.6</ele>
        <time>2025-03-15T09:11:07Z</time>
      </trkpt>
      <trkpt lat="43.8626" lon="6.96429">
        <ele>496.2</ele>
        <time>2025-03-15T09:11:07Z</time>
      </trkpt>
      <trkpt lat="43.86263" lon="6.96482">
        <ele>492.4</ele>
        <time>2025-03-15T09:11:07Z</time>
      </trkpt>
      <trkpt lat="43.86273" lon="6.96502">
        <ele>489.3</ele>
        <time>2025-03-15T09:11:07Z</time>
      </trkpt>
      <trkpt lat="43.8628" lon="6.96501">
        <ele>485.3</ele>
        <time>2025-03-15T09:11:07Z</time>
      </trkpt>
      <trkpt lat="43.8629" lon="6.96487">
        <ele>481.3</ele>
        <time>2025-03-15T09:11:07Z</time>
      </trkpt>
      <trkpt lat="43.86298" lon="6.9646">
        <ele>474.6</ele>
        <time>2025-03-15T09:11:07Z</time>
      </trkpt>
      <trkpt lat="43.86319" lon="6.96429">
        <ele>464.3</ele>
        <time>2025-03-15T09:11:07Z</time>
      </trkpt>
      <trkpt lat="43.86329" lon="6.96409">
        <ele>460.5</ele>
        <time>2025-03-15T09:11:07Z</time>
      </trkpt>
      <trkpt lat="43.86333" lon="6.96442">
        <ele>460.6</ele>
        <time>2025-03-15T09:11:07Z</time>
      </trkpt>
      <trkpt lat="43.86334" lon="6.96491">
        <ele>464</ele>
        <time>2025-03-15T09:11:07Z</time>
      </trkpt>
      <trkpt lat="43.86328" lon="6.96522">
        <ele>465.4</ele>
        <time>2025-03-15T09:11:07Z</time>
      </trkpt>
      <trkpt lat="43.86322" lon="6.96531">
        <ele>466.6</ele>
        <time>2025-03-15T09:11:07Z</time>
      </trkpt>
      <trkpt lat="43.86312" lon="6.96543">
        <ele>472.3</ele>
        <time>2025-03-15T09:11:07Z</time>
      </trkpt>
      <trkpt lat="43.86315" lon="6.9656">
        <ele>469.8</ele>
        <time>2025-03-15T09:11:07Z</time>
      </trkpt>
      <trkpt lat="43.86328" lon="6.96584">
        <ele>465.3</ele>
        <time>2025-03-15T09:11:07Z</time>
      </trkpt>
      <trkpt lat="43.86331" lon="6.96601">
        <ele>464.1</ele>
        <time>2025-03-15T09:11:07Z</time>
      </trkpt>
      <trkpt lat="43.86328" lon="6.96613">
        <ele>465.4</ele>
        <time>2025-03-15T09:11:07Z</time>
      </trkpt>
      <trkpt lat="43.86323" lon="6.96624">
        <ele>466.8</ele>
        <time>2025-03-15T09:11:07Z</time>
      </trkpt>
      <trkpt lat="43.86314" lon="6.96638">
        <ele>471.9</ele>
        <time>2025-03-15T09:11:07Z</time>
      </trkpt>
      <trkpt lat="43.86306" lon="6.96655">
        <ele>476.7</ele>
        <time>2025-03-15T09:11:07Z</time>
      </trkpt>
      <trkpt lat="43.86317" lon="6.96667">
        <ele>473.5</ele>
        <time>2025-03-15T09:11:07Z</time>
      </trkpt>
      <trkpt lat="43.86327" lon="6.96684">
        <ele>470.7</ele>
        <time>2025-03-15T09:11:07Z</time>
      </trkpt>
      <trkpt lat="43.86333" lon="6.967">
        <ele>471.5</ele>
        <time>2025-03-15T09:11:07Z</time>
      </trkpt>
      <trkpt lat="43.86342" lon="6.96763">
        <ele>477.8</ele>
        <time>2025-03-15T09:11:07Z</time>
      </trkpt>
      <trkpt lat="43.8635" lon="6.96812">
        <ele>474.9</ele>
        <time>2025-03-15T09:11:07Z</time>
      </trkpt>
      <trkpt lat="43.86349" lon="6.96829">
        <ele>475.7</ele>
        <time>2025-03-15T09:11:07Z</time>
      </trkpt>
      <trkpt lat="43.86346" lon="6.9685">
        <ele>478.9</ele>
        <time>2025-03-15T09:11:07Z</time>
      </trkpt>
      <trkpt lat="43.86345" lon="6.96863">
        <ele>479.9</ele>
        <time>2025-03-15T09:11:07Z</time>
      </trkpt>
      <trkpt lat="43.86353" lon="6.96884">
        <ele>478.9</ele>
        <time>2025-03-15T09:11:07Z</time>
      </trkpt>
      <trkpt lat="43.8636" lon="6.96897">
        <ele>479.4</ele>
        <time>2025-03-15T09:11:07Z</time>
      </trkpt>
      <trkpt lat="43.86363" lon="6.96912">
        <ele>479.1</ele>
        <time>2025-03-15T09:11:07Z</time>
      </trkpt>
      <trkpt lat="43.86364" lon="6.96923">
        <ele>479.4</ele>
        <time>2025-03-15T09:11:07Z</time>
      </trkpt>
      <trkpt lat="43.86363" lon="6.96935">
        <ele>479.3</ele>
        <time>2025-03-15T09:11:07Z</time>
      </trkpt>
      <trkpt lat="43.86362" lon="6.96943">
        <ele>478.7</ele>
        <time>2025-03-15T09:11:07Z</time>
      </trkpt>
      <trkpt lat="43.86357" lon="6.96965">
        <ele>479.6</ele>
        <time>2025-03-15T09:11:07Z</time>
      </trkpt>
      <trkpt lat="43.86345" lon="6.97015">
        <ele>480.4</ele>
        <time>2025-03-15T09:11:07Z</time>
      </trkpt>
      <trkpt lat="43.86334" lon="6.97052">
        <ele>481.4</ele>
        <time>2025-03-15T09:11:07Z</time>
      </trkpt>
      <trkpt lat="43.86332" lon="6.97058">
        <ele>480.4</ele>
        <time>2025-03-15T09:11:07Z</time>
      </trkpt>
      <trkpt lat="43.86331" lon="6.97069">
        <ele>480.3</ele>
        <time>2025-03-15T09:11:07Z</time>
      </trkpt>
      <trkpt lat="43.86331" lon="6.97077">
        <ele>480.9</ele>
        <time>2025-03-15T09:11:07Z</time>
      </trkpt>
      <trkpt lat="43.86334" lon="6.9708">
        <ele>481.5</ele>
        <time>2025-03-15T09:11:07Z</time>
      </trkpt>
      <trkpt lat="43.86339" lon="6.97085">
        <ele>480.9</ele>
        <time>2025-03-15T09:11:07Z</time>
      </trkpt>
      <trkpt lat="43.86358" lon="6.97091">
        <ele>480.3</ele>
        <time>2025-03-15T09:11:07Z</time>
      </trkpt>
      <trkpt lat="43.86377" lon="6.97099">
        <ele>481.6</ele>
        <time>2025-03-15T09:11:07Z</time>
      </trkpt>
      <trkpt lat="43.86389" lon="6.97105">
        <ele>485.5</ele>
        <time>2025-03-15T09:11:07Z</time>
      </trkpt>
      <trkpt lat="43.86395" lon="6.97111">
        <ele>486</ele>
        <time>2025-03-15T09:11:07Z</time>
      </trkpt>
      <trkpt lat="43.864" lon="6.97121">
        <ele>487.8</ele>
        <time>2025-03-15T09:11:07Z</time>
      </trkpt>
      <trkpt lat="43.86407" lon="6.97135">
        <ele>491.4</ele>
        <time>2025-03-15T09:11:07Z</time>
      </trkpt>
      <trkpt lat="43.86413" lon="6.97153">
        <ele>492.4</ele>
        <time>2025-03-15T09:11:07Z</time>
      </trkpt>
      <trkpt lat="43.86423" lon="6.97179">
        <ele>494.8</ele>
        <time>2025-03-15T09:11:07Z</time>
      </trkpt>
      <trkpt lat="43.86431" lon="6.97204">
        <ele>494.3</ele>
        <time>2025-03-15T09:11:07Z</time>
      </trkpt>
      <trkpt lat="43.8644" lon="6.97226">
        <ele>493.1</ele>
        <time>2025-03-15T09:11:07Z</time>
      </trkpt>
      <trkpt lat="43.86445" lon="6.97245">
        <ele>494.3</ele>
        <time>2025-03-15T09:11:07Z</time>
      </trkpt>
      <trkpt lat="43.8645" lon="6.97266">
        <ele>496.3</ele>
        <time>2025-03-15T09:11:07Z</time>
      </trkpt>
      <trkpt lat="43.86461" lon="6.97293">
        <ele>494.9</ele>
        <time>2025-03-15T09:11:07Z</time>
      </trkpt>
      <trkpt lat="43.86474" lon="6.9733">
        <ele>494</ele>
        <time>2025-03-15T09:11:07Z</time>
      </trkpt>
      <trkpt lat="43.86478" lon="6.97354">
        <ele>494.7</ele>
        <time>2025-03-15T09:11:07Z</time>
      </trkpt>
      <trkpt lat="43.86482" lon="6.97372">
        <ele>494</ele>
        <time>2025-03-15T09:11:07Z</time>
      </trkpt>
      <trkpt lat="43.86487" lon="6.97389">
        <ele>493.5</ele>
        <time>2025-03-15T09:11:07Z</time>
      </trkpt>
      <trkpt lat="43.86491" lon="6.97404">
        <ele>493.1</ele>
        <time>2025-03-15T09:11:07Z</time>
      </trkpt>
      <trkpt lat="43.86494" lon="6.97416">
        <ele>492.8</ele>
        <time>2025-03-15T09:11:07Z</time>
      </trkpt>
      <trkpt lat="43.86496" lon="6.97425">
        <ele>494.2</ele>
        <time>2025-03-15T09:11:07Z</time>
      </trkpt>
      <trkpt lat="43.865" lon="6.97433">
        <ele>493.8</ele>
        <time>2025-03-15T09:11:07Z</time>
      </trkpt>
      <trkpt lat="43.86503" lon="6.97441">
        <ele>492.5</ele>
        <time>2025-03-15T09:11:07Z</time>
      </trkpt>
      <trkpt lat="43.86505" lon="6.9745">
        <ele>492.3</ele>
        <time>2025-03-15T09:11:07Z</time>
      </trkpt>
      <trkpt lat="43.86503" lon="6.97458">
        <ele>491.8</ele>
        <time>2025-03-15T09:11:07Z</time>
      </trkpt>
      <trkpt lat="43.86496" lon="6.9747">
        <ele>495.5</ele>
        <time>2025-03-15T09:11:07Z</time>
      </trkpt>
      <trkpt lat="43.86489" lon="6.97478">
        <ele>497.4</ele>
        <time>2025-03-15T09:11:07Z</time>
      </trkpt>
      <trkpt lat="43.86487" lon="6.97485">
        <ele>499.8</ele>
        <time>2025-03-15T09:11:07Z</time>
      </trkpt>
      <trkpt lat="43.86488" lon="6.97491">
        <ele>501</ele>
        <time>2025-03-15T09:11:07Z</time>
      </trkpt>
      <trkpt lat="43.86492" lon="6.97496">
        <ele>499.9</ele>
        <time>2025-03-15T09:11:07Z</time>
      </trkpt>
      <trkpt lat="43.86497" lon="6.97496">
        <ele>498.1</ele>
        <time>2025-03-15T09:11:07Z</time>
      </trkpt>
      <trkpt lat="43.86504" lon="6.97495">
        <ele>494.3</ele>
        <time>2025-03-15T09:11:07Z</time>
      </trkpt>
      <trkpt lat="43.86507" lon="6.97495">
        <ele>492.2</ele>
        <time>2025-03-15T09:11:07Z</time>
      </trkpt>
      <trkpt lat="43.86511" lon="6.97497">
        <ele>490</ele>
        <time>2025-03-15T09:11:07Z</time>
      </trkpt>
      <trkpt lat="43.86512" lon="6.97507">
        <ele>492.4</ele>
        <time>2025-03-15T09:11:07Z</time>
      </trkpt>
      <trkpt lat="43.86515" lon="6.97517">
        <ele>492</ele>
        <time>2025-03-15T09:11:07Z</time>
      </trkpt>
      <trkpt lat="43.86519" lon="6.97526">
        <ele>489.6</ele>
        <time>2025-03-15T09:11:07Z</time>
      </trkpt>
      <trkpt lat="43.86523" lon="6.97531">
        <ele>489.6</ele>
        <time>2025-03-15T09:11:07Z</time>
      </trkpt>
      <trkpt lat="43.86525" lon="6.9754">
        <ele>487</ele>
        <time>2025-03-15T09:11:07Z</time>
      </trkpt>
      <trkpt lat="43.86524" lon="6.97551">
        <ele>487.5</ele>
        <time>2025-03-15T09:11:07Z</time>
      </trkpt>
      <trkpt lat="43.86524" lon="6.9756">
        <ele>488.4</ele>
        <time>2025-03-15T09:11:07Z</time>
      </trkpt>
      <trkpt lat="43.86525" lon="6.97564">
        <ele>489</ele>
        <time>2025-03-15T09:11:07Z</time>
      </trkpt>
      <trkpt lat="43.86526" lon="6.97568">
        <ele>490.1</ele>
        <time>2025-03-15T09:11:07Z</time>
      </trkpt>
      <trkpt lat="43.86531" lon="6.97574">
        <ele>490.4</ele>
        <time>2025-03-15T09:11:07Z</time>
      </trkpt>
      <trkpt lat="43.86534" lon="6.97575">
        <ele>489.1</ele>
        <time>2025-03-15T09:11:07Z</time>
      </trkpt>
      <trkpt lat="43.86543" lon="6.9758">
        <ele>488.2</ele>
        <time>2025-03-15T09:11:07Z</time>
      </trkpt>
      <trkpt lat="43.86554" lon="6.97588">
        <ele>487.4</ele>
        <time>2025-03-15T09:11:07Z</time>
      </trkpt>
      <trkpt lat="43.86562" lon="6.97594">
        <ele>487.8</ele>
        <time>2025-03-15T09:11:07Z</time>
      </trkpt>
      <trkpt lat="43.86571" lon="6.97604">
        <ele>488.3</ele>
        <time>2025-03-15T09:11:07Z</time>
      </trkpt>
      <trkpt lat="43.8658" lon="6.97618">
        <ele>489.4</ele>
        <time>2025-03-15T09:11:07Z</time>
      </trkpt>
      <trkpt lat="43.86588" lon="6.97633">
        <ele>490.3</ele>
        <time>2025-03-15T09:11:07Z</time>
      </trkpt>
      <trkpt lat="43.86597" lon="6.97652">
        <ele>491.9</ele>
        <time>2025-03-15T09:11:07Z</time>
      </trkpt>
      <trkpt lat="43.86605" lon="6.97664">
        <ele>491.7</ele>
        <time>2025-03-15T09:11:07Z</time>
      </trkpt>
      <trkpt lat="43.86618" lon="6.97682">
        <ele>490.6</ele>
        <time>2025-03-15T09:11:07Z</time>
      </trkpt>
      <trkpt lat="43.86638" lon="6.9772">
        <ele>492.2</ele>
        <time>2025-03-15T09:11:07Z</time>
      </trkpt>
      <trkpt lat="43.86648" lon="6.97742">
        <ele>488.1</ele>
        <time>2025-03-15T09:11:07Z</time>
      </trkpt>
      <trkpt lat="43.86655" lon="6.97762">
        <ele>488.5</ele>
        <time>2025-03-15T09:11:07Z</time>
      </trkpt>
      <trkpt lat="43.86658" lon="6.97771">
        <ele>487.2</ele>
        <time>2025-03-15T09:11:07Z</time>
      </trkpt>
      <trkpt lat="43.86661" lon="6.97791">
        <ele>487.3</ele>
        <time>2025-03-15T09:11:07Z</time>
      </trkpt>
      <trkpt lat="43.86662" lon="6.97796">
        <ele>488</ele>
        <time>2025-03-15T09:11:07Z</time>
      </trkpt>
      <trkpt lat="43.86674" lon="6.97814">
        <ele>484.1</ele>
        <time>2025-03-15T09:11:07Z</time>
      </trkpt>
      <trkpt lat="43.86682" lon="6.97833">
        <ele>486</ele>
        <time>2025-03-15T09:11:07Z</time>
      </trkpt>
      <trkpt lat="43.86694" lon="6.9786">
        <ele>487.8</ele>
        <time>2025-03-15T09:11:07Z</time>
      </trkpt>
      <trkpt lat="43.86715" lon="6.97892">
        <ele>487.4</ele>
        <time>2025-03-15T09:11:07Z</time>
      </trkpt>
      <trkpt lat="43.86738" lon="6.97918">
        <ele>481.4</ele>
        <time>2025-03-15T09:11:07Z</time>
      </trkpt>
      <trkpt lat="43.86745" lon="6.97927">
        <ele>481.3</ele>
        <time>2025-03-15T09:11:07Z</time>
      </trkpt>
      <trkpt lat="43.86755" lon="6.97943">
        <ele>478.9</ele>
        <time>2025-03-15T09:11:07Z</time>
      </trkpt>
      <trkpt lat="43.86763" lon="6.97964">
        <ele>481</ele>
        <time>2025-03-15T09:11:07Z</time>
      </trkpt>
      <trkpt lat="43.86768" lon="6.97984">
        <ele>480.2</ele>
        <time>2025-03-15T09:11:07Z</time>
      </trkpt>
      <trkpt lat="43.86771" lon="6.97996">
        <ele>481.5</ele>
        <time>2025-03-15T09:11:07Z</time>
      </trkpt>
      <trkpt lat="43.86775" lon="6.98017">
        <ele>481.9</ele>
        <time>2025-03-15T09:11:07Z</time>
      </trkpt>
      <trkpt lat="43.86782" lon="6.98038">
        <ele>479.9</ele>
        <time>2025-03-15T09:11:07Z</time>
      </trkpt>
      <trkpt lat="43.86795" lon="6.98077">
        <ele>482.1</ele>
        <time>2025-03-15T09:11:07Z</time>
      </trkpt>
      <trkpt lat="43.86801" lon="6.98096">
        <ele>485.2</ele>
        <time>2025-03-15T09:11:07Z</time>
      </trkpt>
      <trkpt lat="43.8681" lon="6.98123">
        <ele>486.8</ele>
        <time>2025-03-15T09:11:07Z</time>
      </trkpt>
      <trkpt lat="43.86819" lon="6.98143">
        <ele>486.5</ele>
        <time>2025-03-15T09:11:07Z</time>
      </trkpt>
      <trkpt lat="43.86827" lon="6.98165">
        <ele>482.2</ele>
        <time>2025-03-15T09:11:07Z</time>
      </trkpt>
      <trkpt lat="43.86828" lon="6.98171">
        <ele>479</ele>
        <time>2025-03-15T09:11:07Z</time>
      </trkpt>
      <trkpt lat="43.86827" lon="6.98174">
        <ele>481.7</ele>
        <time>2025-03-15T09:11:07Z</time>
      </trkpt>
      <trkpt lat="43.86825" lon="6.98177">
        <ele>481.3</ele>
        <time>2025-03-15T09:11:07Z</time>
      </trkpt>
      <trkpt lat="43.86823" lon="6.98183">
        <ele>483.9</ele>
        <time>2025-03-15T09:11:07Z</time>
      </trkpt>
      <trkpt lat="43.8682" lon="6.98191">
        <ele>483.1</ele>
        <time>2025-03-15T09:11:07Z</time>
      </trkpt>
      <trkpt lat="43.86817" lon="6.982">
        <ele>485.7</ele>
        <time>2025-03-15T09:11:07Z</time>
      </trkpt>
      <trkpt lat="43.86816" lon="6.98204">
        <ele>485.6</ele>
        <time>2025-03-15T09:11:07Z</time>
      </trkpt>
      <trkpt lat="43.86819" lon="6.98206">
        <ele>485.6</ele>
        <time>2025-03-15T09:11:07Z</time>
      </trkpt>
      <trkpt lat="43.86821" lon="6.98208">
        <ele>482.6</ele>
        <time>2025-03-15T09:11:07Z</time>
      </trkpt>
      <trkpt lat="43.86824" lon="6.98214">
        <ele>479.8</ele>
        <time>2025-03-15T09:11:07Z</time>
      </trkpt>
      <trkpt lat="43.86826" lon="6.98217">
        <ele>480</ele>
        <time>2025-03-15T09:11:07Z</time>
      </trkpt>
      <trkpt lat="43.86826" lon="6.9822">
        <ele>480.3</ele>
        <time>2025-03-15T09:11:07Z</time>
      </trkpt>
      <trkpt lat="43.86825" lon="6.98226">
        <ele>480.3</ele>
        <time>2025-03-15T09:11:07Z</time>
      </trkpt>
      <trkpt lat="43.86824" lon="6.98233">
        <ele>480.3</ele>
        <time>2025-03-15T09:11:07Z</time>
      </trkpt>
      <trkpt lat="43.86824" lon="6.98236">
        <ele>480.3</ele>
        <time>2025-03-15T09:11:07Z</time>
      </trkpt>
      <trkpt lat="43.86826" lon="6.98239">
        <ele>480.4</ele>
        <time>2025-03-15T09:11:07Z</time>
      </trkpt>
      <trkpt lat="43.86826" lon="6.9824">
        <ele>480.4</ele>
        <time>2025-03-15T09:11:07Z</time>
      </trkpt>
      <trkpt lat="43.86827" lon="6.98245">
        <ele>480.2</ele>
        <time>2025-03-15T09:11:07Z</time>
      </trkpt>
      <trkpt lat="43.86828" lon="6.98251">
        <ele>476.2</ele>
        <time>2025-03-15T09:11:07Z</time>
      </trkpt>
      <trkpt lat="43.86828" lon="6.98256">
        <ele>475.2</ele>
        <time>2025-03-15T09:11:07Z</time>
      </trkpt>
      <trkpt lat="43.86826" lon="6.98259">
        <ele>477</ele>
        <time>2025-03-15T09:11:07Z</time>
      </trkpt>
      <trkpt lat="43.86822" lon="6.98263">
        <ele>478.8</ele>
        <time>2025-03-15T09:11:07Z</time>
      </trkpt>
      <trkpt lat="43.86817" lon="6.98268">
        <ele>480.6</ele>
        <time>2025-03-15T09:11:07Z</time>
      </trkpt>
      <trkpt lat="43.86814" lon="6.9827">
        <ele>483</ele>
        <time>2025-03-15T09:11:07Z</time>
      </trkpt>
      <trkpt lat="43.86813" lon="6.98273">
        <ele>482.7</ele>
        <time>2025-03-15T09:11:07Z</time>
      </trkpt>
      <trkpt lat="43.86813" lon="6.98274">
        <ele>482.7</ele>
        <time>2025-03-15T09:11:07Z</time>
      </trkpt>
      <trkpt lat="43.86814" lon="6.98277">
        <ele>482.6</ele>
        <time>2025-03-15T09:11:07Z</time>
      </trkpt>
      <trkpt lat="43.86816" lon="6.98281">
        <ele>480.2</ele>
        <time>2025-03-15T09:11:07Z</time>
      </trkpt>
      <trkpt lat="43.86819" lon="6.98287">
        <ele>480.5</ele>
        <time>2025-03-15T09:11:07Z</time>
      </trkpt>
      <trkpt lat="43.86821" lon="6.98294">
        <ele>478.1</ele>
        <time>2025-03-15T09:11:07Z</time>
      </trkpt>
      <trkpt lat="43.86822" lon="6.98303">
        <ele>478.2</ele>
        <time>2025-03-15T09:11:07Z</time>
      </trkpt>
      <trkpt lat="43.86823" lon="6.98313">
        <ele>478.2</ele>
        <time>2025-03-15T09:11:07Z</time>
      </trkpt>
      <trkpt lat="43.86823" lon="6.98323">
        <ele>477.4</ele>
        <time>2025-03-15T09:11:07Z</time>
      </trkpt>
      <trkpt lat="43.86823" lon="6.98331">
        <ele>476.9</ele>
        <time>2025-03-15T09:11:07Z</time>
      </trkpt>
      <trkpt lat="43.86823" lon="6.98339">
        <ele>475.5</ele>
        <time>2025-03-15T09:11:07Z</time>
      </trkpt>
      <trkpt lat="43.86822" lon="6.9834">
        <ele>474.6</ele>
        <time>2025-03-15T09:11:07Z</time>
      </trkpt>
      <trkpt lat="43.86821" lon="6.98345">
        <ele>473.6</ele>
        <time>2025-03-15T09:11:07Z</time>
      </trkpt>
      <trkpt lat="43.86821" lon="6.98356">
        <ele>471.5</ele>
        <time>2025-03-15T09:11:07Z</time>
      </trkpt>
      <trkpt lat="43.86818" lon="6.98366">
        <ele>469.8</ele>
        <time>2025-03-15T09:11:07Z</time>
      </trkpt>
      <trkpt lat="43.86812" lon="6.98398">
        <ele>462.1</ele>
        <time>2025-03-15T09:11:07Z</time>
      </trkpt>
      <trkpt lat="43.86822" lon="6.98387">
        <ele>464.4</ele>
        <time>2025-03-15T09:11:07Z</time>
      </trkpt>
      <trkpt lat="43.86821" lon="6.98397">
        <ele>460.7</ele>
        <time>2025-03-15T09:11:07Z</time>
      </trkpt>
      <trkpt lat="43.86819" lon="6.98408">
        <ele>458.9</ele>
        <time>2025-03-15T09:11:07Z</time>
      </trkpt>
      <trkpt lat="43.86816" lon="6.98421">
        <ele>454.6</ele>
        <time>2025-03-15T09:11:07Z</time>
      </trkpt>
      <trkpt lat="43.86813" lon="6.98433">
        <ele>449.9</ele>
        <time>2025-03-15T09:11:07Z</time>
      </trkpt>
      <trkpt lat="43.86811" lon="6.98439">
        <ele>446.8</ele>
        <time>2025-03-15T09:11:07Z</time>
      </trkpt>
      <trkpt lat="43.86816" lon="6.9844">
        <ele>447.2</ele>
        <time>2025-03-15T09:11:07Z</time>
      </trkpt>
      <trkpt lat="43.86836" lon="6.98417">
        <ele>450.1</ele>
        <time>2025-03-15T09:11:07Z</time>
      </trkpt>
      <trkpt lat="43.86823" lon="6.98454">
        <ele>442.9</ele>
        <time>2025-03-15T09:11:07Z</time>
      </trkpt>
      <trkpt lat="43.86815" lon="6.98471">
        <ele>436.3</ele>
        <time>2025-03-15T09:11:07Z</time>
      </trkpt>
      <trkpt lat="43.86811" lon="6.98478">
        <ele>433.7</ele>
        <time>2025-03-15T09:11:07Z</time>
      </trkpt>
      <trkpt lat="43.86817" lon="6.98478">
        <ele>434.8</ele>
        <time>2025-03-15T09:11:07Z</time>
      </trkpt>
      <trkpt lat="43.86843" lon="6.98452">
        <ele>435.5</ele>
        <time>2025-03-15T09:11:07Z</time>
      </trkpt>
      <trkpt lat="43.86845" lon="6.98456">
        <ele>434.5</ele>
        <time>2025-03-15T09:11:07Z</time>
      </trkpt>
      <trkpt lat="43.86845" lon="6.98463">
        <ele>433.5</ele>
        <time>2025-03-15T09:11:07Z</time>
      </trkpt>
      <trkpt lat="43.86827" lon="6.98513">
        <ele>427.2</ele>
        <time>2025-03-15T09:11:07Z</time>
      </trkpt>
      <trkpt lat="43.86823" lon="6.98525">
        <ele>423.9</ele>
        <time>2025-03-15T09:11:07Z</time>
      </trkpt>
      <trkpt lat="43.86823" lon="6.98531">
        <ele>422.7</ele>
        <time>2025-03-15T09:11:07Z</time>
      </trkpt>
      <trkpt lat="43.86848" lon="6.98511">
        <ele>421.1</ele>
        <time>2025-03-15T09:11:07Z</time>
      </trkpt>
      <trkpt lat="43.86871" lon="6.98489">
        <ele>413.3</ele>
        <time>2025-03-15T09:11:07Z</time>
      </trkpt>
      <trkpt lat="43.86873" lon="6.9849">
        <ele>413.3</ele>
        <time>2025-03-15T09:11:07Z</time>
      </trkpt>
      <trkpt lat="43.86874" lon="6.98493">
        <ele>412.4</ele>
        <time>2025-03-15T09:11:07Z</time>
      </trkpt>
      <trkpt lat="43.86866" lon="6.98517">
        <ele>411.4</ele>
        <time>2025-03-15T09:11:07Z</time>
      </trkpt>
      <trkpt lat="43.86866" lon="6.98525">
        <ele>409.6</ele>
        <time>2025-03-15T09:11:07Z</time>
      </trkpt>
      <trkpt lat="43.86877" lon="6.98515">
        <ele>406.1</ele>
        <time>2025-03-15T09:11:07Z</time>
      </trkpt>
      <trkpt lat="43.86881" lon="6.98515">
        <ele>404</ele>
        <time>2025-03-15T09:11:07Z</time>
      </trkpt>
      <trkpt lat="43.86883" lon="6.98518">
        <ele>403.2</ele>
        <time>2025-03-15T09:11:07Z</time>
      </trkpt>
      <trkpt lat="43.86889" lon="6.98524">
        <ele>398.4</ele>
        <time>2025-03-15T09:11:07Z</time>
      </trkpt>
      <trkpt lat="43.86894" lon="6.98533">
        <ele>395.2</ele>
        <time>2025-03-15T09:11:07Z</time>
      </trkpt>
      <trkpt lat="43.86902" lon="6.98557">
        <ele>388.1</ele>
        <time>2025-03-15T09:11:07Z</time>
      </trkpt>
      <trkpt lat="43.86906" lon="6.98568">
        <ele>384.9</ele>
        <time>2025-03-15T09:11:07Z</time>
      </trkpt>
      <trkpt lat="43.86898" lon="6.98585">
        <ele>385.7</ele>
        <time>2025-03-15T09:11:07Z</time>
      </trkpt>
      <trkpt lat="43.86902" lon="6.98585">
        <ele>384.3</ele>
        <time>2025-03-15T09:11:07Z</time>
      </trkpt>
      <trkpt lat="43.86906" lon="6.98586">
        <ele>382.8</ele>
        <time>2025-03-15T09:11:07Z</time>
      </trkpt>
      <trkpt lat="43.8691" lon="6.98586">
        <ele>381.4</ele>
        <time>2025-03-15T09:11:07Z</time>
      </trkpt>
      <trkpt lat="43.86914" lon="6.98586">
        <ele>380</ele>
        <time>2025-03-15T09:11:07Z</time>
      </trkpt>
      <trkpt lat="43.86916" lon="6.98584">
        <ele>380.5</ele>
        <time>2025-03-15T09:11:07Z</time>
      </trkpt>
      <trkpt lat="43.86918" lon="6.98582">
        <ele>380.5</ele>
        <time>2025-03-15T09:11:07Z</time>
      </trkpt>
      <trkpt lat="43.86919" lon="6.98577">
        <ele>379.8</ele>
        <time>2025-03-15T09:11:07Z</time>
      </trkpt>
      <trkpt lat="43.86919" lon="6.98572">
        <ele>380.3</ele>
        <time>2025-03-15T09:11:07Z</time>
      </trkpt>
      <trkpt lat="43.86919" lon="6.98564">
        <ele>381.5</ele>
        <time>2025-03-15T09:11:07Z</time>
      </trkpt>
      <trkpt lat="43.86917" lon="6.98557">
        <ele>383.9</ele>
        <time>2025-03-15T09:11:07Z</time>
      </trkpt>
      <trkpt lat="43.86917" lon="6.98552">
        <ele>384.5</ele>
        <time>2025-03-15T09:11:07Z</time>
      </trkpt>
      <trkpt lat="43.86917" lon="6.98548">
        <ele>385.2</ele>
        <time>2025-03-15T09:11:07Z</time>
      </trkpt>
      <trkpt lat="43.86918" lon="6.98546">
        <ele>385.2</ele>
        <time>2025-03-15T09:11:07Z</time>
      </trkpt>
      <trkpt lat="43.86919" lon="6.98546">
        <ele>384.2</ele>
        <time>2025-03-15T09:11:07Z</time>
      </trkpt>
      <trkpt lat="43.86921" lon="6.98547">
        <ele>384.2</ele>
        <time>2025-03-15T09:11:07Z</time>
      </trkpt>
      <trkpt lat="43.86923" lon="6.98549">
        <ele>383.5</ele>
        <time>2025-03-15T09:11:07Z</time>
      </trkpt>
      <trkpt lat="43.86924" lon="6.98553">
        <ele>382.7</ele>
        <time>2025-03-15T09:11:07Z</time>
      </trkpt>
      <trkpt lat="43.86926" lon="6.98566">
        <ele>380.7</ele>
        <time>2025-03-15T09:11:07Z</time>
      </trkpt>
      <trkpt lat="43.86927" lon="6.98577">
        <ele>378.2</ele>
        <time>2025-03-15T09:11:07Z</time>
      </trkpt>
      <trkpt lat="43.86927" lon="6.98588">
        <ele>377.2</ele>
        <time>2025-03-15T09:11:07Z</time>
      </trkpt>
      <trkpt lat="43.86925" lon="6.98596">
        <ele>377.3</ele>
        <time>2025-03-15T09:11:07Z</time>
      </trkpt>
      <trkpt lat="43.86922" lon="6.98606">
        <ele>377.7</ele>
        <time>2025-03-15T09:11:07Z</time>
      </trkpt>
      <trkpt lat="43.86916" lon="6.98614">
        <ele>378.2</ele>
        <time>2025-03-15T09:11:07Z</time>
      </trkpt>
      <trkpt lat="43.86909" lon="6.98621">
        <ele>379.2</ele>
        <time>2025-03-15T09:11:07Z</time>
      </trkpt>
      <trkpt lat="43.86898" lon="6.98632">
        <ele>379.2</ele>
        <time>2025-03-15T09:11:07Z</time>
      </trkpt>
      <trkpt lat="43.86889" lon="6.98642">
        <ele>379.5</ele>
        <time>2025-03-15T09:11:07Z</time>
      </trkpt>
      <trkpt lat="43.86885" lon="6.98648">
        <ele>379.5</ele>
        <time>2025-03-15T09:11:07Z</time>
      </trkpt>
      <trkpt lat="43.86884" lon="6.98652">
        <ele>378.9</ele>
        <time>2025-03-15T09:11:07Z</time>
      </trkpt>
      <trkpt lat="43.86882" lon="6.98658">
        <ele>378.2</ele>
        <time>2025-03-15T09:11:07Z</time>
      </trkpt>
      <trkpt lat="43.8688" lon="6.98662">
        <ele>377.6</ele>
        <time>2025-03-15T09:11:07Z</time>
      </trkpt>
      <trkpt lat="43.86875" lon="6.98671">
        <ele>377.3</ele>
        <time>2025-03-15T09:11:07Z</time>
      </trkpt>
      <trkpt lat="43.86872" lon="6.98681">
        <ele>376.4</ele>
        <time>2025-03-15T09:11:07Z</time>
      </trkpt>
      <trkpt lat="43.8687" lon="6.98688">
        <ele>376.1</ele>
        <time>2025-03-15T09:11:07Z</time>
      </trkpt>
      <trkpt lat="43.86869" lon="6.98694">
        <ele>376</ele>
        <time>2025-03-15T09:11:07Z</time>
      </trkpt>
      <trkpt lat="43.86869" lon="6.987">
        <ele>376.1</ele>
        <time>2025-03-15T09:11:07Z</time>
      </trkpt>
      <trkpt lat="43.8687" lon="6.98704">
        <ele>376.3</ele>
        <time>2025-03-15T09:11:07Z</time>
      </trkpt>
      <trkpt lat="43.86871" lon="6.98707">
        <ele>376.5</ele>
        <time>2025-03-15T09:11:07Z</time>
      </trkpt>
      <trkpt lat="43.86879" lon="6.98715">
        <ele>377.4</ele>
        <time>2025-03-15T09:11:07Z</time>
      </trkpt>
      <trkpt lat="43.86868" lon="6.98725">
        <ele>378.7</ele>
        <time>2025-03-15T09:11:07Z</time>
      </trkpt>
      <trkpt lat="43.86863" lon="6.98726">
        <ele>378.9</ele>
        <time>2025-03-15T09:11:07Z</time>
      </trkpt>
      <trkpt lat="43.86859" lon="6.98725">
        <ele>379.1</ele>
        <time>2025-03-15T09:11:07Z</time>
      </trkpt>
      <trkpt lat="43.86849" lon="6.98721">
        <ele>379.4</ele>
        <time>2025-03-15T09:11:07Z</time>
      </trkpt>
      <trkpt lat="43.86842" lon="6.98715">
        <ele>379.2</ele>
        <time>2025-03-15T09:11:07Z</time>
      </trkpt>
      <trkpt lat="43.86832" lon="6.98707">
        <ele>379.7</ele>
        <time>2025-03-15T09:11:07Z</time>
      </trkpt>
      <trkpt lat="43.86821" lon="6.98698">
        <ele>380.1</ele>
        <time>2025-03-15T09:11:07Z</time>
      </trkpt>
      <trkpt lat="43.86815" lon="6.98703">
        <ele>382.5</ele>
        <time>2025-03-15T09:11:07Z</time>
      </trkpt>
      <trkpt lat="43.86804" lon="6.98705">
        <ele>385.6</ele>
        <time>2025-03-15T09:11:07Z</time>
      </trkpt>
      <trkpt lat="43.86797" lon="6.98708">
        <ele>388.1</ele>
        <time>2025-03-15T09:11:07Z</time>
      </trkpt>
      <trkpt lat="43.8679" lon="6.9871">
        <ele>390.6</ele>
        <time>2025-03-15T09:11:07Z</time>
      </trkpt>
      <trkpt lat="43.86783" lon="6.98714">
        <ele>394.7</ele>
        <time>2025-03-15T09:11:07Z</time>
      </trkpt>
      <trkpt lat="43.86782" lon="6.98721">
        <ele>396.2</ele>
        <time>2025-03-15T09:11:07Z</time>
      </trkpt>
      <trkpt lat="43.86778" lon="6.98722">
        <ele>399.2</ele>
        <time>2025-03-15T09:11:07Z</time>
      </trkpt>
      <trkpt lat="43.86771" lon="6.98714">
        <ele>398.8</ele>
        <time>2025-03-15T09:11:07Z</time>
      </trkpt>
      <trkpt lat="43.86766" lon="6.98708">
        <ele>397</ele>
        <time>2025-03-15T09:11:07Z</time>
      </trkpt>
      <trkpt lat="43.86743" lon="6.98688">
        <ele>397.3</ele>
        <time>2025-03-15T09:11:07Z</time>
      </trkpt>
      <trkpt lat="43.86731" lon="6.98681">
        <ele>397.2</ele>
        <time>2025-03-15T09:11:07Z</time>
      </trkpt>
      <trkpt lat="43.86716" lon="6.9868">
        <ele>399.9</ele>
        <time>2025-03-15T09:11:07Z</time>
      </trkpt>
      <trkpt lat="43.86703" lon="6.98682">
        <ele>401.7</ele>
        <time>2025-03-15T09:11:07Z</time>
      </trkpt>
      <trkpt lat="43.86702" lon="6.98695">
        <ele>407.3</ele>
        <time>2025-03-15T09:11:07Z</time>
      </trkpt>
      <trkpt lat="43.86719" lon="6.9871">
        <ele>411.3</ele>
        <time>2025-03-15T09:11:07Z</time>
      </trkpt>
      <trkpt lat="43.86732" lon="6.98723">
        <ele>413.2</ele>
        <time>2025-03-15T09:11:07Z</time>
      </trkpt>
      <trkpt lat="43.86751" lon="6.98764">
        <ele>422</ele>
        <time>2025-03-15T09:11:07Z</time>
      </trkpt>
      <trkpt lat="43.86787" lon="6.98801">
        <ele>425.4</ele>
        <time>2025-03-15T09:11:07Z</time>
      </trkpt>
      <trkpt lat="43.86798" lon="6.98814">
        <ele>425.6</ele>
        <time>2025-03-15T09:11:07Z</time>
      </trkpt>
      <trkpt lat="43.86809" lon="6.98828">
        <ele>427.1</ele>
        <time>2025-03-15T09:11:07Z</time>
      </trkpt>
      <trkpt lat="43.86823" lon="6.98863">
        <ele>432.9</ele>
        <time>2025-03-15T09:11:07Z</time>
      </trkpt>
      <trkpt lat="43.86834" lon="6.98894">
        <ele>436.8</ele>
        <time>2025-03-15T09:11:07Z</time>
      </trkpt>
      <trkpt lat="43.86855" lon="6.98912">
        <ele>432.4</ele>
        <time>2025-03-15T09:11:07Z</time>
      </trkpt>
      <trkpt lat="43.86865" lon="6.98929">
        <ele>433.1</ele>
        <time>2025-03-15T09:11:07Z</time>
      </trkpt>
      <trkpt lat="43.86866" lon="6.98934">
        <ele>433.9</ele>
        <time>2025-03-15T09:11:07Z</time>
      </trkpt>
      <trkpt lat="43.86865" lon="6.98939">
        <ele>434.8</ele>
        <time>2025-03-15T09:11:07Z</time>
      </trkpt>
      <trkpt lat="43.8686" lon="6.98938">
        <ele>436.4</ele>
        <time>2025-03-15T09:11:07Z</time>
      </trkpt>
      <trkpt lat="43.86856" lon="6.98936">
        <ele>437.2</ele>
        <time>2025-03-15T09:11:07Z</time>
      </trkpt>
      <trkpt lat="43.8683" lon="6.98918">
        <ele>443.7</ele>
        <time>2025-03-15T09:11:07Z</time>
      </trkpt>
      <trkpt lat="43.86815" lon="6.98908">
        <ele>448.6</ele>
        <time>2025-03-15T09:11:07Z</time>
      </trkpt>
      <trkpt lat="43.86801" lon="6.98877">
        <ele>445.2</ele>
        <time>2025-03-15T09:11:07Z</time>
      </trkpt>
      <trkpt lat="43.86777" lon="6.98864">
        <ele>449</ele>
        <time>2025-03-15T09:11:07Z</time>
      </trkpt>
      <trkpt lat="43.86748" lon="6.98867">
        <ele>459</ele>
        <time>2025-03-15T09:11:07Z</time>
      </trkpt>
      <trkpt lat="43.86728" lon="6.98863">
        <ele>463.7</ele>
        <time>2025-03-15T09:11:07Z</time>
      </trkpt>
      <trkpt lat="43.8666" lon="6.98823">
        <ele>470.6</ele>
        <time>2025-03-15T09:11:07Z</time>
      </trkpt>
      <trkpt lat="43.86596" lon="6.98801">
        <ele>476.5</ele>
        <time>2025-03-15T09:11:07Z</time>
      </trkpt>
      <trkpt lat="43.8654" lon="6.98795">
        <ele>490.7</ele>
        <time>2025-03-15T09:11:07Z</time>
      </trkpt>
      <trkpt lat="43.8655" lon="6.98799">
        <ele>484.7</ele>
        <time>2025-03-15T09:11:07Z</time>
      </trkpt>
      <trkpt lat="43.86554" lon="6.988">
        <ele>485.9</ele>
        <time>2025-03-15T09:11:07Z</time>
      </trkpt>
      <trkpt lat="43.86558" lon="6.988">
        <ele>484.4</ele>
        <time>2025-03-15T09:11:07Z</time>
      </trkpt>
      <trkpt lat="43.86569" lon="6.98805">
        <ele>484.5</ele>
        <time>2025-03-15T09:11:07Z</time>
      </trkpt>
      <trkpt lat="43.86582" lon="6.98814">
        <ele>486.1</ele>
        <time>2025-03-15T09:11:07Z</time>
      </trkpt>
      <trkpt lat="43.86593" lon="6.98821">
        <ele>487.2</ele>
        <time>2025-03-15T09:11:07Z</time>
      </trkpt>
      <trkpt lat="43.8664" lon="6.98846">
        <ele>483.2</ele>
        <time>2025-03-15T09:11:07Z</time>
      </trkpt>
      <trkpt lat="43.86666" lon="6.98865">
        <ele>483.8</ele>
        <time>2025-03-15T09:11:07Z</time>
      </trkpt>
      <trkpt lat="43.86669" lon="6.98867">
        <ele>483.8</ele>
        <time>2025-03-15T09:11:07Z</time>
      </trkpt>
      <trkpt lat="43.8668" lon="6.98884">
        <ele>487</ele>
        <time>2025-03-15T09:11:07Z</time>
      </trkpt>
      <trkpt lat="43.86691" lon="6.98914">
        <ele>496.1</ele>
        <time>2025-03-15T09:11:07Z</time>
      </trkpt>
      <trkpt lat="43.86702" lon="6.98926">
        <ele>498.1</ele>
        <time>2025-03-15T09:11:07Z</time>
      </trkpt>
      <trkpt lat="43.86715" lon="6.9895">
        <ele>504</ele>
        <time>2025-03-15T09:11:07Z</time>
      </trkpt>
      <trkpt lat="43.86719" lon="6.98973">
        <ele>512.3</ele>
        <time>2025-03-15T09:11:07Z</time>
      </trkpt>
      <trkpt lat="43.86707" lon="6.98967">
        <ele>515.2</ele>
        <time>2025-03-15T09:11:07Z</time>
      </trkpt>
      <trkpt lat="43.86683" lon="6.98957">
        <ele>518.6</ele>
        <time>2025-03-15T09:11:07Z</time>
      </trkpt>
      <trkpt lat="43.86681" lon="6.98956">
        <ele>520.7</ele>
        <time>2025-03-15T09:11:07Z</time>
      </trkpt>
      <trkpt lat="43.86672" lon="6.98952">
        <ele>522.7</ele>
        <time>2025-03-15T09:11:07Z</time>
      </trkpt>
      <trkpt lat="43.86665" lon="6.98949">
        <ele>522.7</ele>
        <time>2025-03-15T09:11:07Z</time>
      </trkpt>
      <trkpt lat="43.86658" lon="6.98946">
        <ele>526.5</ele>
        <time>2025-03-15T09:11:07Z</time>
      </trkpt>
      <trkpt lat="43.86652" lon="6.98948">
        <ele>528.2</ele>
        <time>2025-03-15T09:11:07Z</time>
      </trkpt>
      <trkpt lat="43.86648" lon="6.98944">
        <ele>527.9</ele>
        <time>2025-03-15T09:11:07Z</time>
      </trkpt>
      <trkpt lat="43.8664" lon="6.98938">
        <ele>529</ele>
        <time>2025-03-15T09:11:07Z</time>
      </trkpt>
      <trkpt lat="43.86633" lon="6.98937">
        <ele>532.1</ele>
        <time>2025-03-15T09:11:07Z</time>
      </trkpt>
      <trkpt lat="43.86615" lon="6.98937">
        <ele>538.6</ele>
        <time>2025-03-15T09:11:07Z</time>
      </trkpt>
      <trkpt lat="43.86618" lon="6.98941">
        <ele>539.1</ele>
        <time>2025-03-15T09:11:07Z</time>
      </trkpt>
      <trkpt lat="43.86634" lon="6.98963">
        <ele>545</ele>
        <time>2025-03-15T09:11:07Z</time>
      </trkpt>
      <trkpt lat="43.86653" lon="6.98992">
        <ele>549.3</ele>
        <time>2025-03-15T09:11:07Z</time>
      </trkpt>
      <trkpt lat="43.86675" lon="6.99025">
        <ele>557.7</ele>
        <time>2025-03-15T09:11:07Z</time>
      </trkpt>
      <trkpt lat="43.86686" lon="6.99046">
        <ele>565.1</ele>
        <time>2025-03-15T09:11:07Z</time>
      </trkpt>
      <trkpt lat="43.8669" lon="6.99065">
        <ele>572.3</ele>
        <time>2025-03-15T09:11:07Z</time>
      </trkpt>
      <trkpt lat="43.86692" lon="6.99072">
        <ele>574.9</ele>
        <time>2025-03-15T09:11:07Z</time>
      </trkpt>
      <trkpt lat="43.86703" lon="6.99083">
        <ele>577.7</ele>
        <time>2025-03-15T09:11:07Z</time>
      </trkpt>
      <trkpt lat="43.86708" lon="6.9909">
        <ele>575.5</ele>
        <time>2025-03-15T09:11:07Z</time>
      </trkpt>
      <trkpt lat="43.86705" lon="6.99107">
        <ele>588</ele>
        <time>2025-03-15T09:11:07Z</time>
      </trkpt>
      <trkpt lat="43.86707" lon="6.99109">
        <ele>590.6</ele>
        <time>2025-03-15T09:11:07Z</time>
      </trkpt>
      <trkpt lat="43.8671" lon="6.99108">
        <ele>585.6</ele>
        <time>2025-03-15T09:11:07Z</time>
      </trkpt>
      <trkpt lat="43.86716" lon="6.99102">
        <ele>580.5</ele>
        <time>2025-03-15T09:11:07Z</time>
      </trkpt>
      <trkpt lat="43.86719" lon="6.99101">
        <ele>577.9</ele>
        <time>2025-03-15T09:11:07Z</time>
      </trkpt>
      <trkpt lat="43.86723" lon="6.99103">
        <ele>575.2</ele>
        <time>2025-03-15T09:11:07Z</time>
      </trkpt>
      <trkpt lat="43.86722" lon="6.99107">
        <ele>577.7</ele>
        <time>2025-03-15T09:11:07Z</time>
      </trkpt>
      <trkpt lat="43.8671" lon="6.99123">
        <ele>596.7</ele>
        <time>2025-03-15T09:11:07Z</time>
      </trkpt>
      <trkpt lat="43.86709" lon="6.99128">
        <ele>599.7</ele>
        <time>2025-03-15T09:11:07Z</time>
      </trkpt>
      <trkpt lat="43.86711" lon="6.99131">
        <ele>602.8</ele>
        <time>2025-03-15T09:11:07Z</time>
      </trkpt>
      <trkpt lat="43.86721" lon="6.9913">
        <ele>594.7</ele>
        <time>2025-03-15T09:11:07Z</time>
      </trkpt>
      <trkpt lat="43.86724" lon="6.99134">
        <ele>597.8</ele>
        <time>2025-03-15T09:11:07Z</time>
      </trkpt>
      <trkpt lat="43.86724" lon="6.99141">
        <ele>601</ele>
        <time>2025-03-15T09:11:07Z</time>
      </trkpt>
      <trkpt lat="43.86711" lon="6.99154">
        <ele>618.8</ele>
        <time>2025-03-15T09:11:07Z</time>
      </trkpt>
      <trkpt lat="43.8671" lon="6.99156">
        <ele>622</ele>
        <time>2025-03-15T09:11:07Z</time>
      </trkpt>
      <trkpt lat="43.86713" lon="6.99158">
        <ele>619.2</ele>
        <time>2025-03-15T09:11:07Z</time>
      </trkpt>
      <trkpt lat="43.86719" lon="6.99161">
        <ele>619.5</ele>
        <time>2025-03-15T09:11:07Z</time>
      </trkpt>
      <trkpt lat="43.86726" lon="6.9917">
        <ele>619.3</ele>
        <time>2025-03-15T09:11:07Z</time>
      </trkpt>
      <trkpt lat="43.86731" lon="6.99183">
        <ele>624.6</ele>
        <time>2025-03-15T09:11:07Z</time>
      </trkpt>
      <trkpt lat="43.86745" lon="6.99207">
        <ele>634.8</ele>
        <time>2025-03-15T09:11:07Z</time>
      </trkpt>
      <trkpt lat="43.86747" lon="6.99213">
        <ele>635.5</ele>
        <time>2025-03-15T09:11:07Z</time>
      </trkpt>
      <trkpt lat="43.86754" lon="6.99229">
        <ele>647.6</ele>
        <time>2025-03-15T09:11:07Z</time>
      </trkpt>
      <trkpt lat="43.86755" lon="6.99235">
        <ele>648.3</ele>
        <time>2025-03-15T09:11:07Z</time>
      </trkpt>
      <trkpt lat="43.86756" lon="6.99252">
        <ele>658.4</ele>
        <time>2025-03-15T09:11:07Z</time>
      </trkpt>
      <trkpt lat="43.86758" lon="6.99263">
        <ele>663.6</ele>
        <time>2025-03-15T09:11:07Z</time>
      </trkpt>
      <trkpt lat="43.86762" lon="6.99269">
        <ele>661.6</ele>
        <time>2025-03-15T09:11:07Z</time>
      </trkpt>
      <trkpt lat="43.86762" lon="6.99278">
        <ele>665</ele>
        <time>2025-03-15T09:11:07Z</time>
      </trkpt>
      <trkpt lat="43.8676" lon="6.99294">
        <ele>671.2</ele>
        <time>2025-03-15T09:11:07Z</time>
      </trkpt>
      <trkpt lat="43.86767" lon="6.9932">
        <ele>676.2</ele>
        <time>2025-03-15T09:11:07Z</time>
      </trkpt>
      <trkpt lat="43.86768" lon="6.99338">
        <ele>677.4</ele>
        <time>2025-03-15T09:11:07Z</time>
      </trkpt>
      <trkpt lat="43.86771" lon="6.99359">
        <ele>682.6</ele>
        <time>2025-03-15T09:11:07Z</time>
      </trkpt>
      <trkpt lat="43.86777" lon="6.99378">
        <ele>678.7</ele>
        <time>2025-03-15T09:11:07Z</time>
      </trkpt>
      <trkpt lat="43.86794" lon="6.99428">
        <ele>673.8</ele>
        <time>2025-03-15T09:11:07Z</time>
      </trkpt>
      <trkpt lat="43.86811" lon="6.99469">
        <ele>664.5</ele>
        <time>2025-03-15T09:11:07Z</time>
      </trkpt>
      <trkpt lat="43.86824" lon="6.99502">
        <ele>657.6</ele>
        <time>2025-03-15T09:11:07Z</time>
      </trkpt>
      <trkpt lat="43.86829" lon="6.99528">
        <ele>655.5</ele>
        <time>2025-03-15T09:11:07Z</time>
      </trkpt>
      <trkpt lat="43.8683" lon="6.99548">
        <ele>654.4</ele>
        <time>2025-03-15T09:11:07Z</time>
      </trkpt>
      <trkpt lat="43.86831" lon="6.99582">
        <ele>647.3</ele>
        <time>2025-03-15T09:11:07Z</time>
      </trkpt>
      <trkpt lat="43.86832" lon="6.99603">
        <ele>640</ele>
        <time>2025-03-15T09:11:07Z</time>
      </trkpt>
      <trkpt lat="43.8683" lon="6.99616">
        <ele>634.3</ele>
        <time>2025-03-15T09:11:07Z</time>
      </trkpt>
      <trkpt lat="43.86824" lon="6.99632">
        <ele>628.8</ele>
        <time>2025-03-15T09:11:07Z</time>
      </trkpt>
      <trkpt lat="43.8682" lon="6.99643">
        <ele>627.9</ele>
        <time>2025-03-15T09:11:07Z</time>
      </trkpt>
      <trkpt lat="43.86818" lon="6.99648">
        <ele>629.3</ele>
        <time>2025-03-15T09:11:07Z</time>
      </trkpt>
      <trkpt lat="43.86816" lon="6.99656">
        <ele>626.5</ele>
        <time>2025-03-15T09:11:07Z</time>
      </trkpt>
      <trkpt lat="43.8682" lon="6.99669">
        <ele>620.2</ele>
        <time>2025-03-15T09:11:07Z</time>
      </trkpt>
      <trkpt lat="43.86819" lon="6.99677">
        <ele>620.9</ele>
        <time>2025-03-15T09:11:07Z</time>
      </trkpt>
      <trkpt lat="43.86799" lon="6.99721">
        <ele>612.1</ele>
        <time>2025-03-15T09:11:07Z</time>
      </trkpt>
      <trkpt lat="43.86794" lon="6.99722">
        <ele>611.1</ele>
        <time>2025-03-15T09:11:07Z</time>
      </trkpt>
      <trkpt lat="43.86787" lon="6.99725">
        <ele>614.8</ele>
        <time>2025-03-15T09:11:07Z</time>
      </trkpt>
      <trkpt lat="43.8678" lon="6.9974">
        <ele>611.2</ele>
        <time>2025-03-15T09:11:07Z</time>
      </trkpt>
      <trkpt lat="43.86778" lon="6.99743">
        <ele>611.2</ele>
        <time>2025-03-15T09:11:07Z</time>
      </trkpt>
      <trkpt lat="43.86782" lon="6.99764">
        <ele>603.5</ele>
        <time>2025-03-15T09:11:07Z</time>
      </trkpt>
      <trkpt lat="43.86784" lon="6.99786">
        <ele>602.1</ele>
        <time>2025-03-15T09:11:07Z</time>
      </trkpt>
      <trkpt lat="43.86781" lon="6.99805">
        <ele>597.2</ele>
        <time>2025-03-15T09:11:07Z</time>
      </trkpt>
      <trkpt lat="43.86777" lon="6.99811">
        <ele>598.5</ele>
        <time>2025-03-15T09:11:07Z</time>
      </trkpt>
      <trkpt lat="43.86767" lon="6.99825">
        <ele>600.1</ele>
        <time>2025-03-15T09:11:07Z</time>
      </trkpt>
      <trkpt lat="43.86766" lon="6.9983">
        <ele>599</ele>
        <time>2025-03-15T09:11:07Z</time>
      </trkpt>
      <trkpt lat="43.86767" lon="6.99837">
        <ele>598</ele>
        <time>2025-03-15T09:11:07Z</time>
      </trkpt>
      <trkpt lat="43.86768" lon="6.99843">
        <ele>593.1</ele>
        <time>2025-03-15T09:11:07Z</time>
      </trkpt>
      <trkpt lat="43.86772" lon="6.99856">
        <ele>590.5</ele>
        <time>2025-03-15T09:11:07Z</time>
      </trkpt>
      <trkpt lat="43.86775" lon="6.99868">
        <ele>583.4</ele>
        <time>2025-03-15T09:11:07Z</time>
      </trkpt>
      <trkpt lat="43.86774" lon="6.99882">
        <ele>578.6</ele>
        <time>2025-03-15T09:11:07Z</time>
      </trkpt>
      <trkpt lat="43.86763" lon="6.99903">
        <ele>581.3</ele>
        <time>2025-03-15T09:11:07Z</time>
      </trkpt>
      <trkpt lat="43.86751" lon="6.99923">
        <ele>578.2</ele>
        <time>2025-03-15T09:11:07Z</time>
      </trkpt>
      <trkpt lat="43.86745" lon="6.99937">
        <ele>570.3</ele>
        <time>2025-03-15T09:11:07Z</time>
      </trkpt>
      <trkpt lat="43.86739" lon="6.99939">
        <ele>571.8</ele>
        <time>2025-03-15T09:11:07Z</time>
      </trkpt>
      <trkpt lat="43.8673" lon="6.99943">
        <ele>572.5</ele>
        <time>2025-03-15T09:11:07Z</time>
      </trkpt>
      <trkpt lat="43.86723" lon="6.99951">
        <ele>573.5</ele>
        <time>2025-03-15T09:11:07Z</time>
      </trkpt>
      <trkpt lat="43.86723" lon="6.99953">
        <ele>573.5</ele>
        <time>2025-03-15T09:11:07Z</time>
      </trkpt>
      <trkpt lat="43.8672" lon="6.99972">
        <ele>568.5</ele>
        <time>2025-03-15T09:11:07Z</time>
      </trkpt>
      <trkpt lat="43.86719" lon="6.99984">
        <ele>564</ele>
        <time>2025-03-15T09:11:07Z</time>
      </trkpt>
      <trkpt lat="43.86718" lon="7.00008">
        <ele>556.1</ele>
        <time>2025-03-15T09:11:07Z</time>
      </trkpt>
      <trkpt lat="43.86717" lon="7.00019">
        <ele>550.4</ele>
        <time>2025-03-15T09:11:07Z</time>
      </trkpt>
      <trkpt lat="43.8671" lon="7.00022">
        <ele>557.2</ele>
        <time>2025-03-15T09:11:07Z</time>
      </trkpt>
      <trkpt lat="43.86706" lon="7.0004">
        <ele>549.3</ele>
        <time>2025-03-15T09:11:07Z</time>
      </trkpt>
      <trkpt lat="43.867" lon="7.00064">
        <ele>539.5</ele>
        <time>2025-03-15T09:11:07Z</time>
      </trkpt>
      <trkpt lat="43.867" lon="7.00069">
        <ele>537.1</ele>
        <time>2025-03-15T09:11:07Z</time>
      </trkpt>
      <trkpt lat="43.86698" lon="7.0007">
        <ele>536.5</ele>
        <time>2025-03-15T09:11:07Z</time>
      </trkpt>
      <trkpt lat="43.86695" lon="7.00071">
        <ele>536.5</ele>
        <time>2025-03-15T09:11:07Z</time>
      </trkpt>
      <trkpt lat="43.86692" lon="7.00072">
        <ele>538.7</ele>
        <time>2025-03-15T09:11:07Z</time>
      </trkpt>
      <trkpt lat="43.86687" lon="7.00074">
        <ele>538.3</ele>
        <time>2025-03-15T09:11:07Z</time>
      </trkpt>
      <trkpt lat="43.86691" lon="7.00082">
        <ele>533.7</ele>
        <time>2025-03-15T09:11:07Z</time>
      </trkpt>
      <trkpt lat="43.86691" lon="7.00087">
        <ele>527.2</ele>
        <time>2025-03-15T09:11:07Z</time>
      </trkpt>
      <trkpt lat="43.86688" lon="7.00094">
        <ele>527.5</ele>
        <time>2025-03-15T09:11:07Z</time>
      </trkpt>
      <trkpt lat="43.86684" lon="7.00096">
        <ele>529.9</ele>
        <time>2025-03-15T09:11:07Z</time>
      </trkpt>
      <trkpt lat="43.86683" lon="7.00103">
        <ele>529.2</ele>
        <time>2025-03-15T09:11:07Z</time>
      </trkpt>
      <trkpt lat="43.86685" lon="7.0011">
        <ele>528.7</ele>
        <time>2025-03-15T09:11:07Z</time>
      </trkpt>
      <trkpt lat="43.86688" lon="7.00122">
        <ele>524</ele>
        <time>2025-03-15T09:11:07Z</time>
      </trkpt>
      <trkpt lat="43.8669" lon="7.00129">
        <ele>523.5</ele>
        <time>2025-03-15T09:11:07Z</time>
      </trkpt>
      <trkpt lat="43.8669" lon="7.00134">
        <ele>522.2</ele>
        <time>2025-03-15T09:11:07Z</time>
      </trkpt>
      <trkpt lat="43.86686" lon="7.00147">
        <ele>523.6</ele>
        <time>2025-03-15T09:11:07Z</time>
      </trkpt>
      <trkpt lat="43.86685" lon="7.00157">
        <ele>521.7</ele>
        <time>2025-03-15T09:11:07Z</time>
      </trkpt>
      <trkpt lat="43.86683" lon="7.00172">
        <ele>519</ele>
        <time>2025-03-15T09:11:07Z</time>
      </trkpt>
      <trkpt lat="43.86687" lon="7.00163">
        <ele>517.2</ele>
        <time>2025-03-15T09:11:07Z</time>
      </trkpt>
      <trkpt lat="43.86695" lon="7.00148">
        <ele>511.9</ele>
        <time>2025-03-15T09:11:07Z</time>
      </trkpt>
      <trkpt lat="43.86702" lon="7.00133">
        <ele>511.1</ele>
        <time>2025-03-15T09:11:07Z</time>
      </trkpt>
      <trkpt lat="43.86701" lon="7.0012">
        <ele>512.9</ele>
        <time>2025-03-15T09:11:07Z</time>
      </trkpt>
      <trkpt lat="43.86701" lon="7.00113">
        <ele>512.7</ele>
        <time>2025-03-15T09:11:07Z</time>
      </trkpt>
      <trkpt lat="43.86705" lon="7.00109">
        <ele>509.9</ele>
        <time>2025-03-15T09:11:07Z</time>
      </trkpt>
      <trkpt lat="43.86712" lon="7.0011">
        <ele>507.4</ele>
        <time>2025-03-15T09:11:07Z</time>
      </trkpt>
      <trkpt lat="43.86721" lon="7.00107">
        <ele>505.2</ele>
        <time>2025-03-15T09:11:07Z</time>
      </trkpt>
      <trkpt lat="43.86733" lon="7.00089">
        <ele>510.7</ele>
        <time>2025-03-15T09:11:07Z</time>
      </trkpt>
      <trkpt lat="43.8675" lon="7.00052">
        <ele>514.6</ele>
        <time>2025-03-15T09:11:07Z</time>
      </trkpt>
      <trkpt lat="43.86761" lon="7.00045">
        <ele>504.5</ele>
        <time>2025-03-15T09:11:07Z</time>
      </trkpt>
      <trkpt lat="43.8677" lon="7.00035">
        <ele>508.7</ele>
        <time>2025-03-15T09:11:07Z</time>
      </trkpt>
      <trkpt lat="43.86778" lon="7.00035">
        <ele>507.3</ele>
        <time>2025-03-15T09:11:07Z</time>
      </trkpt>
      <trkpt lat="43.86788" lon="7.00039">
        <ele>503.2</ele>
        <time>2025-03-15T09:11:07Z</time>
      </trkpt>
      <trkpt lat="43.86794" lon="7.00044">
        <ele>497.7</ele>
        <time>2025-03-15T09:11:07Z</time>
      </trkpt>
      <trkpt lat="43.86799" lon="7.00044">
        <ele>497.5</ele>
        <time>2025-03-15T09:11:07Z</time>
      </trkpt>
      <trkpt lat="43.86806" lon="7.00044">
        <ele>497.2</ele>
        <time>2025-03-15T09:11:07Z</time>
      </trkpt>
      <trkpt lat="43.86813" lon="7.00036">
        <ele>499.2</ele>
        <time>2025-03-15T09:11:07Z</time>
      </trkpt>
      <trkpt lat="43.86838" lon="7.00021">
        <ele>498.9</ele>
        <time>2025-03-15T09:11:07Z</time>
      </trkpt>
      <trkpt lat="43.86885" lon="6.99973">
        <ele>499.5</ele>
        <time>2025-03-15T09:11:07Z</time>
      </trkpt>
      <trkpt lat="43.86897" lon="6.99963">
        <ele>500.2</ele>
        <time>2025-03-15T09:11:07Z</time>
      </trkpt>
      <trkpt lat="43.86901" lon="6.99957">
        <ele>502.8</ele>
        <time>2025-03-15T09:11:07Z</time>
      </trkpt>
      <trkpt lat="43.86914" lon="6.99949">
        <ele>502.6</ele>
        <time>2025-03-15T09:11:07Z</time>
      </trkpt>
      <trkpt lat="43.86923" lon="6.99933">
        <ele>503</ele>
        <time>2025-03-15T09:11:07Z</time>
      </trkpt>
      <trkpt lat="43.86947" lon="6.99912">
        <ele>501.1</ele>
        <time>2025-03-15T09:11:07Z</time>
      </trkpt>
      <trkpt lat="43.86962" lon="6.999">
        <ele>499.4</ele>
        <time>2025-03-15T09:11:07Z</time>
      </trkpt>
      <trkpt lat="43.86962" lon="6.99891">
        <ele>500.8</ele>
        <time>2025-03-15T09:11:07Z</time>
      </trkpt>
      <trkpt lat="43.86962" lon="6.99883">
        <ele>502.6</ele>
        <time>2025-03-15T09:11:07Z</time>
      </trkpt>
      <trkpt lat="43.86968" lon="6.99874">
        <ele>503.2</ele>
        <time>2025-03-15T09:11:07Z</time>
      </trkpt>
      <trkpt lat="43.86974" lon="6.99859">
        <ele>501.1</ele>
        <time>2025-03-15T09:11:07Z</time>
      </trkpt>
      <trkpt lat="43.86974" lon="6.99857">
        <ele>501.1</ele>
        <time>2025-03-15T09:11:07Z</time>
      </trkpt>
      <trkpt lat="43.86974" lon="6.99846">
        <ele>498.6</ele>
        <time>2025-03-15T09:11:07Z</time>
      </trkpt>
      <trkpt lat="43.86977" lon="6.99842">
        <ele>498.6</ele>
        <time>2025-03-15T09:11:07Z</time>
      </trkpt>
      <trkpt lat="43.86982" lon="6.99836">
        <ele>497</ele>
        <time>2025-03-15T09:11:07Z</time>
      </trkpt>
      <trkpt lat="43.86986" lon="6.99829">
        <ele>494.1</ele>
        <time>2025-03-15T09:11:07Z</time>
      </trkpt>
      <trkpt lat="43.86996" lon="6.99821">
        <ele>483.6</ele>
        <time>2025-03-15T09:11:07Z</time>
      </trkpt>
      <trkpt lat="43.86998" lon="6.99816">
        <ele>487</ele>
        <time>2025-03-15T09:11:07Z</time>
      </trkpt>
      <trkpt lat="43.87001" lon="6.9981">
        <ele>485.9</ele>
        <time>2025-03-15T09:11:07Z</time>
      </trkpt>
      <trkpt lat="43.87006" lon="6.99806">
        <ele>484.4</ele>
        <time>2025-03-15T09:11:07Z</time>
      </trkpt>
      <trkpt lat="43.87011" lon="6.99805">
        <ele>481.5</ele>
        <time>2025-03-15T09:11:07Z</time>
      </trkpt>
      <trkpt lat="43.87014" lon="6.99803">
        <ele>480</ele>
        <time>2025-03-15T09:11:07Z</time>
      </trkpt>
      <trkpt lat="43.87024" lon="6.9979">
        <ele>477.6</ele>
        <time>2025-03-15T09:11:07Z</time>
      </trkpt>
      <trkpt lat="43.87029" lon="6.99779">
        <ele>475.8</ele>
        <time>2025-03-15T09:11:07Z</time>
      </trkpt>
      <trkpt lat="43.8703" lon="6.99773">
        <ele>472.6</ele>
        <time>2025-03-15T09:11:07Z</time>
      </trkpt>
      <trkpt lat="43.87023" lon="6.99755">
        <ele>476.5</ele>
        <time>2025-03-15T09:11:07Z</time>
      </trkpt>
      <trkpt lat="43.8702" lon="6.99752">
        <ele>479.4</ele>
        <time>2025-03-15T09:11:07Z</time>
      </trkpt>
      <trkpt lat="43.87026" lon="6.99753">
        <ele>473.6</ele>
        <time>2025-03-15T09:11:07Z</time>
      </trkpt>
      <trkpt lat="43.87032" lon="6.99757">
        <ele>471.1</ele>
        <time>2025-03-15T09:11:07Z</time>
      </trkpt>
      <trkpt lat="43.87038" lon="6.99767">
        <ele>469.4</ele>
        <time>2025-03-15T09:11:07Z</time>
      </trkpt>
      <trkpt lat="43.87042" lon="6.99776">
        <ele>467.7</ele>
        <time>2025-03-15T09:11:07Z</time>
      </trkpt>
      <trkpt lat="43.87046" lon="6.99785">
        <ele>465.4</ele>
        <time>2025-03-15T09:11:07Z</time>
      </trkpt>
      <trkpt lat="43.87048" lon="6.99788">
        <ele>462.8</ele>
        <time>2025-03-15T09:11:07Z</time>
      </trkpt>
      <trkpt lat="43.87051" lon="6.99789">
        <ele>462.8</ele>
        <time>2025-03-15T09:11:07Z</time>
      </trkpt>
      <trkpt lat="43.87053" lon="6.99792">
        <ele>460</ele>
        <time>2025-03-15T09:11:07Z</time>
      </trkpt>
      <trkpt lat="43.87054" lon="6.99795">
        <ele>459.2</ele>
        <time>2025-03-15T09:11:07Z</time>
      </trkpt>
      <trkpt lat="43.87053" lon="6.99797">
        <ele>459.2</ele>
        <time>2025-03-15T09:11:07Z</time>
      </trkpt>
      <trkpt lat="43.87051" lon="6.99801">
        <ele>460.3</ele>
        <time>2025-03-15T09:11:07Z</time>
      </trkpt>
      <trkpt lat="43.87048" lon="6.99805">
        <ele>458.9</ele>
        <time>2025-03-15T09:11:07Z</time>
      </trkpt>
      <trkpt lat="43.87045" lon="6.99808">
        <ele>459.5</ele>
        <time>2025-03-15T09:11:07Z</time>
      </trkpt>
      <trkpt lat="43.87044" lon="6.99811">
        <ele>459.5</ele>
        <time>2025-03-15T09:11:07Z</time>
      </trkpt>
      <trkpt lat="43.87043" lon="6.99814">
        <ele>457.9</ele>
        <time>2025-03-15T09:11:07Z</time>
      </trkpt>
      <trkpt lat="43.87043" lon="6.99819">
        <ele>456.3</ele>
        <time>2025-03-15T09:11:07Z</time>
      </trkpt>
      <trkpt lat="43.87043" lon="6.99823">
        <ele>454.7</ele>
        <time>2025-03-15T09:11:07Z</time>
      </trkpt>
      <trkpt lat="43.87041" lon="6.99824">
        <ele>456.7</ele>
        <time>2025-03-15T09:11:07Z</time>
      </trkpt>
      <trkpt lat="43.87038" lon="6.99827">
        <ele>456.9</ele>
        <time>2025-03-15T09:11:07Z</time>
      </trkpt>
      <trkpt lat="43.87034" lon="6.99829">
        <ele>456.9</ele>
        <time>2025-03-15T09:11:07Z</time>
      </trkpt>
      <trkpt lat="43.87032" lon="6.99831">
        <ele>457.9</ele>
        <time>2025-03-15T09:11:07Z</time>
      </trkpt>
      <trkpt lat="43.8703" lon="6.99835">
        <ele>456.7</ele>
        <time>2025-03-15T09:11:07Z</time>
      </trkpt>
      <trkpt lat="43.87029" lon="6.99839">
        <ele>458.7</ele>
        <time>2025-03-15T09:11:07Z</time>
      </trkpt>
      <trkpt lat="43.87032" lon="6.99846">
        <ele>455.1</ele>
        <time>2025-03-15T09:11:07Z</time>
      </trkpt>
      <trkpt lat="43.87038" lon="6.9985">
        <ele>452.2</ele>
        <time>2025-03-15T09:11:07Z</time>
      </trkpt>
      <trkpt lat="43.87036" lon="6.99864">
        <ele>458</ele>
        <time>2025-03-15T09:11:07Z</time>
      </trkpt>
      <trkpt lat="43.87038" lon="6.99873">
        <ele>462</ele>
        <time>2025-03-15T09:11:07Z</time>
      </trkpt>
      <trkpt lat="43.87043" lon="6.9988">
        <ele>459.6</ele>
        <time>2025-03-15T09:11:07Z</time>
      </trkpt>
      <trkpt lat="43.87047" lon="6.99888">
        <ele>458.4</ele>
        <time>2025-03-15T09:11:07Z</time>
      </trkpt>
      <trkpt lat="43.87049" lon="6.99896">
        <ele>457.9</ele>
        <time>2025-03-15T09:11:07Z</time>
      </trkpt>
      <trkpt lat="43.87048" lon="6.99903">
        <ele>455.9</ele>
        <time>2025-03-15T09:11:07Z</time>
      </trkpt>
      <trkpt lat="43.87045" lon="6.99908">
        <ele>456.2</ele>
        <time>2025-03-15T09:11:07Z</time>
      </trkpt>
      <trkpt lat="43.87045" lon="6.99911">
        <ele>454.5</ele>
        <time>2025-03-15T09:11:07Z</time>
      </trkpt>
      <trkpt lat="43.87048" lon="6.99912">
        <ele>453</ele>
        <time>2025-03-15T09:11:07Z</time>
      </trkpt>
      <trkpt lat="43.87052" lon="6.99908">
        <ele>453.3</ele>
        <time>2025-03-15T09:11:07Z</time>
      </trkpt>
      <trkpt lat="43.87057" lon="6.99908">
        <ele>451.9</ele>
        <time>2025-03-15T09:11:07Z</time>
      </trkpt>
      <trkpt lat="43.87063" lon="6.99912">
        <ele>449.7</ele>
        <time>2025-03-15T09:11:07Z</time>
      </trkpt>
      <trkpt lat="43.87066" lon="6.99916">
        <ele>447.6</ele>
        <time>2025-03-15T09:11:07Z</time>
      </trkpt>
      <trkpt lat="43.87067" lon="6.9993">
        <ele>447.5</ele>
        <time>2025-03-15T09:11:07Z</time>
      </trkpt>
      <trkpt lat="43.8706" lon="6.99937">
        <ele>447.7</ele>
        <time>2025-03-15T09:11:07Z</time>
      </trkpt>
      <trkpt lat="43.87056" lon="6.99943">
        <ele>447.6</ele>
        <time>2025-03-15T09:11:07Z</time>
      </trkpt>
      <trkpt lat="43.87055" lon="6.99947">
        <ele>447.4</ele>
        <time>2025-03-15T09:11:07Z</time>
      </trkpt>
      <trkpt lat="43.87054" lon="6.99949">
        <ele>447.4</ele>
        <time>2025-03-15T09:11:07Z</time>
      </trkpt>
      <trkpt lat="43.87055" lon="6.99957">
        <ele>445.6</ele>
        <time>2025-03-15T09:11:07Z</time>
      </trkpt>
      <trkpt lat="43.8706" lon="6.99964">
        <ele>441.6</ele>
        <time>2025-03-15T09:11:07Z</time>
      </trkpt>
      <trkpt lat="43.87063" lon="6.99972">
        <ele>440.1</ele>
        <time>2025-03-15T09:11:07Z</time>
      </trkpt>
      <trkpt lat="43.87065" lon="6.99977">
        <ele>438.3</ele>
        <time>2025-03-15T09:11:07Z</time>
      </trkpt>
      <trkpt lat="43.87066" lon="7.00002">
        <ele>433.2</ele>
        <time>2025-03-15T09:11:07Z</time>
      </trkpt>
      <trkpt lat="43.87072" lon="7.00057">
        <ele>423.8</ele>
        <time>2025-03-15T09:11:07Z</time>
      </trkpt>
      <trkpt lat="43.87078" lon="7.00123">
        <ele>409.8</ele>
        <time>2025-03-15T09:11:07Z</time>
      </trkpt>
      <trkpt lat="43.87079" lon="7.00135">
        <ele>407.8</ele>
        <time>2025-03-15T09:11:07Z</time>
      </trkpt>
      <trkpt lat="43.87079" lon="7.00148">
        <ele>406.4</ele>
        <time>2025-03-15T09:11:07Z</time>
      </trkpt>
      <trkpt lat="43.87089" lon="7.00151">
        <ele>405.6</ele>
        <time>2025-03-15T09:11:07Z</time>
      </trkpt>
      <trkpt lat="43.87104" lon="7.00156">
        <ele>403.8</ele>
        <time>2025-03-15T09:11:07Z</time>
      </trkpt>
      <trkpt lat="43.87119" lon="7.0015">
        <ele>401.8</ele>
        <time>2025-03-15T09:11:07Z</time>
      </trkpt>
      <trkpt lat="43.87138" lon="7.00144">
        <ele>394.7</ele>
        <time>2025-03-15T09:11:07Z</time>
      </trkpt>
      <trkpt lat="43.87152" lon="7.00148">
        <ele>389.1</ele>
        <time>2025-03-15T09:11:07Z</time>
      </trkpt>
      <trkpt lat="43.87165" lon="7.00153">
        <ele>382.6</ele>
        <time>2025-03-15T09:11:07Z</time>
      </trkpt>
      <trkpt lat="43.87186" lon="7.00169">
        <ele>372.5</ele>
        <time>2025-03-15T09:11:07Z</time>
      </trkpt>
      <trkpt lat="43.87202" lon="7.002">
        <ele>368.7</ele>
        <time>2025-03-15T09:11:07Z</time>
      </trkpt>
      <trkpt lat="43.87229" lon="7.00265">
        <ele>363.9</ele>
        <time>2025-03-15T09:11:07Z</time>
      </trkpt>
      <trkpt lat="43.8724" lon="7.00298">
        <ele>356</ele>
        <time>2025-03-15T09:11:07Z</time>
      </trkpt>
      <trkpt lat="43.87243" lon="7.00328">
        <ele>357</ele>
        <time>2025-03-15T09:11:07Z</time>
      </trkpt>
      <trkpt lat="43.87251" lon="7.00366">
        <ele>346.2</ele>
        <time>2025-03-15T09:11:07Z</time>
      </trkpt>
      <trkpt lat="43.87251" lon="7.00403">
        <ele>342</ele>
        <time>2025-03-15T09:11:07Z</time>
      </trkpt>
      <trkpt lat="43.87251" lon="7.00425">
        <ele>334.6</ele>
        <time>2025-03-15T09:11:07Z</time>
      </trkpt>
      <trkpt lat="43.87256" lon="7.00406">
        <ele>336.6</ele>
        <time>2025-03-15T09:11:07Z</time>
      </trkpt>
      <trkpt lat="43.8726" lon="7.00443">
        <ele>325.4</ele>
        <time>2025-03-15T09:11:07Z</time>
      </trkpt>
      <trkpt lat="43.87258" lon="7.00451">
        <ele>324.6</ele>
        <time>2025-03-15T09:11:07Z</time>
      </trkpt>
      <trkpt lat="43.87257" lon="7.00456">
        <ele>325.5</ele>
        <time>2025-03-15T09:11:07Z</time>
      </trkpt>
      <trkpt lat="43.87255" lon="7.00462">
        <ele>324.2</ele>
        <time>2025-03-15T09:11:07Z</time>
      </trkpt>
      <trkpt lat="43.87253" lon="7.00469">
        <ele>322</ele>
        <time>2025-03-15T09:11:07Z</time>
      </trkpt>
      <trkpt lat="43.8725" lon="7.00485">
        <ele>322</ele>
        <time>2025-03-15T09:11:07Z</time>
      </trkpt>
      <trkpt lat="43.87249" lon="7.005">
        <ele>319.2</ele>
        <time>2025-03-15T09:11:07Z</time>
      </trkpt>
      <trkpt lat="43.87252" lon="7.00518">
        <ele>321.7</ele>
        <time>2025-03-15T09:11:07Z</time>
      </trkpt>
      <trkpt lat="43.87255" lon="7.00538">
        <ele>317.4</ele>
        <time>2025-03-15T09:11:07Z</time>
      </trkpt>
      <trkpt lat="43.87257" lon="7.00567">
        <ele>317.7</ele>
        <time>2025-03-15T09:11:07Z</time>
      </trkpt>
      <trkpt lat="43.87257" lon="7.00577">
        <ele>316.1</ele>
        <time>2025-03-15T09:11:07Z</time>
      </trkpt>
      <trkpt lat="43.87257" lon="7.00592">
        <ele>314.3</ele>
        <time>2025-03-15T09:11:07Z</time>
      </trkpt>
      <trkpt lat="43.87257" lon="7.00599">
        <ele>313</ele>
        <time>2025-03-15T09:11:07Z</time>
      </trkpt>
      <trkpt lat="43.87259" lon="7.00599">
        <ele>311.6</ele>
        <time>2025-03-15T09:11:07Z</time>
      </trkpt>
      <trkpt lat="43.87261" lon="7.00599">
        <ele>311.6</ele>
        <time>2025-03-15T09:11:07Z</time>
      </trkpt>
      <trkpt lat="43.87262" lon="7.00599">
        <ele>310.2</ele>
        <time>2025-03-15T09:11:07Z</time>
      </trkpt>
      <trkpt lat="43.87274" lon="7.00602">
        <ele>308.4</ele>
        <time>2025-03-15T09:11:07Z</time>
      </trkpt>
      <trkpt lat="43.87289" lon="7.00606">
        <ele>309.6</ele>
        <time>2025-03-15T09:11:07Z</time>
      </trkpt>
      <trkpt lat="43.87297" lon="7.00608">
        <ele>310.7</ele>
        <time>2025-03-15T09:11:07Z</time>
      </trkpt>
      <trkpt lat="43.87303" lon="7.0061">
        <ele>311.2</ele>
        <time>2025-03-15T09:11:07Z</time>
      </trkpt>
      <trkpt lat="43.87308" lon="7.00611">
        <ele>311.9</ele>
        <time>2025-03-15T09:11:07Z</time>
      </trkpt>
      <trkpt lat="43.87317" lon="7.00613">
        <ele>312.9</ele>
        <time>2025-03-15T09:11:07Z</time>
      </trkpt>
      <trkpt lat="43.87322" lon="7.00618">
        <ele>314</ele>
        <time>2025-03-15T09:11:07Z</time>
      </trkpt>
      <trkpt lat="43.87327" lon="7.00623">
        <ele>314.5</ele>
        <time>2025-03-15T09:11:07Z</time>
      </trkpt>
      <trkpt lat="43.87331" lon="7.00626">
        <ele>314.9</ele>
        <time>2025-03-15T09:11:07Z</time>
      </trkpt>
      <trkpt lat="43.87339" lon="7.0064">
        <ele>315.3</ele>
        <time>2025-03-15T09:11:07Z</time>
      </trkpt>
      <trkpt lat="43.87343" lon="7.00646">
        <ele>315.3</ele>
        <time>2025-03-15T09:11:07Z</time>
      </trkpt>
      <trkpt lat="43.87349" lon="7.00651">
        <ele>315.5</ele>
        <time>2025-03-15T09:11:07Z</time>
      </trkpt>
      <trkpt lat="43.87355" lon="7.00654">
        <ele>315.8</ele>
        <time>2025-03-15T09:11:07Z</time>
      </trkpt>
      <trkpt lat="43.87362" lon="7.00657">
        <ele>316.7</ele>
        <time>2025-03-15T09:11:07Z</time>
      </trkpt>
      <trkpt lat="43.8737" lon="7.0066">
        <ele>318</ele>
        <time>2025-03-15T09:11:07Z</time>
      </trkpt>
      <trkpt lat="43.87374" lon="7.00663">
        <ele>318.8</ele>
        <time>2025-03-15T09:11:07Z</time>
      </trkpt>
      <trkpt lat="43.8738" lon="7.00668">
        <ele>319.7</ele>
        <time>2025-03-15T09:11:07Z</time>
      </trkpt>
      <trkpt lat="43.87388" lon="7.00679">
        <ele>321</ele>
        <time>2025-03-15T09:11:07Z</time>
      </trkpt>
      <trkpt lat="43.87399" lon="7.00699">
        <ele>322.7</ele>
        <time>2025-03-15T09:11:07Z</time>
      </trkpt>
      <trkpt lat="43.87413" lon="7.00729">
        <ele>323.4</ele>
        <time>2025-03-15T09:11:07Z</time>
      </trkpt>
      <trkpt lat="43.87438" lon="7.00783">
        <ele>326.2</ele>
        <time>2025-03-15T09:11:07Z</time>
      </trkpt>
      <trkpt lat="43.87453" lon="7.00818">
        <ele>326.3</ele>
        <time>2025-03-15T09:11:07Z</time>
      </trkpt>
      <trkpt lat="43.87454" lon="7.0082">
        <ele>326.3</ele>
        <time>2025-03-15T09:11:07Z</time>
      </trkpt>
      <trkpt lat="43.87471" lon="7.00862">
        <ele>327.7</ele>
        <time>2025-03-15T09:11:07Z</time>
      </trkpt>
      <trkpt lat="43.87475" lon="7.00879">
        <ele>327.8</ele>
        <time>2025-03-15T09:11:07Z</time>
      </trkpt>
      <trkpt lat="43.87481" lon="7.00904">
        <ele>328.3</ele>
        <time>2025-03-15T09:11:07Z</time>
      </trkpt>
      <trkpt lat="43.87483" lon="7.00915">
        <ele>327.3</ele>
        <time>2025-03-15T09:11:07Z</time>
      </trkpt>
      <trkpt lat="43.87484" lon="7.00923">
        <ele>327</ele>
        <time>2025-03-15T09:11:07Z</time>
      </trkpt>
      <trkpt lat="43.87482" lon="7.00926">
        <ele>326.6</ele>
        <time>2025-03-15T09:11:07Z</time>
      </trkpt>
      <trkpt lat="43.87477" lon="7.00931">
        <ele>325.5</ele>
        <time>2025-03-15T09:11:07Z</time>
      </trkpt>
      <trkpt lat="43.87473" lon="7.00933">
        <ele>324.3</ele>
        <time>2025-03-15T09:11:07Z</time>
      </trkpt>
      <trkpt lat="43.87462" lon="7.00937">
        <ele>320.1</ele>
        <time>2025-03-15T09:11:07Z</time>
      </trkpt>
      <trkpt lat="43.87449" lon="7.00941">
        <ele>318.2</ele>
        <time>2025-03-15T09:11:07Z</time>
      </trkpt>
      <trkpt lat="43.87447" lon="7.00942">
        <ele>318.2</ele>
        <time>2025-03-15T09:11:07Z</time>
      </trkpt>
      <trkpt lat="43.87445" lon="7.00943">
        <ele>318.6</ele>
        <time>2025-03-15T09:11:07Z</time>
      </trkpt>
      <trkpt lat="43.87428" lon="7.00949">
        <ele>323</ele>
        <time>2025-03-15T09:11:07Z</time>
      </trkpt>
      <trkpt lat="43.87425" lon="7.00949">
        <ele>323</ele>
        <time>2025-03-15T09:11:07Z</time>
      </trkpt>
    </trkseg>
  </trk>
</gpx>